Black River (Missouri), Poplar Bluff (07063000)

StateMissouriLatestFlood (4580 cfs)
RiverBlack RiverRatingObservedEstimated
Updated2021-04-10 22:15 (52 minutes ago)Flood - The river is flooding. Obstacles can be treacherous or deadly. The river should be avoided at this stage for casual trips and definitely for the inexperienced. Trips should be attempted only with protective gear and equipment.Flood(none)4097
Discharge4580 cfs (median: 1630 cfs)High - The river is high and potentially dangerous, especially for the young and / or inexperienced. Normal stream obstacles are sometimes difficult to navigate. Extended distances can be attempted, but canoe travel may not be advisable.High(none)1935
Height11.2 feetGood - Conditions are ideal for a canoe or kayak. Boats typically will drag on fewer than one-quarter of riffles, if at all, and portages are unnecessary or rare. Normal float lengths can be attempted without a problem.Good(none)978
TrendSteady (rising over 24 hours)Low - River is low but can still be floated. Some riffles are okay but most come with significant dragging and might need a portage. Float lengths should be reduced to accommodate low flow, dragging, and portages.Low(none)643
USGSExternal icon USGS Site (External icon Google Maps)Poor - River is too low to float comfortably. Most or all riffles will drag or must be portaged and some obstacles (such as slick shelf rock) cause undue problems. Avoid the river at this stage for casual paddling trips.Poor(none)338

Trending Data

Plot Image

Trips for Black River (Missouri), Poplar Bluff (07063000)

DateStartEndDistanceConditionDischargeHeightFishingDetails

A total of 0 rows are displayed.

Condition Descriptions

Fishing Conditions

Fish Species

Notes

Classic Trip List

The classic River Trips application is still available for use. It is updated with the new system using a data retrofit. It is no longer maintained. The original River Trips application is no longer updated (as of 1 Dec 2016) but can be checked for errors or for the condition of the data before it was converted to the new system.

Gauge Data Table

ObservationHeightDischargeMaximum
Discharge
Minimum
Discharge
Mean
Discharge
P05P10P20P25P50
(Median)
P75P80P90P95
2021-04-10 22:15 11.20 4580 7740 (1969) 488 (1966) 2160 601 777 991 1090 1630 3040 3590 3880 3970
2021-04-10 21:15 11.20 4580 7740 (1969) 488 (1966) 2160 601 777 991 1090 1630 3040 3590 3880 3970
2021-04-10 20:15 11.19 4570 7740 (1969) 488 (1966) 2160 601 777 991 1090 1630 3040 3590 3880 3970
2021-04-10 19:15 11.21 4580 7740 (1969) 488 (1966) 2160 601 777 991 1090 1630 3040 3590 3880 3970
2021-04-10 18:15 11.21 4580 7740 (1969) 488 (1966) 2160 601 777 991 1090 1630 3040 3590 3880 3970
2021-04-10 17:15 11.20 4580 7740 (1969) 488 (1966) 2160 601 777 991 1090 1630 3040 3590 3880 3970
2021-04-10 16:15 11.20 4580 7740 (1969) 488 (1966) 2160 601 777 991 1090 1630 3040 3590 3880 3970
2021-04-10 15:15 11.20 4580 7740 (1969) 488 (1966) 2160 601 777 991 1090 1630 3040 3590 3880 3970
2021-04-10 14:15 11.20 4580 7740 (1969) 488 (1966) 2160 601 777 991 1090 1630 3040 3590 3880 3970
2021-04-10 13:15 11.20 4580 7740 (1969) 488 (1966) 2160 601 777 991 1090 1630 3040 3590 3880 3970
2021-04-10 12:15 11.19 4570 7740 (1969) 488 (1966) 2160 601 777 991 1090 1630 3040 3590 3880 3970
2021-04-10 11:15 11.19 4570 7740 (1969) 488 (1966) 2160 601 777 991 1090 1630 3040 3590 3880 3970
2021-04-10 10:15 11.19 4570 7740 (1969) 488 (1966) 2160 601 777 991 1090 1630 3040 3590 3880 3970
2021-04-10 09:15 11.21 4580 7740 (1969) 488 (1966) 2160 601 777 991 1090 1630 3040 3590 3880 3970
2021-04-10 08:15 11.19 4570 7740 (1969) 488 (1966) 2160 601 777 991 1090 1630 3040 3590 3880 3970
2021-04-10 07:15 11.18 4570 7740 (1969) 488 (1966) 2160 601 777 991 1090 1630 3040 3590 3880 3970
2021-04-10 06:15 11.18 4570 7740 (1969) 488 (1966) 2160 601 777 991 1090 1630 3040 3590 3880 3970
2021-04-10 05:15 11.18 4570 7740 (1969) 488 (1966) 2160 601 777 991 1090 1630 3040 3590 3880 3970
2021-04-10 04:15 11.18 4570 7740 (1969) 488 (1966) 2160 601 777 991 1090 1630 3040 3590 3880 3970
2021-04-10 03:15 11.18 4570 7740 (1969) 488 (1966) 2160 601 777 991 1090 1630 3040 3590 3880 3970
2021-04-10 02:15 11.18 4570 7740 (1969) 488 (1966) 2160 601 777 991 1090 1630 3040 3590 3880 3970
2021-04-10 01:15 11.16 4560 7740 (1969) 488 (1966) 2160 601 777 991 1090 1630 3040 3590 3880 3970
2021-04-10 00:15 11.15 4560 7740 (1969) 488 (1966) 2160 601 777 991 1090 1630 3040 3590 3880 3970
2021-04-09 23:15 11.15 4560 4800 (1986) 506 (1966) 2110 611 714 969 1090 1630 3330 3620 3880 4050
2021-04-09 22:15 11.14 4550 4800 (1986) 506 (1966) 2110 611 714 969 1090 1630 3330 3620 3880 4050
2021-04-09 21:15 11.17 4560 4800 (1986) 506 (1966) 2110 611 714 969 1090 1630 3330 3620 3880 4050
2021-04-09 20:15 11.18 4570 4800 (1986) 506 (1966) 2110 611 714 969 1090 1630 3330 3620 3880 4050
2021-04-09 19:15 11.20 4580 4800 (1986) 506 (1966) 2110 611 714 969 1090 1630 3330 3620 3880 4050
2021-04-09 18:15 11.23 4590 4800 (1986) 506 (1966) 2110 611 714 969 1090 1630 3330 3620 3880 4050
2021-04-09 17:15 11.27 4600 4800 (1986) 506 (1966) 2110 611 714 969 1090 1630 3330 3620 3880 4050
2021-04-09 16:15 11.28 4610 4800 (1986) 506 (1966) 2110 611 714 969 1090 1630 3330 3620 3880 4050
2021-04-09 15:15 11.33 4630 4800 (1986) 506 (1966) 2110 611 714 969 1090 1630 3330 3620 3880 4050
2021-04-09 14:15 11.36 4640 4800 (1986) 506 (1966) 2110 611 714 969 1090 1630 3330 3620 3880 4050
2021-04-09 13:15 11.40 4660 4800 (1986) 506 (1966) 2110 611 714 969 1090 1630 3330 3620 3880 4050
2021-04-09 12:15 11.41 4660 4800 (1986) 506 (1966) 2110 611 714 969 1090 1630 3330 3620 3880 4050
2021-04-09 11:15 11.45 4680 4800 (1986) 506 (1966) 2110 611 714 969 1090 1630 3330 3620 3880 4050
2021-04-09 10:15 11.47 4680 4800 (1986) 506 (1966) 2110 611 714 969 1090 1630 3330 3620 3880 4050
2021-04-09 09:15 11.51 4700 4800 (1986) 506 (1966) 2110 611 714 969 1090 1630 3330 3620 3880 4050
2021-04-09 08:15 11.53 4710 4800 (1986) 506 (1966) 2110 611 714 969 1090 1630 3330 3620 3880 4050
2021-04-09 07:15 11.56 4720 4800 (1986) 506 (1966) 2110 611 714 969 1090 1630 3330 3620 3880 4050
2021-04-09 06:15 11.59 4730 4800 (1986) 506 (1966) 2110 611 714 969 1090 1630 3330 3620 3880 4050
2021-04-09 05:15 11.61 4740 4800 (1986) 506 (1966) 2110 611 714 969 1090 1630 3330 3620 3880 4050
2021-04-09 04:15 11.63 4750 4800 (1986) 506 (1966) 2110 611 714 969 1090 1630 3330 3620 3880 4050
2021-04-09 03:15 11.65 4750 4800 (1986) 506 (1966) 2110 611 714 969 1090 1630 3330 3620 3880 4050
2021-04-09 02:15 11.66 4760 4800 (1986) 506 (1966) 2110 611 714 969 1090 1630 3330 3620 3880 4050
2021-04-09 01:15 11.68 4770 4800 (1986) 506 (1966) 2110 611 714 969 1090 1630 3330 3620 3880 4050
2021-04-09 00:15 11.68 4770 4800 (1986) 506 (1966) 2110 611 714 969 1090 1630 3330 3620 3880 4050
2021-04-08 23:15 11.67 4760 5370 (1986) 353 (1981) 2140 604 683 1000 1110 1700 3250 3590 3930 4080
2021-04-08 22:15 11.64 4750 5370 (1986) 353 (1981) 2140 604 683 1000 1110 1700 3250 3590 3930 4080
2021-04-08 21:15 11.64 4750 5370 (1986) 353 (1981) 2140 604 683 1000 1110 1700 3250 3590 3930 4080
2021-04-08 20:15 11.59 4730 5370 (1986) 353 (1981) 2140 604 683 1000 1110 1700 3250 3590 3930 4080
2021-04-08 19:15 11.55 4710 5370 (1986) 353 (1981) 2140 604 683 1000 1110 1700 3250 3590 3930 4080
2021-04-08 18:15 11.52 4700 5370 (1986) 353 (1981) 2140 604 683 1000 1110 1700 3250 3590 3930 4080
2021-04-08 17:15 11.44 4670 5370 (1986) 353 (1981) 2140 604 683 1000 1110 1700 3250 3590 3930 4080
2021-04-08 16:15 11.35 4640 5370 (1986) 353 (1981) 2140 604 683 1000 1110 1700 3250 3590 3930 4080
2021-04-08 15:15 11.28 4610 5370 (1986) 353 (1981) 2140 604 683 1000 1110 1700 3250 3590 3930 4080
2021-04-08 14:15 11.18 4570 5370 (1986) 353 (1981) 2140 604 683 1000 1110 1700 3250 3590 3930 4080
2021-04-08 13:15 11.06 4520 5370 (1986) 353 (1981) 2140 604 683 1000 1110 1700 3250 3590 3930 4080
2021-04-08 12:15 10.97 4490 5370 (1986) 353 (1981) 2140 604 683 1000 1110 1700 3250 3590 3930 4080
2021-04-08 11:15 10.83 4430 5370 (1986) 353 (1981) 2140 604 683 1000 1110 1700 3250 3590 3930 4080
2021-04-08 10:15 10.73 4390 5370 (1986) 353 (1981) 2140 604 683 1000 1110 1700 3250 3590 3930 4080
2021-04-08 09:15 10.63 4350 5370 (1986) 353 (1981) 2140 604 683 1000 1110 1700 3250 3590 3930 4080
2021-04-08 08:15 10.53 4310 5370 (1986) 353 (1981) 2140 604 683 1000 1110 1700 3250 3590 3930 4080
2021-04-08 07:15 10.42 4270 5370 (1986) 353 (1981) 2140 604 683 1000 1110 1700 3250 3590 3930 4080
2021-04-08 06:15 10.32 4230 5370 (1986) 353 (1981) 2140 604 683 1000 1110 1700 3250 3590 3930 4080
2021-04-08 05:15 10.25 4200 5370 (1986) 353 (1981) 2140 604 683 1000 1110 1700 3250 3590 3930 4080
2021-04-08 04:15 10.15 4170 5370 (1986) 353 (1981) 2140 604 683 1000 1110 1700 3250 3590 3930 4080
2021-04-08 03:15 10.10 4150 5370 (1986) 353 (1981) 2140 604 683 1000 1110 1700 3250 3590 3930 4080
2021-04-08 02:15 10.04 4120 5370 (1986) 353 (1981) 2140 604 683 1000 1110 1700 3250 3590 3930 4080
2021-04-08 01:15 10.01 4110 5370 (1986) 353 (1981) 2140 604 683 1000 1110 1700 3250 3590 3930 4080
2021-04-08 00:15 9.98 4100 5370 (1986) 353 (1981) 2140 604 683 1000 1110 1700 3250 3590 3930 4080
2021-04-07 23:15 9.97 4100 4400 (2008) 346 (1981) 2130 630 697 1090 1200 1740 3160 3440 3930 4070
2021-04-07 22:15 9.94 4080 4400 (2008) 346 (1981) 2130 630 697 1090 1200 1740 3160 3440 3930 4070
2021-04-07 21:15 9.92 4080 4400 (2008) 346 (1981) 2130 630 697 1090 1200 1740 3160 3440 3930 4070
2021-04-07 18:15 9.87 4060 4400 (2008) 346 (1981) 2130 630 697 1090 1200 1740 3160 3440 3930 4070
2021-04-07 17:15 9.86 4050 4400 (2008) 346 (1981) 2130 630 697 1090 1200 1740 3160 3440 3930 4070
2021-04-07 16:15 9.84 4050 4400 (2008) 346 (1981) 2130 630 697 1090 1200 1740 3160 3440 3930 4070
2021-04-07 15:15 9.85 4050 4400 (2008) 346 (1981) 2130 630 697 1090 1200 1740 3160 3440 3930 4070
2021-04-07 14:15 9.85 4050 4400 (2008) 346 (1981) 2130 630 697 1090 1200 1740 3160 3440 3930 4070
2021-04-07 13:15 9.83 4040 4400 (2008) 346 (1981) 2130 630 697 1090 1200 1740 3160 3440 3930 4070
2021-04-07 12:15 9.82 4040 4400 (2008) 346 (1981) 2130 630 697 1090 1200 1740 3160 3440 3930 4070
2021-04-07 11:15 9.82 4040 4400 (2008) 346 (1981) 2130 630 697 1090 1200 1740 3160 3440 3930 4070
2021-04-07 10:15 9.80 4030 4400 (2008) 346 (1981) 2130 630 697 1090 1200 1740 3160 3440 3930 4070
2021-04-07 09:15 9.81 4030 4400 (2008) 346 (1981) 2130 630 697 1090 1200 1740 3160 3440 3930 4070
2021-04-07 08:15 9.79 4030 4400 (2008) 346 (1981) 2130 630 697 1090 1200 1740 3160 3440 3930 4070
2021-04-07 07:15 9.79 4030 4400 (2008) 346 (1981) 2130 630 697 1090 1200 1740 3160 3440 3930 4070
2021-04-07 06:15 9.78 4020 4400 (2008) 346 (1981) 2130 630 697 1090 1200 1740 3160 3440 3930 4070
2021-04-07 05:15 9.77 4020 4400 (2008) 346 (1981) 2130 630 697 1090 1200 1740 3160 3440 3930 4070
2021-04-07 04:15 9.78 4020 4400 (2008) 346 (1981) 2130 630 697 1090 1200 1740 3160 3440 3930 4070
2021-04-07 03:15 9.77 4020 4400 (2008) 346 (1981) 2130 630 697 1090 1200 1740 3160 3440 3930 4070
2021-04-07 02:15 9.76 4010 4400 (2008) 346 (1981) 2130 630 697 1090 1200 1740 3160 3440 3930 4070
2021-04-07 01:15 9.78 4020 4400 (2008) 346 (1981) 2130 630 697 1090 1200 1740 3160 3440 3930 4070
2021-04-07 00:15 9.75 4010 4400 (2008) 346 (1981) 2130 630 697 1090 1200 1740 3160 3440 3930 4070
2021-04-06 23:15 9.77 4020 7480 (1997) 347 (1981) 2260 619 695 1030 1210 1740 3550 3690 3950 4780
2021-04-06 22:15 9.79 4030 7480 (1997) 347 (1981) 2260 619 695 1030 1210 1740 3550 3690 3950 4780
2021-04-06 21:15 9.78 4020 7480 (1997) 347 (1981) 2260 619 695 1030 1210 1740 3550 3690 3950 4780
2021-04-06 20:15 9.80 4030 7480 (1997) 347 (1981) 2260 619 695 1030 1210 1740 3550 3690 3950 4780
2021-04-06 19:15 9.79 4030 7480 (1997) 347 (1981) 2260 619 695 1030 1210 1740 3550 3690 3950 4780
2021-04-06 18:15 9.82 4040 7480 (1997) 347 (1981) 2260 619 695 1030 1210 1740 3550 3690 3950 4780
2021-04-06 17:15 9.80 4030 7480 (1997) 347 (1981) 2260 619 695 1030 1210 1740 3550 3690 3950 4780
2021-04-06 16:15 9.82 4040 7480 (1997) 347 (1981) 2260 619 695 1030 1210 1740 3550 3690 3950 4780
2021-04-06 15:15 9.81 4030 7480 (1997) 347 (1981) 2260 619 695 1030 1210 1740 3550 3690 3950 4780
2021-04-06 14:15 9.84 4050 7480 (1997) 347 (1981) 2260 619 695 1030 1210 1740 3550 3690 3950 4780
2021-04-06 13:15 9.82 4040 7480 (1997) 347 (1981) 2260 619 695 1030 1210 1740 3550 3690 3950 4780
2021-04-06 12:15 9.84 4050 7480 (1997) 347 (1981) 2260 619 695 1030 1210 1740 3550 3690 3950 4780
2021-04-06 11:15 9.83 4040 7480 (1997) 347 (1981) 2260 619 695 1030 1210 1740 3550 3690 3950 4780
2021-04-06 10:15 9.86 4050 7480 (1997) 347 (1981) 2260 619 695 1030 1210 1740 3550 3690 3950 4780
2021-04-06 09:15 9.84 4050 7480 (1997) 347 (1981) 2260 619 695 1030 1210 1740 3550 3690 3950 4780
2021-04-06 08:15 9.85 4050 7480 (1997) 347 (1981) 2260 619 695 1030 1210 1740 3550 3690 3950 4780
2021-04-06 07:15 9.87 4060 7480 (1997) 347 (1981) 2260 619 695 1030 1210 1740 3550 3690 3950 4780
2021-04-06 06:15 9.86 4050 7480 (1997) 347 (1981) 2260 619 695 1030 1210 1740 3550 3690 3950 4780
2021-04-06 05:15 9.88 4060 7480 (1997) 347 (1981) 2260 619 695 1030 1210 1740 3550 3690 3950 4780
2021-04-06 04:15 9.88 4060 7480 (1997) 347 (1981) 2260 619 695 1030 1210 1740 3550 3690 3950 4780
2021-04-06 03:15 9.88 4060 7480 (1997) 347 (1981) 2260 619 695 1030 1210 1740 3550 3690 3950 4780
2021-04-06 02:15 9.89 4060 7480 (1997) 347 (1981) 2260 619 695 1030 1210 1740 3550 3690 3950 4780
2021-04-06 01:15 9.90 4070 7480 (1997) 347 (1981) 2260 619 695 1030 1210 1740 3550 3690 3950 4780
2021-04-06 00:15 9.90 4070 7480 (1997) 347 (1981) 2260 619 695 1030 1210 1740 3550 3690 3950 4780
2021-04-05 23:15 9.93 4080 11700 (1957) 360 (1981) 2360 588 740 1010 1080 1890 3180 3550 3970 4760
2021-04-05 22:15 9.91 4070 11700 (1957) 360 (1981) 2360 588 740 1010 1080 1890 3180 3550 3970 4760
2021-04-05 21:15 9.93 4080 11700 (1957) 360 (1981) 2360 588 740 1010 1080 1890 3180 3550 3970 4760
2021-04-05 20:15 9.93 4080 11700 (1957) 360 (1981) 2360 588 740 1010 1080 1890 3180 3550 3970 4760
2021-04-05 19:15 9.94 4080 11700 (1957) 360 (1981) 2360 588 740 1010 1080 1890 3180 3550 3970 4760
2021-04-05 18:15 9.95 4090 11700 (1957) 360 (1981) 2360 588 740 1010 1080 1890 3180 3550 3970 4760
2021-04-05 17:15 9.95 4090 11700 (1957) 360 (1981) 2360 588 740 1010 1080 1890 3180 3550 3970 4760
2021-04-05 16:15 9.94 4080 11700 (1957) 360 (1981) 2360 588 740 1010 1080 1890 3180 3550 3970 4760
2021-04-05 15:15 9.97 4100 11700 (1957) 360 (1981) 2360 588 740 1010 1080 1890 3180 3550 3970 4760
2021-04-05 14:15 9.97 4100 11700 (1957) 360 (1981) 2360 588 740 1010 1080 1890 3180 3550 3970 4760
2021-04-05 13:15 9.98 4100 11700 (1957) 360 (1981) 2360 588 740 1010 1080 1890 3180 3550 3970 4760
2021-04-05 12:15 9.98 4100 11700 (1957) 360 (1981) 2360 588 740 1010 1080 1890 3180 3550 3970 4760
2021-04-05 11:15 9.97 4100 11700 (1957) 360 (1981) 2360 588 740 1010 1080 1890 3180 3550 3970 4760
2021-04-05 10:15 1 4110 11700 (1957) 360 (1981) 2360 588 740 1010 1080 1890 3180 3550 3970 4760
2021-04-05 09:15 9.99 4100 11700 (1957) 360 (1981) 2360 588 740 1010 1080 1890 3180 3550 3970 4760
2021-04-05 08:15 9.99 4100 11700 (1957) 360 (1981) 2360 588 740 1010 1080 1890 3180 3550 3970 4760
2021-04-05 07:15 1 4110 11700 (1957) 360 (1981) 2360 588 740 1010 1080 1890 3180 3550 3970 4760
2021-04-05 06:15 1 4110 11700 (1957) 360 (1981) 2360 588 740 1010 1080 1890 3180 3550 3970 4760
2021-04-05 05:15 10.01 4110 11700 (1957) 360 (1981) 2360 588 740 1010 1080 1890 3180 3550 3970 4760
2021-04-05 04:15 10.01 4110 11700 (1957) 360 (1981) 2360 588 740 1010 1080 1890 3180 3550 3970 4760
2021-04-05 03:15 10.03 4120 11700 (1957) 360 (1981) 2360 588 740 1010 1080 1890 3180 3550 3970 4760
2021-04-05 02:15 10.03 4120 11700 (1957) 360 (1981) 2360 588 740 1010 1080 1890 3180 3550 3970 4760
2021-04-05 01:15 10.04 4120 11700 (1957) 360 (1981) 2360 588 740 1010 1080 1890 3180 3550 3970 4760
2021-04-05 00:15 10.05 4130 11700 (1957) 360 (1981) 2360 588 740 1010 1080 1890 3180 3550 3970 4760
2021-04-04 23:15 10.05 4130 10000 (1957) 348 (1981) 2520 617 764 1060 1110 2020 3520 3850 4770 6120
2021-04-04 22:15 10.04 4120 10000 (1957) 348 (1981) 2520 617 764 1060 1110 2020 3520 3850 4770 6120
2021-04-04 21:15 10.06 4130 10000 (1957) 348 (1981) 2520 617 764 1060 1110 2020 3520 3850 4770 6120
2021-04-04 20:15 10.07 4130 10000 (1957) 348 (1981) 2520 617 764 1060 1110 2020 3520 3850 4770 6120
2021-04-04 19:15 10.09 4140 10000 (1957) 348 (1981) 2520 617 764 1060 1110 2020 3520 3850 4770 6120
2021-04-04 18:15 10.09 4140 10000 (1957) 348 (1981) 2520 617 764 1060 1110 2020 3520 3850 4770 6120
2021-04-04 17:15 10.09 4140 10000 (1957) 348 (1981) 2520 617 764 1060 1110 2020 3520 3850 4770 6120
2021-04-04 16:15 10.10 4150 10000 (1957) 348 (1981) 2520 617 764 1060 1110 2020 3520 3850 4770 6120
2021-04-04 15:15 10.09 4140 10000 (1957) 348 (1981) 2520 617 764 1060 1110 2020 3520 3850 4770 6120
2021-04-04 14:15 10.10 4150 10000 (1957) 348 (1981) 2520 617 764 1060 1110 2020 3520 3850 4770 6120
2021-04-04 13:15 10.11 4150 10000 (1957) 348 (1981) 2520 617 764 1060 1110 2020 3520 3850 4770 6120
2021-04-04 12:15 10.10 4150 10000 (1957) 348 (1981) 2520 617 764 1060 1110 2020 3520 3850 4770 6120
2021-04-04 11:15 10.11 4150 10000 (1957) 348 (1981) 2520 617 764 1060 1110 2020 3520 3850 4770 6120
2021-04-04 10:15 10.11 4150 10000 (1957) 348 (1981) 2520 617 764 1060 1110 2020 3520 3850 4770 6120
2021-04-04 09:15 10.10 4150 10000 (1957) 348 (1981) 2520 617 764 1060 1110 2020 3520 3850 4770 6120
2021-04-04 08:15 10.11 4150 10000 (1957) 348 (1981) 2520 617 764 1060 1110 2020 3520 3850 4770 6120
2021-04-04 07:15 10.13 4160 10000 (1957) 348 (1981) 2520 617 764 1060 1110 2020 3520 3850 4770 6120
2021-04-04 06:15 10.14 4160 10000 (1957) 348 (1981) 2520 617 764 1060 1110 2020 3520 3850 4770 6120
2021-04-04 05:15 10.12 4150 10000 (1957) 348 (1981) 2520 617 764 1060 1110 2020 3520 3850 4770 6120
2021-04-04 04:15 10.13 4160 10000 (1957) 348 (1981) 2520 617 764 1060 1110 2020 3520 3850 4770 6120
2021-04-04 03:15 10.15 4170 10000 (1957) 348 (1981) 2520 617 764 1060 1110 2020 3520 3850 4770 6120
2021-04-04 02:15 10.14 4160 10000 (1957) 348 (1981) 2520 617 764 1060 1110 2020 3520 3850 4770 6120
2021-04-04 01:15 10.14 4160 10000 (1957) 348 (1981) 2520 617 764 1060 1110 2020 3520 3850 4770 6120
2021-04-04 00:15 10.14 4160 10000 (1957) 348 (1981) 2520 617 764 1060 1110 2020 3520 3850 4770 6120
2021-04-03 23:15 10.15 4170 5100 (2015) 323 (1981) 2300 656 754 1130 1190 2110 3440 3630 4000 4230
2021-04-03 22:15 10.17 4170 5100 (2015) 323 (1981) 2300 656 754 1130 1190 2110 3440 3630 4000 4230
2021-04-03 21:15 10.17 4170 5100 (2015) 323 (1981) 2300 656 754 1130 1190 2110 3440 3630 4000 4230
2021-04-03 20:15 10.16 4170 5100 (2015) 323 (1981) 2300 656 754 1130 1190 2110 3440 3630 4000 4230
2021-04-03 19:15 10.16 4170 5100 (2015) 323 (1981) 2300 656 754 1130 1190 2110 3440 3630 4000 4230
2021-04-03 18:15 10.17 4170 5100 (2015) 323 (1981) 2300 656 754 1130 1190 2110 3440 3630 4000 4230
2021-04-03 17:15 10.16 4170 5100 (2015) 323 (1981) 2300 656 754 1130 1190 2110 3440 3630 4000 4230
2021-04-03 16:15 10.16 4170 5100 (2015) 323 (1981) 2300 656 754 1130 1190 2110 3440 3630 4000 4230
2021-04-03 15:15 10.17 4170 5100 (2015) 323 (1981) 2300 656 754 1130 1190 2110 3440 3630 4000 4230
2021-04-03 14:15 10.17 4170 5100 (2015) 323 (1981) 2300 656 754 1130 1190 2110 3440 3630 4000 4230
2021-04-03 13:15 10.18 4180 5100 (2015) 323 (1981) 2300 656 754 1130 1190 2110 3440 3630 4000 4230
2021-04-03 12:15 10.16 4170 5100 (2015) 323 (1981) 2300 656 754 1130 1190 2110 3440 3630 4000 4230
2021-04-03 11:15 10.16 4170 5100 (2015) 323 (1981) 2300 656 754 1130 1190 2110 3440 3630 4000 4230
2021-04-03 10:15 10.15 4170 5100 (2015) 323 (1981) 2300 656 754 1130 1190 2110 3440 3630 4000 4230
2021-04-03 09:15 10.15 4170 5100 (2015) 323 (1981) 2300 656 754 1130 1190 2110 3440 3630 4000 4230
2021-04-03 08:15 10.16 4170 5100 (2015) 323 (1981) 2300 656 754 1130 1190 2110 3440 3630 4000 4230
2021-04-03 07:15 10.16 4170 5100 (2015) 323 (1981) 2300 656 754 1130 1190 2110 3440 3630 4000 4230
2021-04-03 06:15 10.16 4170 5100 (2015) 323 (1981) 2300 656 754 1130 1190 2110 3440 3630 4000 4230
2021-04-03 05:15 10.15 4170 5100 (2015) 323 (1981) 2300 656 754 1130 1190 2110 3440 3630 4000 4230
2021-04-03 04:15 10.15 4170 5100 (2015) 323 (1981) 2300 656 754 1130 1190 2110 3440 3630 4000 4230
2021-04-03 03:15 10.15 4170 5100 (2015) 323 (1981) 2300 656 754 1130 1190 2110 3440 3630 4000 4230
2021-04-03 02:15 10.17 4170 5100 (2015) 323 (1981) 2300 656 754 1130 1190 2110 3440 3630 4000 4230
2021-04-03 01:15 10.16 4170 5100 (2015) 323 (1981) 2300 656 754 1130 1190 2110 3440 3630 4000 4230
2021-04-03 00:15 10.17 4170 5100 (2015) 323 (1981) 2300 656 754 1130 1190 2110 3440 3630 4000 4230
2021-04-02 23:15 10.17 4170 6210 (1985) 323 (1981) 2310 610 790 1110 1210 1970 3320 3600 4280 4850
2021-04-02 22:15 10.19 4180 6210 (1985) 323 (1981) 2310 610 790 1110 1210 1970 3320 3600 4280 4850
2021-04-02 21:15 10.18 4180 6210 (1985) 323 (1981) 2310 610 790 1110 1210 1970 3320 3600 4280 4850
2021-04-02 20:15 10.19 4180 6210 (1985) 323 (1981) 2310 610 790 1110 1210 1970 3320 3600 4280 4850
2021-04-02 19:15 10.19 4180 6210 (1985) 323 (1981) 2310 610 790 1110 1210 1970 3320 3600 4280 4850
2021-04-02 18:15 10.20 4180 6210 (1985) 323 (1981) 2310 610 790 1110 1210 1970 3320 3600 4280 4850
2021-04-02 17:15 10.19 4180 6210 (1985) 323 (1981) 2310 610 790 1110 1210 1970 3320 3600 4280 4850
2021-04-02 16:15 10.21 4190 6210 (1985) 323 (1981) 2310 610 790 1110 1210 1970 3320 3600 4280 4850
2021-04-02 15:15 10.21 4190 6210 (1985) 323 (1981) 2310 610 790 1110 1210 1970 3320 3600 4280 4850
2021-04-02 14:15 10.23 4200 6210 (1985) 323 (1981) 2310 610 790 1110 1210 1970 3320 3600 4280 4850
2021-04-02 13:15 10.23 4200 6210 (1985) 323 (1981) 2310 610 790 1110 1210 1970 3320 3600 4280 4850
2021-04-02 12:15 10.23 4200 6210 (1985) 323 (1981) 2310 610 790 1110 1210 1970 3320 3600 4280 4850
2021-04-02 11:15 10.24 4200 6210 (1985) 323 (1981) 2310 610 790 1110 1210 1970 3320 3600 4280 4850
2021-04-02 10:15 10.25 4200 6210 (1985) 323 (1981) 2310 610 790 1110 1210 1970 3320 3600 4280 4850
2021-04-02 09:15 10.25 4200 6210 (1985) 323 (1981) 2310 610 790 1110 1210 1970 3320 3600 4280 4850
2021-04-02 08:15 10.27 4210 6210 (1985) 323 (1981) 2310 610 790 1110 1210 1970 3320 3600 4280 4850
2021-04-02 07:15 10.27 4210 6210 (1985) 323 (1981) 2310 610 790 1110 1210 1970 3320 3600 4280 4850
2021-04-02 06:15 10.28 4220 6210 (1985) 323 (1981) 2310 610 790 1110 1210 1970 3320 3600 4280 4850
2021-04-02 05:15 10.28 4220 6210 (1985) 323 (1981) 2310 610 790 1110 1210 1970 3320 3600 4280 4850
2021-04-02 04:15 10.31 4230 6210 (1985) 323 (1981) 2310 610 790 1110 1210 1970 3320 3600 4280 4850
2021-04-02 03:15 10.30 4220 6210 (1985) 323 (1981) 2310 610 790 1110 1210 1970 3320 3600 4280 4850
2021-04-02 02:15 10.31 4230 6210 (1985) 323 (1981) 2310 610 790 1110 1210 1970 3320 3600 4280 4850
2021-04-02 01:15 10.32 4230 6210 (1985) 323 (1981) 2310 610 790 1110 1210 1970 3320 3600 4280 4850
2021-04-02 00:15 10.33 4240 6210 (1985) 323 (1981) 2310 610 790 1110 1210 1970 3320 3600 4280 4850
2021-04-01 23:15 10.35 4240 14000 (1985) 323 (1981) 2500 570 750 1110 1240 1930 3400 3700 4480 5630
2021-04-01 22:15 10.34 4240 14000 (1985) 323 (1981) 2500 570 750 1110 1240 1930 3400 3700 4480 5630
2021-04-01 21:15 10.34 4240 14000 (1985) 323 (1981) 2500 570 750 1110 1240 1930 3400 3700 4480 5630
2021-04-01 20:15 10.36 4250 14000 (1985) 323 (1981) 2500 570 750 1110 1240 1930 3400 3700 4480 5630
2021-04-01 19:15 10.37 4250 14000 (1985) 323 (1981) 2500 570 750 1110 1240 1930 3400 3700 4480 5630
2021-04-01 18:15 10.38 4250 14000 (1985) 323 (1981) 2500 570 750 1110 1240 1930 3400 3700 4480 5630
2021-04-01 17:15 10.37 4250 14000 (1985) 323 (1981) 2500 570 750 1110 1240 1930 3400 3700 4480 5630
2021-04-01 16:15 10.40 4260 14000 (1985) 323 (1981) 2500 570 750 1110 1240 1930 3400 3700 4480 5630
2021-04-01 15:15 10.40 4260 14000 (1985) 323 (1981) 2500 570 750 1110 1240 1930 3400 3700 4480 5630
2021-04-01 14:15 10.42 4270 14000 (1985) 323 (1981) 2500 570 750 1110 1240 1930 3400 3700 4480 5630
2021-04-01 13:15 10.41 4270 14000 (1985) 323 (1981) 2500 570 750 1110 1240 1930 3400 3700 4480 5630
2021-04-01 12:15 10.42 4270 14000 (1985) 323 (1981) 2500 570 750 1110 1240 1930 3400 3700 4480 5630
2021-04-01 11:15 10.43 4270 14000 (1985) 323 (1981) 2500 570 750 1110 1240 1930 3400 3700 4480 5630
2021-04-01 10:15 10.44 4280 14000 (1985) 323 (1981) 2500 570 750 1110 1240 1930 3400 3700 4480 5630
2021-04-01 09:15 10.45 4280 14000 (1985) 323 (1981) 2500 570 750 1110 1240 1930 3400 3700 4480 5630
2021-04-01 08:15 10.46 4290 14000 (1985) 323 (1981) 2500 570 750 1110 1240 1930 3400 3700 4480 5630
2021-04-01 07:15 10.47 4290 14000 (1985) 323 (1981) 2500 570 750 1110 1240 1930 3400 3700 4480 5630
2021-04-01 06:15 10.47 4290 14000 (1985) 323 (1981) 2500 570 750 1110 1240 1930 3400 3700 4480 5630
2021-04-01 05:15 10.50 4300 14000 (1985) 323 (1981) 2500 570 750 1110 1240 1930 3400 3700 4480 5630
2021-04-01 04:15 10.50 4300 14000 (1985) 323 (1981) 2500 570 750 1110 1240 1930 3400 3700 4480 5630
2021-04-01 03:15 10.50 4300 14000 (1985) 323 (1981) 2500 570 750 1110 1240 1930 3400 3700 4480 5630
2021-04-01 02:15 10.50 4300 14000 (1985) 323 (1981) 2500 570 750 1110 1240 1930 3400 3700 4480 5630
2021-04-01 01:15 10.52 4310 14000 (1985) 323 (1981) 2500 570 750 1110 1240 1930 3400 3700 4480 5630
2021-04-01 00:15 10.54 4320 14000 (1985) 323 (1981) 2500 570 750 1110 1240 1930 3400 3700 4480 5630
2021-03-31 23:15 10.53 4310 15400 (1985) 327 (1981) 2660 580 808 1160 1330 2060 3670 3930 4570 5330
2021-03-31 22:15 10.55 4320 15400 (1985) 327 (1981) 2660 580 808 1160 1330 2060 3670 3930 4570 5330
2021-03-31 21:15 10.55 4320 15400 (1985) 327 (1981) 2660 580 808 1160 1330 2060 3670 3930 4570 5330
2021-03-31 20:15 10.57 4330 15400 (1985) 327 (1981) 2660 580 808 1160 1330 2060 3670 3930 4570 5330
2021-03-31 19:15 10.55 4320 15400 (1985) 327 (1981) 2660 580 808 1160 1330 2060 3670 3930 4570 5330
2021-03-31 18:15 10.57 4330 15400 (1985) 327 (1981) 2660 580 808 1160 1330 2060 3670 3930 4570 5330
2021-03-31 17:15 10.57 4330 15400 (1985) 327 (1981) 2660 580 808 1160 1330 2060 3670 3930 4570 5330
2021-03-31 16:15 10.58 4330 15400 (1985) 327 (1981) 2660 580 808 1160 1330 2060 3670 3930 4570 5330
2021-03-31 15:15 10.58 4330 15400 (1985) 327 (1981) 2660 580 808 1160 1330 2060 3670 3930 4570 5330
2021-03-31 14:15 10.59 4340 15400 (1985) 327 (1981) 2660 580 808 1160 1330 2060 3670 3930 4570 5330
2021-03-31 13:15 10.57 4330 15400 (1985) 327 (1981) 2660 580 808 1160 1330 2060 3670 3930 4570 5330
2021-03-31 12:15 10.58 4330 15400 (1985) 327 (1981) 2660 580 808 1160 1330 2060 3670 3930 4570 5330
2021-03-31 11:15 10.58 4330 15400 (1985) 327 (1981) 2660 580 808 1160 1330 2060 3670 3930 4570 5330
2021-03-31 10:15 10.58 4330 15400 (1985) 327 (1981) 2660 580 808 1160 1330 2060 3670 3930 4570 5330
2021-03-31 09:15 10.57 4330 15400 (1985) 327 (1981) 2660 580 808 1160 1330 2060 3670 3930 4570 5330
2021-03-31 08:15 10.58 4330 15400 (1985) 327 (1981) 2660 580 808 1160 1330 2060 3670 3930 4570 5330
2021-03-31 07:15 10.59 4340 15400 (1985) 327 (1981) 2660 580 808 1160 1330 2060 3670 3930 4570 5330
2021-03-31 06:15 10.58 4330 15400 (1985) 327 (1981) 2660 580 808 1160 1330 2060 3670 3930 4570 5330
2021-03-31 05:15 10.58 4330 15400 (1985) 327 (1981) 2660 580 808 1160 1330 2060 3670 3930 4570 5330
2021-03-31 04:15 10.58 4330 15400 (1985) 327 (1981) 2660 580 808 1160 1330 2060 3670 3930 4570 5330
2021-03-31 03:15 10.58 4330 15400 (1985) 327 (1981) 2660 580 808 1160 1330 2060 3670 3930 4570 5330
2021-03-31 02:15 10.59 4340 15400 (1985) 327 (1981) 2660 580 808 1160 1330 2060 3670 3930 4570 5330
2021-03-31 01:15 10.60 4340 15400 (1985) 327 (1981) 2660 580 808 1160 1330 2060 3670 3930 4570 5330
2021-03-31 00:15 10.58 4330 15400 (1985) 327 (1981) 2660 580 808 1160 1330 2060 3670 3930 4570 5330
2021-03-30 23:15 10.59 4340 9250 (1975) 342 (1981) 2550 608 832 1140 1260 2040 3550 3720 4720 5990
2021-03-30 22:15 10.59 4340 9250 (1975) 342 (1981) 2550 608 832 1140 1260 2040 3550 3720 4720 5990
2021-03-30 21:15 10.60 4340 9250 (1975) 342 (1981) 2550 608 832 1140 1260 2040 3550 3720 4720 5990
2021-03-30 20:15 10.61 4340 9250 (1975) 342 (1981) 2550 608 832 1140 1260 2040 3550 3720 4720 5990
2021-03-30 19:15 10.61 4340 9250 (1975) 342 (1981) 2550 608 832 1140 1260 2040 3550 3720 4720 5990
2021-03-30 18:15 10.62 4350 9250 (1975) 342 (1981) 2550 608 832 1140 1260 2040 3550 3720 4720 5990
2021-03-30 17:15 10.63 4350 9250 (1975) 342 (1981) 2550 608 832 1140 1260 2040 3550 3720 4720 5990
2021-03-30 16:15 10.63 4350 9250 (1975) 342 (1981) 2550 608 832 1140 1260 2040 3550 3720 4720 5990
2021-03-30 15:15 10.62 4350 9250 (1975) 342 (1981) 2550 608 832 1140 1260 2040 3550 3720 4720 5990
2021-03-30 14:15 10.62 4350 9250 (1975) 342 (1981) 2550 608 832 1140 1260 2040 3550 3720 4720 5990
2021-03-30 13:15 10.62 4350 9250 (1975) 342 (1981) 2550 608 832 1140 1260 2040 3550 3720 4720 5990
2021-03-30 12:15 10.63 4350 9250 (1975) 342 (1981) 2550 608 832 1140 1260 2040 3550 3720 4720 5990
2021-03-30 11:15 10.64 4360 9250 (1975) 342 (1981) 2550 608 832 1140 1260 2040 3550 3720 4720 5990
2021-03-30 10:15 10.66 4360 9250 (1975) 342 (1981) 2550 608 832 1140 1260 2040 3550 3720 4720 5990
2021-03-30 09:15 10.64 4360 9250 (1975) 342 (1981) 2550 608 832 1140 1260 2040 3550 3720 4720 5990
2021-03-30 08:15 10.65 4360 9250 (1975) 342 (1981) 2550 608 832 1140 1260 2040 3550 3720 4720 5990
2021-03-30 07:15 10.68 4370 9250 (1975) 342 (1981) 2550 608 832 1140 1260 2040 3550 3720 4720 5990
2021-03-30 06:15 10.68 4370 9250 (1975) 342 (1981) 2550 608 832 1140 1260 2040 3550 3720 4720 5990
2021-03-30 05:15 10.70 4380 9250 (1975) 342 (1981) 2550 608 832 1140 1260 2040 3550 3720 4720 5990
2021-03-30 04:15 10.68 4370 9250 (1975) 342 (1981) 2550 608 832 1140 1260 2040 3550 3720 4720 5990
2021-03-30 03:15 10.70 4380 9250 (1975) 342 (1981) 2550 608 832 1140 1260 2040 3550 3720 4720 5990
2021-03-30 02:15 10.71 4380 9250 (1975) 342 (1981) 2550 608 832 1140 1260 2040 3550 3720 4720 5990
2021-03-30 01:15 10.74 4400 9250 (1975) 342 (1981) 2550 608 832 1140 1260 2040 3550 3720 4720 5990
2021-03-30 00:15 10.72 4390 9250 (1975) 342 (1981) 2550 608 832 1140 1260 2040 3550 3720 4720 5990
2021-03-29 23:15 10.75 4400 19100 (1977) 356 (1981) 2610 653 844 1150 1200 2120 3480 3590 4150 4850
2021-03-29 22:15 10.73 4390 19100 (1977) 356 (1981) 2610 653 844 1150 1200 2120 3480 3590 4150 4850
2021-03-29 21:15 10.76 4400 19100 (1977) 356 (1981) 2610 653 844 1150 1200 2120 3480 3590 4150 4850
2021-03-29 20:15 10.77 4410 19100 (1977) 356 (1981) 2610 653 844 1150 1200 2120 3480 3590 4150 4850
2021-03-29 19:15 10.77 4410 19100 (1977) 356 (1981) 2610 653 844 1150 1200 2120 3480 3590 4150 4850
2021-03-29 18:15 10.77 4410 19100 (1977) 356 (1981) 2610 653 844 1150 1200 2120 3480 3590 4150 4850
2021-03-29 17:15 10.79 4420 19100 (1977) 356 (1981) 2610 653 844 1150 1200 2120 3480 3590 4150 4850
2021-03-29 16:15 10.80 4420 19100 (1977) 356 (1981) 2610 653 844 1150 1200 2120 3480 3590 4150 4850
2021-03-29 15:15 10.79 4420 19100 (1977) 356 (1981) 2610 653 844 1150 1200 2120 3480 3590 4150 4850
2021-03-29 14:15 10.82 4430 19100 (1977) 356 (1981) 2610 653 844 1150 1200 2120 3480 3590 4150 4850
2021-03-29 13:15 10.83 4430 19100 (1977) 356 (1981) 2610 653 844 1150 1200 2120 3480 3590 4150 4850
2021-03-29 12:15 10.83 4430 19100 (1977) 356 (1981) 2610 653 844 1150 1200 2120 3480 3590 4150 4850
2021-03-29 11:15 10.84 4430 19100 (1977) 356 (1981) 2610 653 844 1150 1200 2120 3480 3590 4150 4850
2021-03-29 10:15 10.84 4430 19100 (1977) 356 (1981) 2610 653 844 1150 1200 2120 3480 3590 4150 4850
2021-03-29 09:15 10.84 4430 19100 (1977) 356 (1981) 2610 653 844 1150 1200 2120 3480 3590 4150 4850
2021-03-29 08:15 10.86 4440 19100 (1977) 356 (1981) 2610 653 844 1150 1200 2120 3480 3590 4150 4850
2021-03-29 07:15 10.86 4440 19100 (1977) 356 (1981) 2610 653 844 1150 1200 2120 3480 3590 4150 4850
2021-03-29 06:15 10.86 4440 19100 (1977) 356 (1981) 2610 653 844 1150 1200 2120 3480 3590 4150 4850
2021-03-29 05:15 10.89 4450 19100 (1977) 356 (1981) 2610 653 844 1150 1200 2120 3480 3590 4150 4850
2021-03-29 04:15 10.87 4450 19100 (1977) 356 (1981) 2610 653 844 1150 1200 2120 3480 3590 4150 4850
2021-03-29 03:15 10.89 4450 19100 (1977) 356 (1981) 2610 653 844 1150 1200 2120 3480 3590 4150 4850
2021-03-29 02:15 10.89 4450 19100 (1977) 356 (1981) 2610 653 844 1150 1200 2120 3480 3590 4150 4850
2021-03-29 01:15 10.89 4450 19100 (1977) 356 (1981) 2610 653 844 1150 1200 2120 3480 3590 4150 4850
2021-03-29 00:15 10.88 4450 19100 (1977) 356 (1981) 2610 653 844 1150 1200 2120 3480 3590 4150 4850
2021-03-28 23:15 10.88 4450 16600 (1977) 413 (1981) 2530 683 821 1090 1210 2170 3540 3720 4300 4660
2021-03-28 22:15 10.88 4450 16600 (1977) 413 (1981) 2530 683 821 1090 1210 2170 3540 3720 4300 4660
2021-03-28 21:15 10.87 4450 16600 (1977) 413 (1981) 2530 683 821 1090 1210 2170 3540 3720 4300 4660
2021-03-28 20:15 10.88 4450 16600 (1977) 413 (1981) 2530 683 821 1090 1210 2170 3540 3720 4300 4660
2021-03-28 19:15 10.86 4440 16600 (1977) 413 (1981) 2530 683 821 1090 1210 2170 3540 3720 4300 4660
2021-03-28 18:15 10.84 4430 16600 (1977) 413 (1981) 2530 683 821 1090 1210 2170 3540 3720 4300 4660
2021-03-28 17:15 10.83 4430 16600 (1977) 413 (1981) 2530 683 821 1090 1210 2170 3540 3720 4300 4660
2021-03-28 16:15 10.85 4440 16600 (1977) 413 (1981) 2530 683 821 1090 1210 2170 3540 3720 4300 4660
2021-03-28 15:15 10.81 4420 16600 (1977) 413 (1981) 2530 683 821 1090 1210 2170 3540 3720 4300 4660
2021-03-28 14:15 10.80 4420 16600 (1977) 413 (1981) 2530 683 821 1090 1210 2170 3540 3720 4300 4660
2021-03-28 13:15 10.78 4410 16600 (1977) 413 (1981) 2530 683 821 1090 1210 2170 3540 3720 4300 4660
2021-03-28 12:15 10.77 4410 16600 (1977) 413 (1981) 2530 683 821 1090 1210 2170 3540 3720 4300 4660
2021-03-28 11:15 10.76 4400 16600 (1977) 413 (1981) 2530 683 821 1090 1210 2170 3540 3720 4300 4660
2021-03-28 10:15 10.76 4400 16600 (1977) 413 (1981) 2530 683 821 1090 1210 2170 3540 3720 4300 4660
2021-03-28 09:15 10.74 4400 16600 (1977) 413 (1981) 2530 683 821 1090 1210 2170 3540 3720 4300 4660
2021-03-28 08:15 10.73 4390 16600 (1977) 413 (1981) 2530 683 821 1090 1210 2170 3540 3720 4300 4660
2021-03-28 07:15 10.71 4380 16600 (1977) 413 (1981) 2530 683 821 1090 1210 2170 3540 3720 4300 4660
2021-03-28 06:15 10.68 4370 16600 (1977) 413 (1981) 2530 683 821 1090 1210 2170 3540 3720 4300 4660
2021-03-28 05:15 10.67 4370 16600 (1977) 413 (1981) 2530 683 821 1090 1210 2170 3540 3720 4300 4660
2021-03-28 04:15 10.68 4370 16600 (1977) 413 (1981) 2530 683 821 1090 1210 2170 3540 3720 4300 4660
2021-03-28 03:15 10.63 4350 16600 (1977) 413 (1981) 2530 683 821 1090 1210 2170 3540 3720 4300 4660
2021-03-28 02:15 10.63 4350 16600 (1977) 413 (1981) 2530 683 821 1090 1210 2170 3540 3720 4300 4660
2021-03-28 01:15 10.60 4340 16600 (1977) 413 (1981) 2530 683 821 1090 1210 2170 3540 3720 4300 4660
2021-03-28 00:15 10.59 4340 16600 (1977) 413 (1981) 2530 683 821 1090 1210 2170 3540 3720 4300 4660
2021-03-27 23:15 10.55 4320 5880 (1949) 466 (1981) 2310 700 874 1100 1210 2070 3440 3690 4100 4980
2021-03-27 22:15 10.52 4310 5880 (1949) 466 (1981) 2310 700 874 1100 1210 2070 3440 3690 4100 4980
2021-03-27 21:15 10.48 4290 5880 (1949) 466 (1981) 2310 700 874 1100 1210 2070 3440 3690 4100 4980
2021-03-27 20:15 10.45 4280 5880 (1949) 466 (1981) 2310 700 874 1100 1210 2070 3440 3690 4100 4980
2021-03-27 19:15 10.42 4270 5880 (1949) 466 (1981) 2310 700 874 1100 1210 2070 3440 3690 4100 4980
2021-03-27 18:15 10.36 4250 5880 (1949) 466 (1981) 2310 700 874 1100 1210 2070 3440 3690 4100 4980
2021-03-27 17:15 10.34 4240 5880 (1949) 466 (1981) 2310 700 874 1100 1210 2070 3440 3690 4100 4980
2021-03-27 16:15 10.28 4220 5880 (1949) 466 (1981) 2310 700 874 1100 1210 2070 3440 3690 4100 4980
2021-03-27 15:15 10.22 4190 5880 (1949) 466 (1981) 2310 700 874 1100 1210 2070 3440 3690 4100 4980
2021-03-27 14:15 10.16 4170 5880 (1949) 466 (1981) 2310 700 874 1100 1210 2070 3440 3690 4100 4980
2021-03-27 13:15 10.09 4140 5880 (1949) 466 (1981) 2310 700 874 1100 1210 2070 3440 3690 4100 4980
2021-03-27 12:15 10.02 4110 5880 (1949) 466 (1981) 2310 700 874 1100 1210 2070 3440 3690 4100 4980
2021-03-27 11:15 9.94 4080 5880 (1949) 466 (1981) 2310 700 874 1100 1210 2070 3440 3690 4100 4980
2021-03-27 10:15 9.86 4050 5880 (1949) 466 (1981) 2310 700 874 1100 1210 2070 3440 3690 4100 4980
2021-03-27 09:15 9.80 4030 5880 (1949) 466 (1981) 2310 700 874 1100 1210 2070 3440 3690 4100 4980
2021-03-27 08:15 9.72 4000 5880 (1949) 466 (1981) 2310 700 874 1100 1210 2070 3440 3690 4100 4980
2021-03-27 07:15 9.64 3970 5880 (1949) 466 (1981) 2310 700 874 1100 1210 2070 3440 3690 4100 4980
2021-03-27 06:15 9.56 3940 5880 (1949) 466 (1981) 2310 700 874 1100 1210 2070 3440 3690 4100 4980
2021-03-27 05:15 9.49 3910 5880 (1949) 466 (1981) 2310 700 874 1100 1210 2070 3440 3690 4100 4980
2021-03-27 04:15 9.43 3890 5880 (1949) 466 (1981) 2310 700 874 1100 1210 2070 3440 3690 4100 4980
2021-03-27 03:15 9.38 3870 5880 (1949) 466 (1981) 2310 700 874 1100 1210 2070 3440 3690 4100 4980
2021-03-27 02:15 9.37 3860 5880 (1949) 466 (1981) 2310 700 874 1100 1210 2070 3440 3690 4100 4980
2021-03-27 01:15 9.32 3840 5880 (1949) 466 (1981) 2310 700 874 1100 1210 2070 3440 3690 4100 4980
2021-03-27 00:15 9.33 3850 5880 (1949) 466 (1981) 2310 700 874 1100 1210 2070 3440 3690 4100 4980
2021-03-26 23:15 9.35 3860 6560 (2002) 509 (1981) 2250 720 822 1070 1240 1870 3650 3780 4130 4320
2021-03-26 22:15 9.38 3870 6560 (2002) 509 (1981) 2250 720 822 1070 1240 1870 3650 3780 4130 4320
2021-03-26 21:15 9.42 3880 6560 (2002) 509 (1981) 2250 720 822 1070 1240 1870 3650 3780 4130 4320
2021-03-26 20:15 9.48 3910 6560 (2002) 509 (1981) 2250 720 822 1070 1240 1870 3650 3780 4130 4320
2021-03-26 19:15 9.53 3930 6560 (2002) 509 (1981) 2250 720 822 1070 1240 1870 3650 3780 4130 4320
2021-03-26 18:15 9.61 3960 6560 (2002) 509 (1981) 2250 720 822 1070 1240 1870 3650 3780 4130 4320
2021-03-26 17:15 9.67 3980 6560 (2002) 509 (1981) 2250 720 822 1070 1240 1870 3650 3780 4130 4320
2021-03-26 16:15 9.75 4010 6560 (2002) 509 (1981) 2250 720 822 1070 1240 1870 3650 3780 4130 4320
2021-03-26 15:15 9.82 4040 6560 (2002) 509 (1981) 2250 720 822 1070 1240 1870 3650 3780 4130 4320
2021-03-26 14:15 9.91 4070 6560 (2002) 509 (1981) 2250 720 822 1070 1240 1870 3650 3780 4130 4320
2021-03-26 13:15 9.99 4100 6560 (2002) 509 (1981) 2250 720 822 1070 1240 1870 3650 3780 4130 4320
2021-03-26 12:15 10.08 4140 6560 (2002) 509 (1981) 2250 720 822 1070 1240 1870 3650 3780 4130 4320
2021-03-26 11:15 10.16 4170 6560 (2002) 509 (1981) 2250 720 822 1070 1240 1870 3650 3780 4130 4320
2021-03-26 10:15 10.25 4200 6560 (2002) 509 (1981) 2250 720 822 1070 1240 1870 3650 3780 4130 4320
2021-03-26 09:15 10.34 4240 6560 (2002) 509 (1981) 2250 720 822 1070 1240 1870 3650 3780 4130 4320
2021-03-26 08:15 10.39 4260 6560 (2002) 509 (1981) 2250 720 822 1070 1240 1870 3650 3780 4130 4320
2021-03-26 07:15 10.48 4290 6560 (2002) 509 (1981) 2250 720 822 1070 1240 1870 3650 3780 4130 4320
2021-03-26 06:15 10.51 4310 6560 (2002) 509 (1981) 2250 720 822 1070 1240 1870 3650 3780 4130 4320
2021-03-26 05:15 10.55 4320 6560 (2002) 509 (1981) 2250 720 822 1070 1240 1870 3650 3780 4130 4320
2021-03-26 04:15 10.58 4330 6560 (2002) 509 (1981) 2250 720 822 1070 1240 1870 3650 3780 4130 4320
2021-03-26 03:15 10.58 4330 6560 (2002) 509 (1981) 2250 720 822 1070 1240 1870 3650 3780 4130 4320
2021-03-26 02:15 10.57 4330 6560 (2002) 509 (1981) 2250 720 822 1070 1240 1870 3650 3780 4130 4320
2021-03-26 01:15 10.56 4330 6560 (2002) 509 (1981) 2250 720 822 1070 1240 1870 3650 3780 4130 4320
2021-03-26 00:15 10.53 4310 6560 (2002) 509 (1981) 2250 720 822 1070 1240 1870 3650 3780 4130 4320
2021-03-25 23:15 10.49 4300 9140 (1958) 498 (1981) 2290 657 828 1090 1130 1840 3410 3730 4030 4430
2021-03-25 22:15 10.44 4280 9140 (1958) 498 (1981) 2290 657 828 1090 1130 1840 3410 3730 4030 4430
2021-03-25 21:15 10.41 4270 9140 (1958) 498 (1981) 2290 657 828 1090 1130 1840 3410 3730 4030 4430
2021-03-25 20:15 10.36 4250 9140 (1958) 498 (1981) 2290 657 828 1090 1130 1840 3410 3730 4030 4430
2021-03-25 19:15 10.31 4230 9140 (1958) 498 (1981) 2290 657 828 1090 1130 1840 3410 3730 4030 4430
2021-03-25 18:15 10.25 4200 9140 (1958) 498 (1981) 2290 657 828 1090 1130 1840 3410 3730 4030 4430
2021-03-25 17:15 10.20 4180 9140 (1958) 498 (1981) 2290 657 828 1090 1130 1840 3410 3730 4030 4430
2021-03-25 16:15 10.13 4160 9140 (1958) 498 (1981) 2290 657 828 1090 1130 1840 3410 3730 4030 4430
2021-03-25 15:15 10.05 4130 9140 (1958) 498 (1981) 2290 657 828 1090 1130 1840 3410 3730 4030 4430
2021-03-25 14:15 9.99 4100 9140 (1958) 498 (1981) 2290 657 828 1090 1130 1840 3410 3730 4030 4430
2021-03-25 13:15 9.92 4080 9140 (1958) 498 (1981) 2290 657 828 1090 1130 1840 3410 3730 4030 4430
2021-03-25 12:15 9.85 4050 9140 (1958) 498 (1981) 2290 657 828 1090 1130 1840 3410 3730 4030 4430
2021-03-25 11:15 9.79 4030 9140 (1958) 498 (1981) 2290 657 828 1090 1130 1840 3410 3730 4030 4430
2021-03-25 10:15 9.71 3990 9140 (1958) 498 (1981) 2290 657 828 1090 1130 1840 3410 3730 4030 4430
2021-03-25 09:15 9.65 3970 9140 (1958) 498 (1981) 2290 657 828 1090 1130 1840 3410 3730 4030 4430
2021-03-25 08:15 9.59 3950 9140 (1958) 498 (1981) 2290 657 828 1090 1130 1840 3410 3730 4030 4430
2021-03-25 07:15 9.51 3920 9140 (1958) 498 (1981) 2290 657 828 1090 1130 1840 3410 3730 4030 4430
2021-03-25 06:15 9.43 3890 9140 (1958) 498 (1981) 2290 657 828 1090 1130 1840 3410 3730 4030 4430
2021-03-25 05:15 9.37 3860 9140 (1958) 498 (1981) 2290 657 828 1090 1130 1840 3410 3730 4030 4430
2021-03-25 04:15 9.33 3850 9140 (1958) 498 (1981) 2290 657 828 1090 1130 1840 3410 3730 4030 4430
2021-03-25 03:15 9.28 3830 9140 (1958) 498 (1981) 2290 657 828 1090 1130 1840 3410 3730 4030 4430
2021-03-25 02:15 9.28 3830 9140 (1958) 498 (1981) 2290 657 828 1090 1130 1840 3410 3730 4030 4430
2021-03-25 01:15 9.28 3830 9140 (1958) 498 (1981) 2290 657 828 1090 1130 1840 3410 3730 4030 4430
2021-03-25 00:15 9.31 3840 9140 (1958) 498 (1981) 2290 657 828 1090 1130 1840 3410 3730 4030 4430
2021-03-24 23:15 9.33 3850 8440 (1958) 442 (1981) 2260 537 814 1080 1160 1820 3380 3800 4010 4280
2021-03-24 22:15 9.37 3860 8440 (1958) 442 (1981) 2260 537 814 1080 1160 1820 3380 3800 4010 4280
2021-03-24 21:15 9.42 3880 8440 (1958) 442 (1981) 2260 537 814 1080 1160 1820 3380 3800 4010 4280
2021-03-24 20:15 9.49 3910 8440 (1958) 442 (1981) 2260 537 814 1080 1160 1820 3380 3800 4010 4280
2021-03-24 19:15 9.56 3940 8440 (1958) 442 (1981) 2260 537 814 1080 1160 1820 3380 3800 4010 4280
2021-03-24 18:15 9.64 3970 8440 (1958) 442 (1981) 2260 537 814 1080 1160 1820 3380 3800 4010 4280
2021-03-24 17:15 9.71 3990 8440 (1958) 442 (1981) 2260 537 814 1080 1160 1820 3380 3800 4010 4280
2021-03-24 16:15 9.80 4030 8440 (1958) 442 (1981) 2260 537 814 1080 1160 1820 3380 3800 4010 4280
2021-03-24 15:15 9.89 4060 8440 (1958) 442 (1981) 2260 537 814 1080 1160 1820 3380 3800 4010 4280
2021-03-24 14:15 9.99 4100 8440 (1958) 442 (1981) 2260 537 814 1080 1160 1820 3380 3800 4010 4280
2021-03-24 13:15 10.08 4140 8440 (1958) 442 (1981) 2260 537 814 1080 1160 1820 3380 3800 4010 4280
2021-03-24 12:15 10.16 4170 8440 (1958) 442 (1981) 2260 537 814 1080 1160 1820 3380 3800 4010 4280
2021-03-24 11:15 10.28 4220 8440 (1958) 442 (1981) 2260 537 814 1080 1160 1820 3380 3800 4010 4280
2021-03-24 10:15 10.39 4260 8440 (1958) 442 (1981) 2260 537 814 1080 1160 1820 3380 3800 4010 4280
2021-03-24 09:15 10.47 4290 8440 (1958) 442 (1981) 2260 537 814 1080 1160 1820 3380 3800 4010 4280
2021-03-24 08:15 10.58 4330 8440 (1958) 442 (1981) 2260 537 814 1080 1160 1820 3380 3800 4010 4280
2021-03-24 07:15 10.69 4380 8440 (1958) 442 (1981) 2260 537 814 1080 1160 1820 3380 3800 4010 4280
2021-03-24 06:15 10.78 4410 8440 (1958) 442 (1981) 2260 537 814 1080 1160 1820 3380 3800 4010 4280
2021-03-24 05:15 10.85 4440 8440 (1958) 442 (1981) 2260 537 814 1080 1160 1820 3380 3800 4010 4280
2021-03-24 04:15 10.93 4470 8440 (1958) 442 (1981) 2260 537 814 1080 1160 1820 3380 3800 4010 4280
2021-03-24 03:15 10.97 4490 8440 (1958) 442 (1981) 2260 537 814 1080 1160 1820 3380 3800 4010 4280
2021-03-24 02:15 11.01 4500 8440 (1958) 442 (1981) 2260 537 814 1080 1160 1820 3380 3800 4010 4280
2021-03-24 01:15 11.05 4520 8440 (1958) 442 (1981) 2260 537 814 1080 1160 1820 3380 3800 4010 4280
2021-03-24 00:15 11.06 4520 8440 (1958) 442 (1981) 2260 537 814 1080 1160 1820 3380 3800 4010 4280
2021-03-23 23:15 11.05 4520 4690 (1979) 424 (1954) 2230 483 783 1000 1160 1930 3650 3740 4020 4480
2021-03-23 22:15 11.04 4510 4690 (1979) 424 (1954) 2230 483 783 1000 1160 1930 3650 3740 4020 4480
2021-03-23 21:15 11.04 4510 4690 (1979) 424 (1954) 2230 483 783 1000 1160 1930 3650 3740 4020 4480
2021-03-23 20:15 11.04 4510 4690 (1979) 424 (1954) 2230 483 783 1000 1160 1930 3650 3740 4020 4480
2021-03-23 19:15 11.01 4500 4690 (1979) 424 (1954) 2230 483 783 1000 1160 1930 3650 3740 4020 4480
2021-03-23 18:15 11.00 4500 4690 (1979) 424 (1954) 2230 483 783 1000 1160 1930 3650 3740 4020 4480
2021-03-23 17:15 10.98 4490 4690 (1979) 424 (1954) 2230 483 783 1000 1160 1930 3650 3740 4020 4480
2021-03-23 16:15 10.98 4490 4690 (1979) 424 (1954) 2230 483 783 1000 1160 1930 3650 3740 4020 4480
2021-03-23 15:15 10.94 4470 4690 (1979) 424 (1954) 2230 483 783 1000 1160 1930 3650 3740 4020 4480
2021-03-23 14:15 10.93 4470 4690 (1979) 424 (1954) 2230 483 783 1000 1160 1930 3650 3740 4020 4480
2021-03-23 13:15 10.91 4460 4690 (1979) 424 (1954) 2230 483 783 1000 1160 1930 3650 3740 4020 4480
2021-03-23 12:15 10.91 4460 4690 (1979) 424 (1954) 2230 483 783 1000 1160 1930 3650 3740 4020 4480
2021-03-23 11:15 10.88 4450 4690 (1979) 424 (1954) 2230 483 783 1000 1160 1930 3650 3740 4020 4480
2021-03-23 10:15 10.88 4450 4690 (1979) 424 (1954) 2230 483 783 1000 1160 1930 3650 3740 4020 4480
2021-03-23 09:15 10.85 4440 4690 (1979) 424 (1954) 2230 483 783 1000 1160 1930 3650 3740 4020 4480
2021-03-23 08:15 10.86 4440 4690 (1979) 424 (1954) 2230 483 783 1000 1160 1930 3650 3740 4020 4480
2021-03-23 07:15 10.83 4430 4690 (1979) 424 (1954) 2230 483 783 1000 1160 1930 3650 3740 4020 4480
2021-03-23 06:15 10.82 4430 4690 (1979) 424 (1954) 2230 483 783 1000 1160 1930 3650 3740 4020 4480
2021-03-23 05:15 10.82 4430 4690 (1979) 424 (1954) 2230 483 783 1000 1160 1930 3650 3740 4020 4480
2021-03-23 04:15 10.81 4420 4690 (1979) 424 (1954) 2230 483 783 1000 1160 1930 3650 3740 4020 4480
2021-03-23 03:15 10.82 4430 4690 (1979) 424 (1954) 2230 483 783 1000 1160 1930 3650 3740 4020 4480
2021-03-23 02:15 10.84 4430 4690 (1979) 424 (1954) 2230 483 783 1000 1160 1930 3650 3740 4020 4480
2021-03-23 01:15 10.84 4430 4690 (1979) 424 (1954) 2230 483 783 1000 1160 1930 3650 3740 4020 4480
2021-03-23 00:15 10.86 4440 4690 (1979) 424 (1954) 2230 483 783 1000 1160 1930 3650 3740 4020 4480
2021-03-22 23:15 10.87 4450 6510 (1955) 381 (1954) 2280 481 776 947 1160 2030 3510 3740 4130 4540
2021-03-22 22:15 10.87 4450 6510 (1955) 381 (1954) 2280 481 776 947 1160 2030 3510 3740 4130 4540
2021-03-22 21:15 10.88 4450 6510 (1955) 381 (1954) 2280 481 776 947 1160 2030 3510 3740 4130 4540
2021-03-22 20:15 10.91 4460 6510 (1955) 381 (1954) 2280 481 776 947 1160 2030 3510 3740 4130 4540
2021-03-22 19:15 10.92 4470 6510 (1955) 381 (1954) 2280 481 776 947 1160 2030 3510 3740 4130 4540
2021-03-22 18:15 10.93 4470 6510 (1955) 381 (1954) 2280 481 776 947 1160 2030 3510 3740 4130 4540
2021-03-22 17:15 10.95 4480 6510 (1955) 381 (1954) 2280 481 776 947 1160 2030 3510 3740 4130 4540
2021-03-22 16:15 10.96 4480 6510 (1955) 381 (1954) 2280 481 776 947 1160 2030 3510 3740 4130 4540
2021-03-22 15:15 10.97 4490 6510 (1955) 381 (1954) 2280 481 776 947 1160 2030 3510 3740 4130 4540
2021-03-22 14:15 11.00 4500 6510 (1955) 381 (1954) 2280 481 776 947 1160 2030 3510 3740 4130 4540
2021-03-22 13:15 11.01 4500 6510 (1955) 381 (1954) 2280 481 776 947 1160 2030 3510 3740 4130 4540
2021-03-22 12:15 11.03 4510 6510 (1955) 381 (1954) 2280 481 776 947 1160 2030 3510 3740 4130 4540
2021-03-22 11:15 11.03 4510 6510 (1955) 381 (1954) 2280 481 776 947 1160 2030 3510 3740 4130 4540
2021-03-22 10:15 11.05 4520 6510 (1955) 381 (1954) 2280 481 776 947 1160 2030 3510 3740 4130 4540
2021-03-22 09:15 11.07 4530 6510 (1955) 381 (1954) 2280 481 776 947 1160 2030 3510 3740 4130 4540
2021-03-22 08:15 11.09 4530 6510 (1955) 381 (1954) 2280 481 776 947 1160 2030 3510 3740 4130 4540
2021-03-22 07:15 11.11 4540 6510 (1955) 381 (1954) 2280 481 776 947 1160 2030 3510 3740 4130 4540
2021-03-22 06:15 11.12 4540 6510 (1955) 381 (1954) 2280 481 776 947 1160 2030 3510 3740 4130 4540
2021-03-22 05:15 11.14 4550 6510 (1955) 381 (1954) 2280 481 776 947 1160 2030 3510 3740 4130 4540
2021-03-22 04:15 11.16 4560 6510 (1955) 381 (1954) 2280 481 776 947 1160 2030 3510 3740 4130 4540
2021-03-22 03:15 11.18 4570 6510 (1955) 381 (1954) 2280 481 776 947 1160 2030 3510 3740 4130 4540
2021-03-22 02:15 11.20 4580 6510 (1955) 381 (1954) 2280 481 776 947 1160 2030 3510 3740 4130 4540
2021-03-22 01:15 11.21 4580 6510 (1955) 381 (1954) 2280 481 776 947 1160 2030 3510 3740 4130 4540
2021-03-22 00:15 11.25 4600 6510 (1955) 381 (1954) 2280 481 776 947 1160 2030 3510 3740 4130 4540
2021-03-21 23:15 11.26 4600 10700 (2008) 386 (1954) 2440 485 735 963 1190 2000 3700 3810 4150 5330
2021-03-21 22:15 11.27 4600 10700 (2008) 386 (1954) 2440 485 735 963 1190 2000 3700 3810 4150 5330
2021-03-21 21:15 11.29 4610 10700 (2008) 386 (1954) 2440 485 735 963 1190 2000 3700 3810 4150 5330
2021-03-21 20:15 11.31 4620 10700 (2008) 386 (1954) 2440 485 735 963 1190 2000 3700 3810 4150 5330
2021-03-21 19:15 11.33 4630 10700 (2008) 386 (1954) 2440 485 735 963 1190 2000 3700 3810 4150 5330
2021-03-21 18:15 11.35 4640 10700 (2008) 386 (1954) 2440 485 735 963 1190 2000 3700 3810 4150 5330
2021-03-21 17:15 11.37 4640 10700 (2008) 386 (1954) 2440 485 735 963 1190 2000 3700 3810 4150 5330
2021-03-21 16:15 11.37 4640 10700 (2008) 386 (1954) 2440 485 735 963 1190 2000 3700 3810 4150 5330
2021-03-21 15:15 11.41 4660 10700 (2008) 386 (1954) 2440 485 735 963 1190 2000 3700 3810 4150 5330
2021-03-21 14:15 11.43 4670 10700 (2008) 386 (1954) 2440 485 735 963 1190 2000 3700 3810 4150 5330
2021-03-21 13:15 11.46 4680 10700 (2008) 386 (1954) 2440 485 735 963 1190 2000 3700 3810 4150 5330
2021-03-21 12:15 11.48 4690 10700 (2008) 386 (1954) 2440 485 735 963 1190 2000 3700 3810 4150 5330
2021-03-21 11:15 11.49 4690 10700 (2008) 386 (1954) 2440 485 735 963 1190 2000 3700 3810 4150 5330
2021-03-21 10:15 11.53 4710 10700 (2008) 386 (1954) 2440 485 735 963 1190 2000 3700 3810 4150 5330
2021-03-21 09:15 11.55 4710 10700 (2008) 386 (1954) 2440 485 735 963 1190 2000 3700 3810 4150 5330
2021-03-21 08:15 11.58 4730 10700 (2008) 386 (1954) 2440 485 735 963 1190 2000 3700 3810 4150 5330
2021-03-21 07:15 11.61 4740 10700 (2008) 386 (1954) 2440 485 735 963 1190 2000 3700 3810 4150 5330
2021-03-21 06:15 11.63 4750 10700 (2008) 386 (1954) 2440 485 735 963 1190 2000 3700 3810 4150 5330
2021-03-21 05:15 11.66 4760 10700 (2008) 386 (1954) 2440 485 735 963 1190 2000 3700 3810 4150 5330
2021-03-21 04:15 11.67 4760 10700 (2008) 386 (1954) 2440 485 735 963 1190 2000 3700 3810 4150 5330
2021-03-21 03:15 11.69 4770 10700 (2008) 386 (1954) 2440 485 735 963 1190 2000 3700 3810 4150 5330
2021-03-21 02:15 11.74 4790 10700 (2008) 386 (1954) 2440 485 735 963 1190 2000 3700 3810 4150 5330
2021-03-21 01:15 11.75 4790 10700 (2008) 386 (1954) 2440 485 735 963 1190 2000 3700 3810 4150 5330
2021-03-21 00:15 11.77 4800 10700 (2008) 386 (1954) 2440 485 735 963 1190 2000 3700 3810 4150 5330
2021-03-20 23:15 11.80 4810 26700 (2008) 397 (1954) 2620 504 772 1020 1200 1740 3560 3710 4200 5260
2021-03-20 22:15 11.81 4820 26700 (2008) 397 (1954) 2620 504 772 1020 1200 1740 3560 3710 4200 5260
2021-03-20 21:15 11.86 4840 26700 (2008) 397 (1954) 2620 504 772 1020 1200 1740 3560 3710 4200 5260
2021-03-20 20:15 11.86 4840 26700 (2008) 397 (1954) 2620 504 772 1020 1200 1740 3560 3710 4200 5260
2021-03-20 19:15 11.90 4850 26700 (2008) 397 (1954) 2620 504 772 1020 1200 1740 3560 3710 4200 5260
2021-03-20 18:15 11.92 4860 26700 (2008) 397 (1954) 2620 504 772 1020 1200 1740 3560 3710 4200 5260
2021-03-20 17:15 11.93 4870 26700 (2008) 397 (1954) 2620 504 772 1020 1200 1740 3560 3710 4200 5260
2021-03-20 16:15 11.94 4870 26700 (2008) 397 (1954) 2620 504 772 1020 1200 1740 3560 3710 4200 5260
2021-03-20 15:15 11.97 4880 26700 (2008) 397 (1954) 2620 504 772 1020 1200 1740 3560 3710 4200 5260
2021-03-20 14:15 11.98 4890 26700 (2008) 397 (1954) 2620 504 772 1020 1200 1740 3560 3710 4200 5260
2021-03-20 13:15 12.00 4890 26700 (2008) 397 (1954) 2620 504 772 1020 1200 1740 3560 3710 4200 5260
2021-03-20 12:15 12.00 4890 26700 (2008) 397 (1954) 2620 504 772 1020 1200 1740 3560 3710 4200 5260
2021-03-20 11:15 12.03 4910 26700 (2008) 397 (1954) 2620 504 772 1020 1200 1740 3560 3710 4200 5260
2021-03-20 10:15 12.06 4920 26700 (2008) 397 (1954) 2620 504 772 1020 1200 1740 3560 3710 4200 5260
2021-03-20 09:15 12.06 4920 26700 (2008) 397 (1954) 2620 504 772 1020 1200 1740 3560 3710 4200 5260
2021-03-20 08:15 12.06 4920 26700 (2008) 397 (1954) 2620 504 772 1020 1200 1740 3560 3710 4200 5260
2021-03-20 07:15 12.07 4920 26700 (2008) 397 (1954) 2620 504 772 1020 1200 1740 3560 3710 4200 5260
2021-03-20 06:15 12.07 4920 26700 (2008) 397 (1954) 2620 504 772 1020 1200 1740 3560 3710 4200 5260
2021-03-20 05:15 12.07 4920 26700 (2008) 397 (1954) 2620 504 772 1020 1200 1740 3560 3710 4200 5260
2021-03-20 04:15 12.06 4920 26700 (2008) 397 (1954) 2620 504 772 1020 1200 1740 3560 3710 4200 5260
2021-03-20 03:15 12.07 4920 26700 (2008) 397 (1954) 2620 504 772 1020 1200 1740 3560 3710 4200 5260
2021-03-20 02:15 12.05 4910 26700 (2008) 397 (1954) 2620 504 772 1020 1200 1740 3560 3710 4200 5260
2021-03-20 01:15 12.02 4900 26700 (2008) 397 (1954) 2620 504 772 1020 1200 1740 3560 3710 4200 5260
2021-03-20 00:15 12.03 4910 26700 (2008) 397 (1954) 2620 504 772 1020 1200 1740 3560 3710 4200 5260
2021-03-19 23:15 11.99 4890 26000 (2008) 397 (1954) 2480 531 793 975 1010 1710 3290 3610 4160 4430
2021-03-19 22:15 11.96 4880 26000 (2008) 397 (1954) 2480 531 793 975 1010 1710 3290 3610 4160 4430
2021-03-19 21:15 11.92 4860 26000 (2008) 397 (1954) 2480 531 793 975 1010 1710 3290 3610 4160 4430
2021-03-19 20:15 11.88 4850 26000 (2008) 397 (1954) 2480 531 793 975 1010 1710 3290 3610 4160 4430
2021-03-19 19:15 11.83 4830 26000 (2008) 397 (1954) 2480 531 793 975 1010 1710 3290 3610 4160 4430
2021-03-19 18:15 11.78 4810 26000 (2008) 397 (1954) 2480 531 793 975 1010 1710 3290 3610 4160 4430
2021-03-19 17:15 11.70 4770 26000 (2008) 397 (1954) 2480 531 793 975 1010 1710 3290 3610 4160 4430
2021-03-19 16:15 11.66 4760 26000 (2008) 397 (1954) 2480 531 793 975 1010 1710 3290 3610 4160 4430
2021-03-19 15:15 11.59 4730 26000 (2008) 397 (1954) 2480 531 793 975 1010 1710 3290 3610 4160 4430
2021-03-19 14:15 11.54 4710 26000 (2008) 397 (1954) 2480 531 793 975 1010 1710 3290 3610 4160 4430
2021-03-19 13:15 11.50 4700 26000 (2008) 397 (1954) 2480 531 793 975 1010 1710 3290 3610 4160 4430
2021-03-19 12:15 11.49 4690 26000 (2008) 397 (1954) 2480 531 793 975 1010 1710 3290 3610 4160 4430
2021-03-19 11:15 11.46 4680 26000 (2008) 397 (1954) 2480 531 793 975 1010 1710 3290 3610 4160 4430
2021-03-19 10:15 11.49 4690 26000 (2008) 397 (1954) 2480 531 793 975 1010 1710 3290 3610 4160 4430
2021-03-19 09:15 11.58 4730 26000 (2008) 397 (1954) 2480 531 793 975 1010 1710 3290 3610 4160 4430
2021-03-19 08:15 11.68 4770 26000 (2008) 397 (1954) 2480 531 793 975 1010 1710 3290 3610 4160 4430
2021-03-19 07:15 11.83 4830 26000 (2008) 397 (1954) 2480 531 793 975 1010 1710 3290 3610 4160 4430
2021-03-19 06:15 12.02 4900 26000 (2008) 397 (1954) 2480 531 793 975 1010 1710 3290 3610 4160 4430
2021-03-19 05:15 12.23 4990 26000 (2008) 397 (1954) 2480 531 793 975 1010 1710 3290 3610 4160 4430
2021-03-19 04:15 12.46 5080 26000 (2008) 397 (1954) 2480 531 793 975 1010 1710 3290 3610 4160 4430
2021-03-19 03:15 12.69 5170 26000 (2008) 397 (1954) 2480 531 793 975 1010 1710 3290 3610 4160 4430
2021-03-19 02:15 12.95 5280 26000 (2008) 397 (1954) 2480 531 793 975 1010 1710 3290 3610 4160 4430
2021-03-19 01:15 13.18 5370 26000 (2008) 397 (1954) 2480 531 793 975 1010 1710 3290 3610 4160 4430
2021-03-19 00:15 13.41 5480 26000 (2008) 397 (1954) 2480 531 793 975 1010 1710 3290 3610 4160 4430
2021-03-18 23:15 13.62 5580 4760 (2008) 386 (1954) 2080 571 701 903 957 1660 3300 3500 4070 4300
2021-03-18 22:15 13.83 5690 4760 (2008) 386 (1954) 2080 571 701 903 957 1660 3300 3500 4070 4300
2021-03-18 21:15 14.03 5790 4760 (2008) 386 (1954) 2080 571 701 903 957 1660 3300 3500 4070 4300
2021-03-18 20:15 14.18 5880 4760 (2008) 386 (1954) 2080 571 701 903 957 1660 3300 3500 4070 4300
2021-03-18 19:15 14.32 5960 4760 (2008) 386 (1954) 2080 571 701 903 957 1660 3300 3500 4070 4300
2021-03-18 18:15 14.44 6030 4760 (2008) 386 (1954) 2080 571 701 903 957 1660 3300 3500 4070 4300
2021-03-18 17:15 14.53 6080 4760 (2008) 386 (1954) 2080 571 701 903 957 1660 3300 3500 4070 4300
2021-03-18 16:15 14.61 6130 4760 (2008) 386 (1954) 2080 571 701 903 957 1660 3300 3500 4070 4300
2021-03-18 15:15 14.66 6160 4760 (2008) 386 (1954) 2080 571 701 903 957 1660 3300 3500 4070 4300
2021-03-18 14:15 14.68 6170 4760 (2008) 386 (1954) 2080 571 701 903 957 1660 3300 3500 4070 4300
2021-03-18 13:15 14.70 6180 4760 (2008) 386 (1954) 2080 571 701 903 957 1660 3300 3500 4070 4300
2021-03-18 12:15 14.69 6170 4760 (2008) 386 (1954) 2080 571 701 903 957 1660 3300 3500 4070 4300
2021-03-18 11:15 14.63 6140 4760 (2008) 386 (1954) 2080 571 701 903 957 1660 3300 3500 4070 4300
2021-03-18 10:15 14.57 6100 4760 (2008) 386 (1954) 2080 571 701 903 957 1660 3300 3500 4070 4300
2021-03-18 09:15 14.48 6050 4760 (2008) 386 (1954) 2080 571 701 903 957 1660 3300 3500 4070 4300
2021-03-18 08:15 14.38 5990 4760 (2008) 386 (1954) 2080 571 701 903 957 1660 3300 3500 4070 4300
2021-03-18 07:15 14.23 5910 4760 (2008) 386 (1954) 2080 571 701 903 957 1660 3300 3500 4070 4300
2021-03-18 06:15 14.07 5820 4760 (2008) 386 (1954) 2080 571 701 903 957 1660 3300 3500 4070 4300
2021-03-18 05:15 13.85 5700 4760 (2008) 386 (1954) 2080 571 701 903 957 1660 3300 3500 4070 4300
2021-03-18 04:15 13.63 5590 4760 (2008) 386 (1954) 2080 571 701 903 957 1660 3300 3500 4070 4300
2021-03-18 03:15 13.38 5460 4760 (2008) 386 (1954) 2080 571 701 903 957 1660 3300 3500 4070 4300
2021-03-18 02:15 13.08 5330 4760 (2008) 386 (1954) 2080 571 701 903 957 1660 3300 3500 4070 4300
2021-03-18 01:15 12.77 5200 4760 (2008) 386 (1954) 2080 571 701 903 957 1660 3300 3500 4070 4300
2021-03-18 00:15 12.48 5090 4760 (2008) 386 (1954) 2080 571 701 903 957 1660 3300 3500 4070 4300
2021-03-17 23:15 12.21 4980 4390 (2006) 392 (1954) 1990 604 724 874 910 1660 2950 3230 3620 4080
2021-03-17 22:15 11.94 4870 4390 (2006) 392 (1954) 1990 604 724 874 910 1660 2950 3230 3620 4080
2021-03-17 21:15 11.70 4770 4390 (2006) 392 (1954) 1990 604 724 874 910 1660 2950 3230 3620 4080
2021-03-17 20:15 11.48 4690 4390 (2006) 392 (1954) 1990 604 724 874 910 1660 2950 3230 3620 4080
2021-03-17 19:15 11.18 4570 4390 (2006) 392 (1954) 1990 604 724 874 910 1660 2950 3230 3620 4080
2021-03-17 18:15 11.02 4510 4390 (2006) 392 (1954) 1990 604 724 874 910 1660 2950 3230 3620 4080
2021-03-17 17:15 10.86 4440 4390 (2006) 392 (1954) 1990 604 724 874 910 1660 2950 3230 3620 4080
2021-03-17 16:15 10.73 4390 4390 (2006) 392 (1954) 1990 604 724 874 910 1660 2950 3230 3620 4080
2021-03-17 15:15 10.62 4350 4390 (2006) 392 (1954) 1990 604 724 874 910 1660 2950 3230 3620 4080
2021-03-17 14:15 10.53 4310 4390 (2006) 392 (1954) 1990 604 724 874 910 1660 2950 3230 3620 4080
2021-03-17 13:15 10.47 4290 4390 (2006) 392 (1954) 1990 604 724 874 910 1660 2950 3230 3620 4080
2021-03-17 12:15 10.35 4240 4390 (2006) 392 (1954) 1990 604 724 874 910 1660 2950 3230 3620 4080
2021-03-17 11:15 10.31 4230 4390 (2006) 392 (1954) 1990 604 724 874 910 1660 2950 3230 3620 4080
2021-03-17 10:15 10.32 4230 4390 (2006) 392 (1954) 1990 604 724 874 910 1660 2950 3230 3620 4080
2021-03-17 09:15 10.34 4240 4390 (2006) 392 (1954) 1990 604 724 874 910 1660 2950 3230 3620 4080
2021-03-17 08:15 10.32 4230 4390 (2006) 392 (1954) 1990 604 724 874 910 1660 2950 3230 3620 4080
2021-03-17 07:15 10.32 4230 4390 (2006) 392 (1954) 1990 604 724 874 910 1660 2950 3230 3620 4080
2021-03-17 06:15 10.34 4240 4390 (2006) 392 (1954) 1990 604 724 874 910 1660 2950 3230 3620 4080
2021-03-17 05:15 10.35 4240 4390 (2006) 392 (1954) 1990 604 724 874 910 1660 2950 3230 3620 4080
2021-03-17 04:15 10.35 4240 4390 (2006) 392 (1954) 1990 604 724 874 910 1660 2950 3230 3620 4080
2021-03-17 03:15 10.36 4250 4390 (2006) 392 (1954) 1990 604 724 874 910 1660 2950 3230 3620 4080
2021-03-17 02:15 10.38 4250 4390 (2006) 392 (1954) 1990 604 724 874 910 1660 2950 3230 3620 4080
2021-03-17 01:15 10.38 4250 4390 (2006) 392 (1954) 1990 604 724 874 910 1660 2950 3230 3620 4080
2021-03-17 00:15 10.39 4260 4390 (2006) 392 (1954) 1990 604 724 874 910 1660 2950 3230 3620 4080
2021-03-16 23:15 10.41 4270 5110 (2015) 400 (1954) 1950 666 770 871 916 1700 2750 2960 3640 3990
2021-03-16 22:15 10.44 4280 5110 (2015) 400 (1954) 1950 666 770 871 916 1700 2750 2960 3640 3990
2021-03-16 21:15 10.46 4290 5110 (2015) 400 (1954) 1950 666 770 871 916 1700 2750 2960 3640 3990
2021-03-16 20:15 10.46 4290 5110 (2015) 400 (1954) 1950 666 770 871 916 1700 2750 2960 3640 3990
2021-03-16 19:15 10.48 4290 5110 (2015) 400 (1954) 1950 666 770 871 916 1700 2750 2960 3640 3990
2021-03-16 18:15 10.48 4290 5110 (2015) 400 (1954) 1950 666 770 871 916 1700 2750 2960 3640 3990
2021-03-16 17:15 10.50 4300 5110 (2015) 400 (1954) 1950 666 770 871 916 1700 2750 2960 3640 3990
2021-03-16 16:15 10.49 4300 5110 (2015) 400 (1954) 1950 666 770 871 916 1700 2750 2960 3640 3990
2021-03-16 15:15 10.50 4300 5110 (2015) 400 (1954) 1950 666 770 871 916 1700 2750 2960 3640 3990
2021-03-16 14:15 10.50 4300 5110 (2015) 400 (1954) 1950 666 770 871 916 1700 2750 2960 3640 3990
2021-03-16 13:15 10.48 4290 5110 (2015) 400 (1954) 1950 666 770 871 916 1700 2750 2960 3640 3990
2021-03-16 12:15 10.48 4290 5110 (2015) 400 (1954) 1950 666 770 871 916 1700 2750 2960 3640 3990
2021-03-16 11:15 10.49 4300 5110 (2015) 400 (1954) 1950 666 770 871 916 1700 2750 2960 3640 3990
2021-03-16 10:15 10.47 4290 5110 (2015) 400 (1954) 1950 666 770 871 916 1700 2750 2960 3640 3990
2021-03-16 09:15 10.48 4290 5110 (2015) 400 (1954) 1950 666 770 871 916 1700 2750 2960 3640 3990
2021-03-16 08:15 10.49 4300 5110 (2015) 400 (1954) 1950 666 770 871 916 1700 2750 2960 3640 3990
2021-03-16 07:15 10.49 4300 5110 (2015) 400 (1954) 1950 666 770 871 916 1700 2750 2960 3640 3990
2021-03-16 06:15 10.50 4300 5110 (2015) 400 (1954) 1950 666 770 871 916 1700 2750 2960 3640 3990
2021-03-16 05:15 10.49 4300 5110 (2015) 400 (1954) 1950 666 770 871 916 1700 2750 2960 3640 3990
2021-03-16 04:15 10.51 4310 5110 (2015) 400 (1954) 1950 666 770 871 916 1700 2750 2960 3640 3990
2021-03-16 03:15 10.49 4300 5110 (2015) 400 (1954) 1950 666 770 871 916 1700 2750 2960 3640 3990
2021-03-16 02:15 10.51 4310 5110 (2015) 400 (1954) 1950 666 770 871 916 1700 2750 2960 3640 3990
2021-03-16 01:15 10.48 4290 5110 (2015) 400 (1954) 1950 666 770 871 916 1700 2750 2960 3640 3990
2021-03-16 00:15 10.46 4290 5110 (2015) 400 (1954) 1950 666 770 871 916 1700 2750 2960 3640 3990
2021-03-15 23:15 10.42 4270 8530 (2015) 408 (1954) 2000 646 791 901 967 1630 2780 3170 3810 3970
2021-03-15 22:15 10.37 4250 8530 (2015) 408 (1954) 2000 646 791 901 967 1630 2780 3170 3810 3970
2021-03-15 21:15 10.33 4240 8530 (2015) 408 (1954) 2000 646 791 901 967 1630 2780 3170 3810 3970
2021-03-15 20:15 10.23 4200 8530 (2015) 408 (1954) 2000 646 791 901 967 1630 2780 3170 3810 3970
2021-03-15 19:15 10.14 4160 8530 (2015) 408 (1954) 2000 646 791 901 967 1630 2780 3170 3810 3970
2021-03-15 18:15 10.02 4110 8530 (2015) 408 (1954) 2000 646 791 901 967 1630 2780 3170 3810 3970
2021-03-15 17:15 9.86 4050 8530 (2015) 408 (1954) 2000 646 791 901 967 1630 2780 3170 3810 3970
2021-03-15 16:15 9.71 3990 8530 (2015) 408 (1954) 2000 646 791 901 967 1630 2780 3170 3810 3970
2021-03-15 15:15 9.52 3920 8530 (2015) 408 (1954) 2000 646 791 901 967 1630 2780 3170 3810 3970
2021-03-15 14:15 9.34 3850 8530 (2015) 408 (1954) 2000 646 791 901 967 1630 2780 3170 3810 3970
2021-03-15 13:15 9.14 3780 8530 (2015) 408 (1954) 2000 646 791 901 967 1630 2780 3170 3810 3970
2021-03-15 12:15 8.90 3690 8530 (2015) 408 (1954) 2000 646 791 901 967 1630 2780 3170 3810 3970
2021-03-15 11:15 8.65 3600 8530 (2015) 408 (1954) 2000 646 791 901 967 1630 2780 3170 3810 3970
2021-03-15 10:15 8.43 3510 8530 (2015) 408 (1954) 2000 646 791 901 967 1630 2780 3170 3810 3970
2021-03-15 09:15 8.23 3430 8530 (2015) 408 (1954) 2000 646 791 901 967 1630 2780 3170 3810 3970
2021-03-15 08:15 8.06 3360 8530 (2015) 408 (1954) 2000 646 791 901 967 1630 2780 3170 3810 3970
2021-03-15 07:15 7.95 3320 8530 (2015) 408 (1954) 2000 646 791 901 967 1630 2780 3170 3810 3970
2021-03-15 06:15 7.95 3320 8530 (2015) 408 (1954) 2000 646 791 901 967 1630 2780 3170 3810 3970
2021-03-15 05:15 8.01 3340 8530 (2015) 408 (1954) 2000 646 791 901 967 1630 2780 3170 3810 3970
2021-03-15 04:15 8.14 3390 8530 (2015) 408 (1954) 2000 646 791 901 967 1630 2780 3170 3810 3970
2021-03-15 03:15 8.30 3460 8530 (2015) 408 (1954) 2000 646 791 901 967 1630 2780 3170 3810 3970
2021-03-15 02:15 8.50 3540 8530 (2015) 408 (1954) 2000 646 791 901 967 1630 2780 3170 3810 3970
2021-03-15 01:15 8.69 3610 8530 (2015) 408 (1954) 2000 646 791 901 967 1630 2780 3170 3810 3970
2021-03-15 00:15 8.94 3710 8530 (2015) 408 (1954) 2000 646 791 901 967 1630 2780 3170 3810 3970
2021-03-14 23:15 9.21 3800 8980 (2015) 424 (1954) 2000 650 781 959 1010 1610 2780 3080 3710 4300
2021-03-14 22:15 9.50 3910 8980 (2015) 424 (1954) 2000 650 781 959 1010 1610 2780 3080 3710 4300
2021-03-14 21:15 9.76 4010 8980 (2015) 424 (1954) 2000 650 781 959 1010 1610 2780 3080 3710 4300
2021-03-14 20:15 10.03 4120 8980 (2015) 424 (1954) 2000 650 781 959 1010 1610 2780 3080 3710 4300
2021-03-14 19:15 10.32 4230 8980 (2015) 424 (1954) 2000 650 781 959 1010 1610 2780 3080 3710 4300
2021-03-14 18:15 10.58 4330 8980 (2015) 424 (1954) 2000 650 781 959 1010 1610 2780 3080 3710 4300
2021-03-14 17:15 10.85 4440 8980 (2015) 424 (1954) 2000 650 781 959 1010 1610 2780 3080 3710 4300
2021-03-14 16:15 11.12 4540 8980 (2015) 424 (1954) 2000 650 781 959 1010 1610 2780 3080 3710 4300
2021-03-14 15:15 11.37 4640 8980 (2015) 424 (1954) 2000 650 781 959 1010 1610 2780 3080 3710 4300
2021-03-14 14:15 11.63 4750 8980 (2015) 424 (1954) 2000 650 781 959 1010 1610 2780 3080 3710 4300
2021-03-14 13:15 11.84 4830 8980 (2015) 424 (1954) 2000 650 781 959 1010 1610 2780 3080 3710 4300
2021-03-14 12:15 12.05 4910 8980 (2015) 424 (1954) 2000 650 781 959 1010 1610 2780 3080 3710 4300
2021-03-14 11:15 12.22 4980 8980 (2015) 424 (1954) 2000 650 781 959 1010 1610 2780 3080 3710 4300
2021-03-14 10:15 12.36 5040 8980 (2015) 424 (1954) 2000 650 781 959 1010 1610 2780 3080 3710 4300
2021-03-14 09:15 12.47 5080 8980 (2015) 424 (1954) 2000 650 781 959 1010 1610 2780 3080 3710 4300
2021-03-14 08:15 12.54 5110 8980 (2015) 424 (1954) 2000 650 781 959 1010 1610 2780 3080 3710 4300
2021-03-14 07:15 12.58 5130 8980 (2015) 424 (1954) 2000 650 781 959 1010 1610 2780 3080 3710 4300
2021-03-14 06:15 12.55 5110 8980 (2015) 424 (1954) 2000 650 781 959 1010 1610 2780 3080 3710 4300
2021-03-14 05:15 12.48 5090 8980 (2015) 424 (1954) 2000 650 781 959 1010 1610 2780 3080 3710 4300
2021-03-14 04:15 12.34 5030 8980 (2015) 424 (1954) 2000 650 781 959 1010 1610 2780 3080 3710 4300
2021-03-14 03:15 12.18 4970 8980 (2015) 424 (1954) 2000 650 781 959 1010 1610 2780 3080 3710 4300
2021-03-14 01:15 11.99 4890 8980 (2015) 424 (1954) 2000 650 781 959 1010 1610 2780 3080 3710 4300
2021-03-14 00:15 11.75 4790 8980 (2015) 424 (1954) 2000 650 781 959 1010 1610 2780 3080 3710 4300
2021-03-13 23:15 11.45 4680 5150 (2015) 441 (1954) 2090 674 831 1000 1070 1760 2880 3250 4060 4410
2021-03-13 22:15 11.12 4540 5150 (2015) 441 (1954) 2090 674 831 1000 1070 1760 2880 3250 4060 4410
2021-03-13 21:15 10.78 4410 5150 (2015) 441 (1954) 2090 674 831 1000 1070 1760 2880 3250 4060 4410
2021-03-13 20:15 10.41 4270 5150 (2015) 441 (1954) 2090 674 831 1000 1070 1760 2880 3250 4060 4410
2021-03-13 19:15 10.04 4120 5150 (2015) 441 (1954) 2090 674 831 1000 1070 1760 2880 3250 4060 4410
2021-03-13 18:15 9.66 3980 5150 (2015) 441 (1954) 2090 674 831 1000 1070 1760 2880 3250 4060 4410
2021-03-13 17:15 9.28 3830 5150 (2015) 441 (1954) 2090 674 831 1000 1070 1760 2880 3250 4060 4410
2021-03-13 16:15 8.92 3700 5150 (2015) 441 (1954) 2090 674 831 1000 1070 1760 2880 3250 4060 4410
2021-03-13 15:15 8.57 3570 5150 (2015) 441 (1954) 2090 674 831 1000 1070 1760 2880 3250 4060 4410
2021-03-13 14:15 8.21 3420 5150 (2015) 441 (1954) 2090 674 831 1000 1070 1760 2880 3250 4060 4410
2021-03-13 13:15 7.87 3290 5150 (2015) 441 (1954) 2090 674 831 1000 1070 1760 2880 3250 4060 4410
2021-03-13 12:15 7.51 3140 5150 (2015) 441 (1954) 2090 674 831 1000 1070 1760 2880 3250 4060 4410
2021-03-13 11:15 7.14 2990 5150 (2015) 441 (1954) 2090 674 831 1000 1070 1760 2880 3250 4060 4410
2021-03-13 10:15 6.73 2830 5150 (2015) 441 (1954) 2090 674 831 1000 1070 1760 2880 3250 4060 4410
2021-03-13 09:15 6.27 2650 5150 (2015) 441 (1954) 2090 674 831 1000 1070 1760 2880 3250 4060 4410
2021-03-13 08:15 5.77 2450 5150 (2015) 441 (1954) 2090 674 831 1000 1070 1760 2880 3250 4060 4410
2021-03-13 07:15 5.25 2250 5150 (2015) 441 (1954) 2090 674 831 1000 1070 1760 2880 3250 4060 4410
2021-03-13 06:15 4.80 2080 5150 (2015) 441 (1954) 2090 674 831 1000 1070 1760 2880 3250 4060 4410
2021-03-13 05:15 4.44 1940 5150 (2015) 441 (1954) 2090 674 831 1000 1070 1760 2880 3250 4060 4410
2021-03-13 04:15 4.20 1850 5150 (2015) 441 (1954) 2090 674 831 1000 1070 1760 2880 3250 4060 4410
2021-03-13 03:15 4.04 1790 5150 (2015) 441 (1954) 2090 674 831 1000 1070 1760 2880 3250 4060 4410
2021-03-13 02:15 3.88 1720 5150 (2015) 441 (1954) 2090 674 831 1000 1070 1760 2880 3250 4060 4410
2021-03-13 01:15 3.73 1670 5150 (2015) 441 (1954) 2090 674 831 1000 1070 1760 2880 3250 4060 4410
2021-03-13 00:15 3.62 1630 5150 (2015) 441 (1954) 2090 674 831 1000 1070 1760 2880 3250 4060 4410
2021-03-12 23:15 3.55 1600 10600 (1973) 455 (1954) 2200 676 801 1020 1090 1730 3120 3300 4130 4380
2021-03-12 22:15 3.50 1580 10600 (1973) 455 (1954) 2200 676 801 1020 1090 1730 3120 3300 4130 4380
2021-03-12 21:15 3.44 1560 10600 (1973) 455 (1954) 2200 676 801 1020 1090 1730 3120 3300 4130 4380
2021-03-12 20:15 3.41 1550 10600 (1973) 455 (1954) 2200 676 801 1020 1090 1730 3120 3300 4130 4380
2021-03-12 19:15 3.38 1530 10600 (1973) 455 (1954) 2200 676 801 1020 1090 1730 3120 3300 4130 4380
2021-03-12 18:15 3.37 1530 10600 (1973) 455 (1954) 2200 676 801 1020 1090 1730 3120 3300 4130 4380
2021-03-12 17:15 3.36 1530 10600 (1973) 455 (1954) 2200 676 801 1020 1090 1730 3120 3300 4130 4380
2021-03-12 16:15 3.35 1520 10600 (1973) 455 (1954) 2200 676 801 1020 1090 1730 3120 3300 4130 4380
2021-03-12 15:15 3.36 1530 10600 (1973) 455 (1954) 2200 676 801 1020 1090 1730 3120 3300 4130 4380
2021-03-12 14:15 3.35 1520 10600 (1973) 455 (1954) 2200 676 801 1020 1090 1730 3120 3300 4130 4380
2021-03-12 13:15 3.36 1530 10600 (1973) 455 (1954) 2200 676 801 1020 1090 1730 3120 3300 4130 4380
2021-03-12 12:15 3.36 1530 10600 (1973) 455 (1954) 2200 676 801 1020 1090 1730 3120 3300 4130 4380
2021-03-12 11:15 3.39 1540 10600 (1973) 455 (1954) 2200 676 801 1020 1090 1730 3120 3300 4130 4380
2021-03-12 10:15 3.39 1540 10600 (1973) 455 (1954) 2200 676 801 1020 1090 1730 3120 3300 4130 4380
2021-03-12 09:15 3.41 1550 10600 (1973) 455 (1954) 2200 676 801 1020 1090 1730 3120 3300 4130 4380
2021-03-12 08:15 3.44 1560 10600 (1973) 455 (1954) 2200 676 801 1020 1090 1730 3120 3300 4130 4380
2021-03-12 07:15 3.45 1560 10600 (1973) 455 (1954) 2200 676 801 1020 1090 1730 3120 3300 4130 4380
2021-03-12 06:15 3.46 1560 10600 (1973) 455 (1954) 2200 676 801 1020 1090 1730 3120 3300 4130 4380
2021-03-12 05:15 3.48 1570 10600 (1973) 455 (1954) 2200 676 801 1020 1090 1730 3120 3300 4130 4380
2021-03-12 04:15 3.50 1580 10600 (1973) 455 (1954) 2200 676 801 1020 1090 1730 3120 3300 4130 4380
2021-03-12 03:15 3.50 1580 10600 (1973) 455 (1954) 2200 676 801 1020 1090 1730 3120 3300 4130 4380
2021-03-12 02:15 3.54 1590 10600 (1973) 455 (1954) 2200 676 801 1020 1090 1730 3120 3300 4130 4380
2021-03-12 01:15 3.55 1600 10600 (1973) 455 (1954) 2200 676 801 1020 1090 1730 3120 3300 4130 4380
2021-03-12 00:15 3.56 1600 10600 (1973) 455 (1954) 2200 676 801 1020 1090 1730 3120 3300 4130 4380
2021-03-11 23:15 3.56 1600 12300 (1973) 469 (1954) 2300 625 775 1020 1050 1730 2980 3310 4200 4970
2021-03-11 22:15 3.58 1610 12300 (1973) 469 (1954) 2300 625 775 1020 1050 1730 2980 3310 4200 4970
2021-03-11 21:15 3.58 1610 12300 (1973) 469 (1954) 2300 625 775 1020 1050 1730 2980 3310 4200 4970
2021-03-11 20:15 3.58 1610 12300 (1973) 469 (1954) 2300 625 775 1020 1050 1730 2980 3310 4200 4970
2021-03-11 19:15 3.60 1620 12300 (1973) 469 (1954) 2300 625 775 1020 1050 1730 2980 3310 4200 4970
2021-03-11 18:15 3.59 1610 12300 (1973) 469 (1954) 2300 625 775 1020 1050 1730 2980 3310 4200 4970
2021-03-11 17:15 3.60 1620 12300 (1973) 469 (1954) 2300 625 775 1020 1050 1730 2980 3310 4200 4970
2021-03-11 16:15 3.60 1620 12300 (1973) 469 (1954) 2300 625 775 1020 1050 1730 2980 3310 4200 4970
2021-03-11 15:15 3.61 1620 12300 (1973) 469 (1954) 2300 625 775 1020 1050 1730 2980 3310 4200 4970
2021-03-11 14:15 3.62 1630 12300 (1973) 469 (1954) 2300 625 775 1020 1050 1730 2980 3310 4200 4970
2021-03-11 13:15 3.63 1630 12300 (1973) 469 (1954) 2300 625 775 1020 1050 1730 2980 3310 4200 4970
2021-03-11 12:15 3.64 1630 12300 (1973) 469 (1954) 2300 625 775 1020 1050 1730 2980 3310 4200 4970
2021-03-11 11:15 3.64 1630 12300 (1973) 469 (1954) 2300 625 775 1020 1050 1730 2980 3310 4200 4970
2021-03-11 10:15 3.64 1630 12300 (1973) 469 (1954) 2300 625 775 1020 1050 1730 2980 3310 4200 4970
2021-03-11 09:15 3.66 1640 12300 (1973) 469 (1954) 2300 625 775 1020 1050 1730 2980 3310 4200 4970
2021-03-11 08:15 3.68 1650 12300 (1973) 469 (1954) 2300 625 775 1020 1050 1730 2980 3310 4200 4970
2021-03-11 07:15 3.69 1650 12300 (1973) 469 (1954) 2300 625 775 1020 1050 1730 2980 3310 4200 4970
2021-03-11 06:15 3.70 1660 12300 (1973) 469 (1954) 2300 625 775 1020 1050 1730 2980 3310 4200 4970
2021-03-11 05:15 3.73 1670 12300 (1973) 469 (1954) 2300 625 775 1020 1050 1730 2980 3310 4200 4970
2021-03-11 04:15 3.74 1670 12300 (1973) 469 (1954) 2300 625 775 1020 1050 1730 2980 3310 4200 4970
2021-03-11 03:15 3.76 1680 12300 (1973) 469 (1954) 2300 625 775 1020 1050 1730 2980 3310 4200 4970
2021-03-11 02:15 3.77 1680 12300 (1973) 469 (1954) 2300 625 775 1020 1050 1730 2980 3310 4200 4970
2021-03-11 01:15 3.79 1690 12300 (1973) 469 (1954) 2300 625 775 1020 1050 1730 2980 3310 4200 4970
2021-03-11 00:15 3.81 1700 12300 (1973) 469 (1954) 2300 625 775 1020 1050 1730 2980 3310 4200 4970
2021-03-10 23:15 3.83 1710 16400 (1964) 491 (1954) 2260 634 776 980 1040 1620 3090 3380 3980 4300
2021-03-10 22:15 3.86 1720 16400 (1964) 491 (1954) 2260 634 776 980 1040 1620 3090 3380 3980 4300
2021-03-10 21:15 3.88 1720 16400 (1964) 491 (1954) 2260 634 776 980 1040 1620 3090 3380 3980 4300
2021-03-10 20:15 3.90 1730 16400 (1964) 491 (1954) 2260 634 776 980 1040 1620 3090 3380 3980 4300
2021-03-10 19:15 3.94 1750 16400 (1964) 491 (1954) 2260 634 776 980 1040 1620 3090 3380 3980 4300
2021-03-10 18:15 3.97 1760 16400 (1964) 491 (1954) 2260 634 776 980 1040 1620 3090 3380 3980 4300
2021-03-10 17:15 4.01 1770 16400 (1964) 491 (1954) 2260 634 776 980 1040 1620 3090 3380 3980 4300
2021-03-10 16:15 4.05 1790 16400 (1964) 491 (1954) 2260 634 776 980 1040 1620 3090 3380 3980 4300
2021-03-10 15:15 4.08 1800 16400 (1964) 491 (1954) 2260 634 776 980 1040 1620 3090 3380 3980 4300
2021-03-10 14:15 4.14 1820 16400 (1964) 491 (1954) 2260 634 776 980 1040 1620 3090 3380 3980 4300
2021-03-10 13:15 4.20 1850 16400 (1964) 491 (1954) 2260 634 776 980 1040 1620 3090 3380 3980 4300
2021-03-10 12:15 4.24 1860 16400 (1964) 491 (1954) 2260 634 776 980 1040 1620 3090 3380 3980 4300
2021-03-10 11:15 4.30 1880 16400 (1964) 491 (1954) 2260 634 776 980 1040 1620 3090 3380 3980 4300
2021-03-10 10:15 4.38 1920 16400 (1964) 491 (1954) 2260 634 776 980 1040 1620 3090 3380 3980 4300
2021-03-10 09:15 4.46 1950 16400 (1964) 491 (1954) 2260 634 776 980 1040 1620 3090 3380 3980 4300
2021-03-10 08:15 4.54 1980 16400 (1964) 491 (1954) 2260 634 776 980 1040 1620 3090 3380 3980 4300
2021-03-10 07:15 4.62 2010 16400 (1964) 491 (1954) 2260 634 776 980 1040 1620 3090 3380 3980 4300
2021-03-10 06:15 4.72 2050 16400 (1964) 491 (1954) 2260 634 776 980 1040 1620 3090 3380 3980 4300
2021-03-10 05:15 4.79 2070 16400 (1964) 491 (1954) 2260 634 776 980 1040 1620 3090 3380 3980 4300
2021-03-10 04:15 4.87 2100 16400 (1964) 491 (1954) 2260 634 776 980 1040 1620 3090 3380 3980 4300
2021-03-10 03:15 4.94 2130 16400 (1964) 491 (1954) 2260 634 776 980 1040 1620 3090 3380 3980 4300
2021-03-10 02:15 5.01 2160 16400 (1964) 491 (1954) 2260 634 776 980 1040 1620 3090 3380 3980 4300
2021-03-10 01:15 5.06 2180 16400 (1964) 491 (1954) 2260 634 776 980 1040 1620 3090 3380 3980 4300
2021-03-10 00:15 5.11 2200 16400 (1964) 491 (1954) 2260 634 776 980 1040 1620 3090 3380 3980 4300
2021-03-09 23:15 5.14 2210 9820 (1964) 508 (1968) 2080 626 785 977 1030 1650 2790 3200 3940 4330
2021-03-09 22:15 5.16 2220 9820 (1964) 508 (1968) 2080 626 785 977 1030 1650 2790 3200 3940 4330
2021-03-09 21:15 5.20 2230 9820 (1964) 508 (1968) 2080 626 785 977 1030 1650 2790 3200 3940 4330
2021-03-09 20:15 5.21 2240 9820 (1964) 508 (1968) 2080 626 785 977 1030 1650 2790 3200 3940 4330
2021-03-09 19:15 5.23 2240 9820 (1964) 508 (1968) 2080 626 785 977 1030 1650 2790 3200 3940 4330
2021-03-09 18:15 5.24 2250 9820 (1964) 508 (1968) 2080 626 785 977 1030 1650 2790 3200 3940 4330
2021-03-09 17:15 5.27 2260 9820 (1964) 508 (1968) 2080 626 785 977 1030 1650 2790 3200 3940 4330
2021-03-09 16:15 5.28 2260 9820 (1964) 508 (1968) 2080 626 785 977 1030 1650 2790 3200 3940 4330
2021-03-09 15:15 5.30 2270 9820 (1964) 508 (1968) 2080 626 785 977 1030 1650 2790 3200 3940 4330
2021-03-09 14:15 5.34 2290 9820 (1964) 508 (1968) 2080 626 785 977 1030 1650 2790 3200 3940 4330
2021-03-09 13:15 5.35 2290 9820 (1964) 508 (1968) 2080 626 785 977 1030 1650 2790 3200 3940 4330
2021-03-09 12:15 5.38 2300 9820 (1964) 508 (1968) 2080 626 785 977 1030 1650 2790 3200 3940 4330
2021-03-09 11:15 5.42 2320 9820 (1964) 508 (1968) 2080 626 785 977 1030 1650 2790 3200 3940 4330
2021-03-09 10:15 5.47 2340 9820 (1964) 508 (1968) 2080 626 785 977 1030 1650 2790 3200 3940 4330
2021-03-09 09:15 5.50 2350 9820 (1964) 508 (1968) 2080 626 785 977 1030 1650 2790 3200 3940 4330
2021-03-09 08:15 5.55 2370 9820 (1964) 508 (1968) 2080 626 785 977 1030 1650 2790 3200 3940 4330
2021-03-09 07:15 5.58 2380 9820 (1964) 508 (1968) 2080 626 785 977 1030 1650 2790 3200 3940 4330
2021-03-09 06:15 5.63 2400 9820 (1964) 508 (1968) 2080 626 785 977 1030 1650 2790 3200 3940 4330
2021-03-09 05:15 5.66 2410 9820 (1964) 508 (1968) 2080 626 785 977 1030 1650 2790 3200 3940 4330
2021-03-09 04:15 5.70 2430 9820 (1964) 508 (1968) 2080 626 785 977 1030 1650 2790 3200 3940 4330
2021-03-09 03:15 5.74 2440 9820 (1964) 508 (1968) 2080 626 785 977 1030 1650 2790 3200 3940 4330
2021-03-09 02:15 5.78 2460 9820 (1964) 508 (1968) 2080 626 785 977 1030 1650 2790 3200 3940 4330
2021-03-09 01:15 5.81 2470 9820 (1964) 508 (1968) 2080 626 785 977 1030 1650 2790 3200 3940 4330
2021-03-09 00:15 5.83 2480 9820 (1964) 508 (1968) 2080 626 785 977 1030 1650 2790 3200 3940 4330
2021-03-08 23:15 5.85 2490 4980 (1950) 512 (1968) 1930 618 866 974 1020 1550 2770 3090 3790 4230
2021-03-08 22:15 5.87 2490 4980 (1950) 512 (1968) 1930 618 866 974 1020 1550 2770 3090 3790 4230
2021-03-08 21:15 5.89 2500 4980 (1950) 512 (1968) 1930 618 866 974 1020 1550 2770 3090 3790 4230
2021-03-08 20:15 5.90 2510 4980 (1950) 512 (1968) 1930 618 866 974 1020 1550 2770 3090 3790 4230
2021-03-08 19:15 5.91 2510 4980 (1950) 512 (1968) 1930 618 866 974 1020 1550 2770 3090 3790 4230
2021-03-08 18:15 5.92 2510 4980 (1950) 512 (1968) 1930 618 866 974 1020 1550 2770 3090 3790 4230
2021-03-08 17:15 5.92 2510 4980 (1950) 512 (1968) 1930 618 866 974 1020 1550 2770 3090 3790 4230
2021-03-08 16:15 5.93 2520 4980 (1950) 512 (1968) 1930 618 866 974 1020 1550 2770 3090 3790 4230
2021-03-08 15:15 5.93 2520 4980 (1950) 512 (1968) 1930 618 866 974 1020 1550 2770 3090 3790 4230
2021-03-08 14:15 5.94 2520 4980 (1950) 512 (1968) 1930 618 866 974 1020 1550 2770 3090 3790 4230
2021-03-08 13:15 5.95 2530 4980 (1950) 512 (1968) 1930 618 866 974 1020 1550 2770 3090 3790 4230
2021-03-08 12:15 5.98 2540 4980 (1950) 512 (1968) 1930 618 866 974 1020 1550 2770 3090 3790 4230
2021-03-08 11:15 5.97 2530 4980 (1950) 512 (1968) 1930 618 866 974 1020 1550 2770 3090 3790 4230
2021-03-08 10:15 6.00 2540 4980 (1950) 512 (1968) 1930 618 866 974 1020 1550 2770 3090 3790 4230
2021-03-08 09:15 6.01 2550 4980 (1950) 512 (1968) 1930 618 866 974 1020 1550 2770 3090 3790 4230
2021-03-08 08:15 6.03 2560 4980 (1950) 512 (1968) 1930 618 866 974 1020 1550 2770 3090 3790 4230
2021-03-08 07:15 6.04 2560 4980 (1950) 512 (1968) 1930 618 866 974 1020 1550 2770 3090 3790 4230
2021-03-08 06:15 6.06 2570 4980 (1950) 512 (1968) 1930 618 866 974 1020 1550 2770 3090 3790 4230
2021-03-08 05:15 6.06 2570 4980 (1950) 512 (1968) 1930 618 866 974 1020 1550 2770 3090 3790 4230
2021-03-08 04:15 6.08 2580 4980 (1950) 512 (1968) 1930 618 866 974 1020 1550 2770 3090 3790 4230
2021-03-08 03:15 6.09 2580 4980 (1950) 512 (1968) 1930 618 866 974 1020 1550 2770 3090 3790 4230
2021-03-08 02:15 6.12 2590 4980 (1950) 512 (1968) 1930 618 866 974 1020 1550 2770 3090 3790 4230
2021-03-08 01:15 6.13 2600 4980 (1950) 512 (1968) 1930 618 866 974 1020 1550 2770 3090 3790 4230
2021-03-08 00:15 6.15 2600 4980 (1950) 512 (1968) 1930 618 866 974 1020 1550 2770 3090 3790 4230
2021-03-07 23:15 6.17 2610 4980 (1950) 527 (1968) 1910 584 774 956 997 1640 2490 2910 3810 4090
2021-03-07 22:15 6.17 2610 4980 (1950) 527 (1968) 1910 584 774 956 997 1640 2490 2910 3810 4090
2021-03-07 21:15 6.20 2620 4980 (1950) 527 (1968) 1910 584 774 956 997 1640 2490 2910 3810 4090
2021-03-07 20:15 6.21 2630 4980 (1950) 527 (1968) 1910 584 774 956 997 1640 2490 2910 3810 4090
2021-03-07 19:15 6.24 2640 4980 (1950) 527 (1968) 1910 584 774 956 997 1640 2490 2910 3810 4090
2021-03-07 18:15 6.27 2650 4980 (1950) 527 (1968) 1910 584 774 956 997 1640 2490 2910 3810 4090
2021-03-07 17:15 6.29 2660 4980 (1950) 527 (1968) 1910 584 774 956 997 1640 2490 2910 3810 4090
2021-03-07 16:15 6.31 2670 4980 (1950) 527 (1968) 1910 584 774 956 997 1640 2490 2910 3810 4090
2021-03-07 15:15 6.34 2680 4980 (1950) 527 (1968) 1910 584 774 956 997 1640 2490 2910 3810 4090
2021-03-07 14:15 6.37 2690 4980 (1950) 527 (1968) 1910 584 774 956 997 1640 2490 2910 3810 4090
2021-03-07 13:15 6.39 2700 4980 (1950) 527 (1968) 1910 584 774 956 997 1640 2490 2910 3810 4090
2021-03-07 12:15 6.44 2720 4980 (1950) 527 (1968) 1910 584 774 956 997 1640 2490 2910 3810 4090
2021-03-07 11:15 6.47 2730 4980 (1950) 527 (1968) 1910 584 774 956 997 1640 2490 2910 3810 4090
2021-03-07 10:15 6.51 2750 4980 (1950) 527 (1968) 1910 584 774 956 997 1640 2490 2910 3810 4090
2021-03-07 09:15 6.55 2760 4980 (1950) 527 (1968) 1910 584 774 956 997 1640 2490 2910 3810 4090
2021-03-07 08:15 6.61 2780 4980 (1950) 527 (1968) 1910 584 774 956 997 1640 2490 2910 3810 4090
2021-03-07 07:15 6.64 2800 4980 (1950) 527 (1968) 1910 584 774 956 997 1640 2490 2910 3810 4090
2021-03-07 06:15 6.70 2820 4980 (1950) 527 (1968) 1910 584 774 956 997 1640 2490 2910 3810 4090
2021-03-07 05:15 6.75 2840 4980 (1950) 527 (1968) 1910 584 774 956 997 1640 2490 2910 3810 4090
2021-03-07 04:15 6.83 2870 4980 (1950) 527 (1968) 1910 584 774 956 997 1640 2490 2910 3810 4090
2021-03-07 03:15 6.90 2900 4980 (1950) 527 (1968) 1910 584 774 956 997 1640 2490 2910 3810 4090
2021-03-07 02:15 6.97 2930 4980 (1950) 527 (1968) 1910 584 774 956 997 1640 2490 2910 3810 4090
2021-03-07 01:15 7.04 2950 4980 (1950) 527 (1968) 1910 584 774 956 997 1640 2490 2910 3810 4090
2021-03-07 00:15 7.14 2990 4980 (1950) 527 (1968) 1910 584 774 956 997 1640 2490 2910 3810 4090
2021-03-06 23:15 7.24 3030 4930 (1950) 553 (1964) 1910 596 744 984 1050 1500 2570 3270 3720 3950
2021-03-06 22:15 7.34 3070 4930 (1950) 553 (1964) 1910 596 744 984 1050 1500 2570 3270 3720 3950
2021-03-06 21:15 7.45 3120 4930 (1950) 553 (1964) 1910 596 744 984 1050 1500 2570 3270 3720 3950
2021-03-06 20:15 7.57 3170 4930 (1950) 553 (1964) 1910 596 744 984 1050 1500 2570 3270 3720 3950
2021-03-06 19:15 7.70 3220 4930 (1950) 553 (1964) 1910 596 744 984 1050 1500 2570 3270 3720 3950
2021-03-06 18:15 7.83 3270 4930 (1950) 553 (1964) 1910 596 744 984 1050 1500 2570 3270 3720 3950
2021-03-06 17:15 7.97 3330 4930 (1950) 553 (1964) 1910 596 744 984 1050 1500 2570 3270 3720 3950
2021-03-06 16:15 8.10 3380 4930 (1950) 553 (1964) 1910 596 744 984 1050 1500 2570 3270 3720 3950
2021-03-06 15:15 8.25 3440 4930 (1950) 553 (1964) 1910 596 744 984 1050 1500 2570 3270 3720 3950
2021-03-06 14:15 8.40 3500 4930 (1950) 553 (1964) 1910 596 744 984 1050 1500 2570 3270 3720 3950
2021-03-06 13:15 8.53 3550 4930 (1950) 553 (1964) 1910 596 744 984 1050 1500 2570 3270 3720 3950
2021-03-06 12:15 8.67 3610 4930 (1950) 553 (1964) 1910 596 744 984 1050 1500 2570 3270 3720 3950
2021-03-06 11:15 8.78 3650 4930 (1950) 553 (1964) 1910 596 744 984 1050 1500 2570 3270 3720 3950
2021-03-06 10:15 8.89 3690 4930 (1950) 553 (1964) 1910 596 744 984 1050 1500 2570 3270 3720 3950
2021-03-06 09:15 8.95 3710 4930 (1950) 553 (1964) 1910 596 744 984 1050 1500 2570 3270 3720 3950
2021-03-06 08:15 9.02 3740 4930 (1950) 553 (1964) 1910 596 744 984 1050 1500 2570 3270 3720 3950
2021-03-06 07:15 9.06 3750 4930 (1950) 553 (1964) 1910 596 744 984 1050 1500 2570 3270 3720 3950
2021-03-06 06:15 9.09 3760 4930 (1950) 553 (1964) 1910 596 744 984 1050 1500 2570 3270 3720 3950
2021-03-06 05:15 9.11 3770 4930 (1950) 553 (1964) 1910 596 744 984 1050 1500 2570 3270 3720 3950
2021-03-06 04:15 9.11 3770 4930 (1950) 553 (1964) 1910 596 744 984 1050 1500 2570 3270 3720 3950
2021-03-06 03:15 9.12 3770 4930 (1950) 553 (1964) 1910 596 744 984 1050 1500 2570 3270 3720 3950
2021-03-06 02:15 9.13 3770 4930 (1950) 553 (1964) 1910 596 744 984 1050 1500 2570 3270 3720 3950
2021-03-06 01:15 9.14 3780 4930 (1950) 553 (1964) 1910 596 744 984 1050 1500 2570 3270 3720 3950
2021-03-06 00:15 9.12 3770 4930 (1950) 553 (1964) 1910 596 744 984 1050 1500 2570 3270 3720 3950
2021-03-05 23:15 9.12 3770 6470 (1979) 585 (1968) 1970 635 791 960 1030 1520 2920 3430 3720 4140
2021-03-05 22:15 9.12 3770 6470 (1979) 585 (1968) 1970 635 791 960 1030 1520 2920 3430 3720 4140
2021-03-05 21:15 9.11 3770 6470 (1979) 585 (1968) 1970 635 791 960 1030 1520 2920 3430 3720 4140
2021-03-05 20:15 9.11 3770 6470 (1979) 585 (1968) 1970 635 791 960 1030 1520 2920 3430 3720 4140
2021-03-05 19:15 9.09 3760 6470 (1979) 585 (1968) 1970 635 791 960 1030 1520 2920 3430 3720 4140
2021-03-05 18:15 9.08 3760 6470 (1979) 585 (1968) 1970 635 791 960 1030 1520 2920 3430 3720 4140
2021-03-05 17:15 9.07 3750 6470 (1979) 585 (1968) 1970 635 791 960 1030 1520 2920 3430 3720 4140
2021-03-05 16:15 9.06 3750 6470 (1979) 585 (1968) 1970 635 791 960 1030 1520 2920 3430 3720 4140
2021-03-05 15:15 9.05 3750 6470 (1979) 585 (1968) 1970 635 791 960 1030 1520 2920 3430 3720 4140
2021-03-05 14:15 9.02 3740 6470 (1979) 585 (1968) 1970 635 791 960 1030 1520 2920 3430 3720 4140
2021-03-05 13:15 9.00 3730 6470 (1979) 585 (1968) 1970 635 791 960 1030 1520 2920 3430 3720 4140
2021-03-05 12:15 8.99 3730 6470 (1979) 585 (1968) 1970 635 791 960 1030 1520 2920 3430 3720 4140
2021-03-05 11:15 8.95 3710 6470 (1979) 585 (1968) 1970 635 791 960 1030 1520 2920 3430 3720 4140
2021-03-05 10:15 8.92 3700 6470 (1979) 585 (1968) 1970 635 791 960 1030 1520 2920 3430 3720 4140
2021-03-05 09:15 8.88 3690 6470 (1979) 585 (1968) 1970 635 791 960 1030 1520 2920 3430 3720 4140
2021-03-05 08:15 8.87 3680 6470 (1979) 585 (1968) 1970 635 791 960 1030 1520 2920 3430 3720 4140
2021-03-05 07:15 8.84 3670 6470 (1979) 585 (1968) 1970 635 791 960 1030 1520 2920 3430 3720 4140
2021-03-05 06:15 8.81 3660 6470 (1979) 585 (1968) 1970 635 791 960 1030 1520 2920 3430 3720 4140
2021-03-05 05:15 8.77 3650 6470 (1979) 585 (1968) 1970 635 791 960 1030 1520 2920 3430 3720 4140
2021-03-05 04:15 8.75 3640 6470 (1979) 585 (1968) 1970 635 791 960 1030 1520 2920 3430 3720 4140
2021-03-05 03:15 8.72 3630 6470 (1979) 585 (1968) 1970 635 791 960 1030 1520 2920 3430 3720 4140
2021-03-05 02:15 8.69 3610 6470 (1979) 585 (1968) 1970 635 791 960 1030 1520 2920 3430 3720 4140
2021-03-05 01:15 8.68 3610 6470 (1979) 585 (1968) 1970 635 791 960 1030 1520 2920 3430 3720 4140
2021-03-05 00:15 8.67 3610 6470 (1979) 585 (1968) 1970 635 791 960 1030 1520 2920 3430 3720 4140
2021-03-04 23:15 8.65 3600 8010 (1979) 588 (1968) 1980 636 687 874 1000 1440 2940 3180 3800 4100
2021-03-04 22:15 8.64 3590 8010 (1979) 588 (1968) 1980 636 687 874 1000 1440 2940 3180 3800 4100
2021-03-04 21:15 8.64 3590 8010 (1979) 588 (1968) 1980 636 687 874 1000 1440 2940 3180 3800 4100
2021-03-04 20:15 8.63 3590 8010 (1979) 588 (1968) 1980 636 687 874 1000 1440 2940 3180 3800 4100
2021-03-04 19:15 8.63 3590 8010 (1979) 588 (1968) 1980 636 687 874 1000 1440 2940 3180 3800 4100
2021-03-04 18:15 8.61 3580 8010 (1979) 588 (1968) 1980 636 687 874 1000 1440 2940 3180 3800 4100
2021-03-04 17:15 8.60 3580 8010 (1979) 588 (1968) 1980 636 687 874 1000 1440 2940 3180 3800 4100
2021-03-04 16:15 8.60 3580 8010 (1979) 588 (1968) 1980 636 687 874 1000 1440 2940 3180 3800 4100
2021-03-04 15:15 8.59 3570 8010 (1979) 588 (1968) 1980 636 687 874 1000 1440 2940 3180 3800 4100
2021-03-04 14:15 8.57 3570 8010 (1979) 588 (1968) 1980 636 687 874 1000 1440 2940 3180 3800 4100
2021-03-04 13:15 8.55 3560 8010 (1979) 588 (1968) 1980 636 687 874 1000 1440 2940 3180 3800 4100
2021-03-04 12:15 8.54 3550 8010 (1979) 588 (1968) 1980 636 687 874 1000 1440 2940 3180 3800 4100
2021-03-04 11:15 8.52 3550 8010 (1979) 588 (1968) 1980 636 687 874 1000 1440 2940 3180 3800 4100
2021-03-04 10:15 8.50 3540 8010 (1979) 588 (1968) 1980 636 687 874 1000 1440 2940 3180 3800 4100
2021-03-04 09:15 8.46 3520 8010 (1979) 588 (1968) 1980 636 687 874 1000 1440 2940 3180 3800 4100
2021-03-04 08:15 8.45 3520 8010 (1979) 588 (1968) 1980 636 687 874 1000 1440 2940 3180 3800 4100
2021-03-04 07:15 8.41 3500 8010 (1979) 588 (1968) 1980 636 687 874 1000 1440 2940 3180 3800 4100
2021-03-04 06:15 8.39 3490 8010 (1979) 588 (1968) 1980 636 687 874 1000 1440 2940 3180 3800 4100
2021-03-04 05:15 8.36 3480 8010 (1979) 588 (1968) 1980 636 687 874 1000 1440 2940 3180 3800 4100
2021-03-04 04:15 8.34 3470 8010 (1979) 588 (1968) 1980 636 687 874 1000 1440 2940 3180 3800 4100
2021-03-04 03:15 8.30 3460 8010 (1979) 588 (1968) 1980 636 687 874 1000 1440 2940 3180 3800 4100
2021-03-04 02:15 8.27 3450 8010 (1979) 588 (1968) 1980 636 687 874 1000 1440 2940 3180 3800 4100
2021-03-04 01:15 8.25 3440 8010 (1979) 588 (1968) 1980 636 687 874 1000 1440 2940 3180 3800 4100
2021-03-04 00:15 8.22 3430 8010 (1979) 588 (1968) 1980 636 687 874 1000 1440 2940 3180 3800 4100
2021-03-03 23:15 8.21 3420 5590 (1979) 461 (1963) 1960 605 698 914 981 1500 2990 3350 3910 4180
2021-03-03 22:15 8.18 3410 5590 (1979) 461 (1963) 1960 605 698 914 981 1500 2990 3350 3910 4180
2021-03-03 21:15 8.16 3400 5590 (1979) 461 (1963) 1960 605 698 914 981 1500 2990 3350 3910 4180
2021-03-03 20:15 8.13 3390 5590 (1979) 461 (1963) 1960 605 698 914 981 1500 2990 3350 3910 4180
2021-03-03 19:15 8.10 3380 5590 (1979) 461 (1963) 1960 605 698 914 981 1500 2990 3350 3910 4180
2021-03-03 18:15 8.08 3370 5590 (1979) 461 (1963) 1960 605 698 914 981 1500 2990 3350 3910 4180
2021-03-03 17:15 8.05 3360 5590 (1979) 461 (1963) 1960 605 698 914 981 1500 2990 3350 3910 4180
2021-03-03 16:15 7.99 3330 5590 (1979) 461 (1963) 1960 605 698 914 981 1500 2990 3350 3910 4180
2021-03-03 15:15 7.95 3320 5590 (1979) 461 (1963) 1960 605 698 914 981 1500 2990 3350 3910 4180
2021-03-03 14:15 7.88 3290 5590 (1979) 461 (1963) 1960 605 698 914 981 1500 2990 3350 3910 4180
2021-03-03 13:15 7.82 3270 5590 (1979) 461 (1963) 1960 605 698 914 981 1500 2990 3350 3910 4180
2021-03-03 12:15 7.75 3240 5590 (1979) 461 (1963) 1960 605 698 914 981 1500 2990 3350 3910 4180
2021-03-03 11:15 7.68 3210 5590 (1979) 461 (1963) 1960 605 698 914 981 1500 2990 3350 3910 4180
2021-03-03 10:15 7.60 3180 5590 (1979) 461 (1963) 1960 605 698 914 981 1500 2990 3350 3910 4180
2021-03-03 09:15 7.51 3140 5590 (1979) 461 (1963) 1960 605 698 914 981 1500 2990 3350 3910 4180
2021-03-03 08:15 7.42 3110 5590 (1979) 461 (1963) 1960 605 698 914 981 1500 2990 3350 3910 4180
2021-03-03 07:15 7.31 3060 5590 (1979) 461 (1963) 1960 605 698 914 981 1500 2990 3350 3910 4180
2021-03-03 06:15 7.21 3020 5590 (1979) 461 (1963) 1960 605 698 914 981 1500 2990 3350 3910 4180
2021-03-03 05:15 7.11 2980 5590 (1979) 461 (1963) 1960 605 698 914 981 1500 2990 3350 3910 4180
2021-03-03 04:15 7.02 2950 5590 (1979) 461 (1963) 1960 605 698 914 981 1500 2990 3350 3910 4180
2021-03-03 03:15 6.93 2910 5590 (1979) 461 (1963) 1960 605 698 914 981 1500 2990 3350 3910 4180
2021-03-03 02:15 6.86 2880 5590 (1979) 461 (1963) 1960 605 698 914 981 1500 2990 3350 3910 4180
2021-03-03 01:15 6.81 2860 5590 (1979) 461 (1963) 1960 605 698 914 981 1500 2990 3350 3910 4180
2021-03-03 00:15 6.79 2860 5590 (1979) 461 (1963) 1960 605 698 914 981 1500 2990 3350 3910 4180
2021-03-02 23:15 6.77 2850 5340 (1997) 472 (1963) 1950 615 710 907 968 1550 3140 3390 3900 4100
2021-03-02 22:15 6.78 2850 5340 (1997) 472 (1963) 1950 615 710 907 968 1550 3140 3390 3900 4100
2021-03-02 21:15 6.81 2860 5340 (1997) 472 (1963) 1950 615 710 907 968 1550 3140 3390 3900 4100
2021-03-02 20:15 6.86 2880 5340 (1997) 472 (1963) 1950 615 710 907 968 1550 3140 3390 3900 4100
2021-03-02 19:15 6.90 2900 5340 (1997) 472 (1963) 1950 615 710 907 968 1550 3140 3390 3900 4100
2021-03-02 18:15 6.94 2920 5340 (1997) 472 (1963) 1950 615 710 907 968 1550 3140 3390 3900 4100
2021-03-02 17:15 7.00 2940 5340 (1997) 472 (1963) 1950 615 710 907 968 1550 3140 3390 3900 4100
2021-03-02 16:15 7.05 2960 5340 (1997) 472 (1963) 1950 615 710 907 968 1550 3140 3390 3900 4100
2021-03-02 15:15 7.09 2970 5340 (1997) 472 (1963) 1950 615 710 907 968 1550 3140 3390 3900 4100
2021-03-02 14:15 7.14 2990 5340 (1997) 472 (1963) 1950 615 710 907 968 1550 3140 3390 3900 4100
2021-03-02 13:15 7.19 3010 5340 (1997) 472 (1963) 1950 615 710 907 968 1550 3140 3390 3900 4100
2021-03-02 12:15 7.25 3040 5340 (1997) 472 (1963) 1950 615 710 907 968 1550 3140 3390 3900 4100
2021-03-02 11:15 7.29 3050 5340 (1997) 472 (1963) 1950 615 710 907 968 1550 3140 3390 3900 4100
2021-03-02 10:15 7.33 3070 5340 (1997) 472 (1963) 1950 615 710 907 968 1550 3140 3390 3900 4100
2021-03-02 09:15 7.37 3090 5340 (1997) 472 (1963) 1950 615 710 907 968 1550 3140 3390 3900 4100
2021-03-02 08:15 7.42 3110 5340 (1997) 472 (1963) 1950 615 710 907 968 1550 3140 3390 3900 4100
2021-03-02 07:15 7.48 3130 5340 (1997) 472 (1963) 1950 615 710 907 968 1550 3140 3390 3900 4100
2021-03-02 06:15 7.54 3150 5340 (1997) 472 (1963) 1950 615 710 907 968 1550 3140 3390 3900 4100
2021-03-02 05:15 7.60 3180 5340 (1997) 472 (1963) 1950 615 710 907 968 1550 3140 3390 3900 4100
2021-03-02 04:15 7.67 3210 5340 (1997) 472 (1963) 1950 615 710 907 968 1550 3140 3390 3900 4100
2021-03-02 03:15 7.75 3240 5340 (1997) 472 (1963) 1950 615 710 907 968 1550 3140 3390 3900 4100
2021-03-02 02:15 7.82 3270 5340 (1997) 472 (1963) 1950 615 710 907 968 1550 3140 3390 3900 4100
2021-03-02 01:15 7.91 3300 5340 (1997) 472 (1963) 1950 615 710 907 968 1550 3140 3390 3900 4100
2021-03-02 00:15 7.99 3330 5340 (1997) 472 (1963) 1950 615 710 907 968 1550 3140 3390 3900 4100
2021-03-01 23:15 8.08 3370 4520 (1949) 455 (1963) 1890 624 698 881 926 1290 3020 3260 3850 3970
2021-03-01 22:15 8.17 3410 4520 (1949) 455 (1963) 1890 624 698 881 926 1290 3020 3260 3850 3970
2021-03-01 21:15 8.27 3450 4520 (1949) 455 (1963) 1890 624 698 881 926 1290 3020 3260 3850 3970
2021-03-01 20:15 8.35 3480 4520 (1949) 455 (1963) 1890 624 698 881 926 1290 3020 3260 3850 3970
2021-03-01 19:15 8.44 3510 4520 (1949) 455 (1963) 1890 624 698 881 926 1290 3020 3260 3850 3970
2021-03-01 18:15 8.52 3550 4520 (1949) 455 (1963) 1890 624 698 881 926 1290 3020 3260 3850 3970
2021-03-01 17:15 8.57 3570 4520 (1949) 455 (1963) 1890 624 698 881 926 1290 3020 3260 3850 3970
2021-03-01 16:15 8.61 3580 4520 (1949) 455 (1963) 1890 624 698 881 926 1290 3020 3260 3850 3970
2021-03-01 15:15 8.65 3600 4520 (1949) 455 (1963) 1890 624 698 881 926 1290 3020 3260 3850 3970
2021-03-01 14:15 8.65 3600 4520 (1949) 455 (1963) 1890 624 698 881 926 1290 3020 3260 3850 3970
2021-03-01 13:15 8.64 3590 4520 (1949) 455 (1963) 1890 624 698 881 926 1290 3020 3260 3850 3970
2021-03-01 12:15 8.62 3590 4520 (1949) 455 (1963) 1890 624 698 881 926 1290 3020 3260 3850 3970
2021-03-01 11:15 8.58 3570 4520 (1949) 455 (1963) 1890 624 698 881 926 1290 3020 3260 3850 3970
2021-03-01 10:15 8.54 3550 4520 (1949) 455 (1963) 1890 624 698 881 926 1290 3020 3260 3850 3970
2021-03-01 09:15 8.46 3520 4520 (1949) 455 (1963) 1890 624 698 881 926 1290 3020 3260 3850 3970
2021-03-01 08:15 8.39 3490 4520 (1949) 455 (1963) 1890 624 698 881 926 1290 3020 3260 3850 3970
2021-03-01 07:15 8.32 3470 4520 (1949) 455 (1963) 1890 624 698 881 926 1290 3020 3260 3850 3970
2021-03-01 06:15 8.23 3430 4520 (1949) 455 (1963) 1890 624 698 881 926 1290 3020 3260 3850 3970
2021-03-01 05:15 8.16 3400 4520 (1949) 455 (1963) 1890 624 698 881 926 1290 3020 3260 3850 3970
2021-03-01 04:15 8.09 3370 4520 (1949) 455 (1963) 1890 624 698 881 926 1290 3020 3260 3850 3970
2021-03-01 03:15 8.04 3350 4520 (1949) 455 (1963) 1890 624 698 881 926 1290 3020 3260 3850 3970
2021-03-01 02:15 7.99 3330 4520 (1949) 455 (1963) 1890 624 698 881 926 1290 3020 3260 3850 3970
2021-03-01 01:15 7.93 3310 4520 (1949) 455 (1963) 1890 624 698 881 926 1290 3020 3260 3850 3970
2021-03-01 00:15 7.87 3290 4520 (1949) 455 (1963) 1890 624 698 881 926 1290 3020 3260 3850 3970
2021-02-28 23:15 7.79 3250 4720 (1949) 329 (1963) 1870 637 672 846 932 1330 2760 3370 3800 3970
2021-02-28 22:15 7.71 3220 4720 (1949) 329 (1963) 1870 637 672 846 932 1330 2760 3370 3800 3970
2021-02-28 21:15 7.59 3170 4720 (1949) 329 (1963) 1870 637 672 846 932 1330 2760 3370 3800 3970
2021-02-28 20:15 7.45 3120 4720 (1949) 329 (1963) 1870 637 672 846 932 1330 2760 3370 3800 3970
2021-02-28 19:15 7.29 3050 4720 (1949) 329 (1963) 1870 637 672 846 932 1330 2760 3370 3800 3970
2021-02-28 18:15 7.11 2980 4720 (1949) 329 (1963) 1870 637 672 846 932 1330 2760 3370 3800 3970
2021-02-28 17:15 6.92 2910 4720 (1949) 329 (1963) 1870 637 672 846 932 1330 2760 3370 3800 3970
2021-02-28 16:15 6.69 2820 4720 (1949) 329 (1963) 1870 637 672 846 932 1330 2760 3370 3800 3970
2021-02-28 15:15 6.45 2720 4720 (1949) 329 (1963) 1870 637 672 846 932 1330 2760 3370 3800 3970
2021-02-28 14:15 6.18 2620 4720 (1949) 329 (1963) 1870 637 672 846 932 1330 2760 3370 3800 3970
2021-02-28 13:15 5.89 2500 4720 (1949) 329 (1963) 1870 637 672 846 932 1330 2760 3370 3800 3970
2021-02-28 12:15 5.60 2390 4720 (1949) 329 (1963) 1870 637 672 846 932 1330 2760 3370 3800 3970
2021-02-28 11:15 5.30 2270 4720 (1949) 329 (1963) 1870 637 672 846 932 1330 2760 3370 3800 3970
2021-02-28 10:15 5.02 2160 4720 (1949) 329 (1963) 1870 637 672 846 932 1330 2760 3370 3800 3970
2021-02-28 09:15 4.78 2070 4720 (1949) 329 (1963) 1870 637 672 846 932 1330 2760 3370 3800 3970
2021-02-28 08:15 4.62 2010 4720 (1949) 329 (1963) 1870 637 672 846 932 1330 2760 3370 3800 3970
2021-02-28 07:15 4.49 1960 4720 (1949) 329 (1963) 1870 637 672 846 932 1330 2760 3370 3800 3970
2021-02-28 06:15 4.39 1920 4720 (1949) 329 (1963) 1870 637 672 846 932 1330 2760 3370 3800 3970
2021-02-28 05:15 4.28 1880 4720 (1949) 329 (1963) 1870 637 672 846 932 1330 2760 3370 3800 3970
2021-02-28 04:15 4.23 1860 4720 (1949) 329 (1963) 1870 637 672 846 932 1330 2760 3370 3800 3970
2021-02-28 03:15 4.20 1850 4720 (1949) 329 (1963) 1870 637 672 846 932 1330 2760 3370 3800 3970
2021-02-28 02:15 4.20 1850 4720 (1949) 329 (1963) 1870 637 672 846 932 1330 2760 3370 3800 3970
2021-02-28 01:15 4.20 1850 4720 (1949) 329 (1963) 1870 637 672 846 932 1330 2760 3370 3800 3970
2021-02-28 00:15 4.20 1850 4720 (1949) 329 (1963) 1870 637 672 846 932 1330 2760 3370 3800 3970
2021-02-27 23:15 4.23 1860 5850 (1962) 329 (1963) 1900 645 728 813 977 1280 2860 3190 3790 4160
2021-02-27 22:15 4.25 1870 5850 (1962) 329 (1963) 1900 645 728 813 977 1280 2860 3190 3790 4160
2021-02-27 21:15 4.28 1880 5850 (1962) 329 (1963) 1900 645 728 813 977 1280 2860 3190 3790 4160
2021-02-27 20:15 4.31 1890 5850 (1962) 329 (1963) 1900 645 728 813 977 1280 2860 3190 3790 4160
2021-02-27 19:15 4.34 1900 5850 (1962) 329 (1963) 1900 645 728 813 977 1280 2860 3190 3790 4160
2021-02-27 18:15 4.38 1920 5850 (1962) 329 (1963) 1900 645 728 813 977 1280 2860 3190 3790 4160
2021-02-27 17:15 4.42 1930 5850 (1962) 329 (1963) 1900 645 728 813 977 1280 2860 3190 3790 4160
2021-02-27 16:15 4.49 1960 5850 (1962) 329 (1963) 1900 645 728 813 977 1280 2860 3190 3790 4160
2021-02-27 15:15 4.53 1970 5850 (1962) 329 (1963) 1900 645 728 813 977 1280 2860 3190 3790 4160
2021-02-27 14:15 4.59 2000 5850 (1962) 329 (1963) 1900 645 728 813 977 1280 2860 3190 3790 4160
2021-02-27 13:15 4.63 2010 5850 (1962) 329 (1963) 1900 645 728 813 977 1280 2860 3190 3790 4160
2021-02-27 12:15 4.68 2030 5850 (1962) 329 (1963) 1900 645 728 813 977 1280 2860 3190 3790 4160
2021-02-27 11:15 4.69 2030 5850 (1962) 329 (1963) 1900 645 728 813 977 1280 2860 3190 3790 4160
2021-02-27 10:15 4.68 2030 5850 (1962) 329 (1963) 1900 645 728 813 977 1280 2860 3190 3790 4160
2021-02-27 09:15 4.67 2030 5850 (1962) 329 (1963) 1900 645 728 813 977 1280 2860 3190 3790 4160
2021-02-27 08:15 4.65 2020 5850 (1962) 329 (1963) 1900 645 728 813 977 1280 2860 3190 3790 4160
2021-02-27 07:15 4.61 2000 5850 (1962) 329 (1963) 1900 645 728 813 977 1280 2860 3190 3790 4160
2021-02-27 06:15 4.56 1980 5850 (1962) 329 (1963) 1900 645 728 813 977 1280 2860 3190 3790 4160
2021-02-27 05:15 4.50 1960 5850 (1962) 329 (1963) 1900 645 728 813 977 1280 2860 3190 3790 4160
2021-02-27 04:15 4.44 1940 5850 (1962) 329 (1963) 1900 645 728 813 977 1280 2860 3190 3790 4160
2021-02-27 03:15 4.39 1920 5850 (1962) 329 (1963) 1900 645 728 813 977 1280 2860 3190 3790 4160
2021-02-27 02:15 4.34 1900 5850 (1962) 329 (1963) 1900 645 728 813 977 1280 2860 3190 3790 4160
2021-02-27 01:15 4.30 1880 5850 (1962) 329 (1963) 1900 645 728 813 977 1280 2860 3190 3790 4160
2021-02-27 00:15 4.28 1880 5850 (1962) 329 (1963) 1900 645 728 813 977 1280 2860 3190 3790 4160
2021-02-26 23:15 4.27 1870 4820 (1949) 333 (1963) 1920 655 698 815 1000 1350 2620 3170 4280 4660
2021-02-26 22:15 4.26 1870 4820 (1949) 333 (1963) 1920 655 698 815 1000 1350 2620 3170 4280 4660
2021-02-26 21:15 4.27 1870 4820 (1949) 333 (1963) 1920 655 698 815 1000 1350 2620 3170 4280 4660
2021-02-26 20:15 4.27 1870 4820 (1949) 333 (1963) 1920 655 698 815 1000 1350 2620 3170 4280 4660
2021-02-26 19:15 4.28 1880 4820 (1949) 333 (1963) 1920 655 698 815 1000 1350 2620 3170 4280 4660
2021-02-26 18:15 4.29 1880 4820 (1949) 333 (1963) 1920 655 698 815 1000 1350 2620 3170 4280 4660
2021-02-26 17:15 4.31 1890 4820 (1949) 333 (1963) 1920 655 698 815 1000 1350 2620 3170 4280 4660
2021-02-26 16:15 4.32 1890 4820 (1949) 333 (1963) 1920 655 698 815 1000 1350 2620 3170 4280 4660
2021-02-26 15:15 4.34 1900 4820 (1949) 333 (1963) 1920 655 698 815 1000 1350 2620 3170 4280 4660
2021-02-26 14:15 4.34 1900 4820 (1949) 333 (1963) 1920 655 698 815 1000 1350 2620 3170 4280 4660
2021-02-26 13:15 4.34 1900 4820 (1949) 333 (1963) 1920 655 698 815 1000 1350 2620 3170 4280 4660
2021-02-26 12:15 4.34 1900 4820 (1949) 333 (1963) 1920 655 698 815 1000 1350 2620 3170 4280 4660
2021-02-26 11:15 4.33 1900 4820 (1949) 333 (1963) 1920 655 698 815 1000 1350 2620 3170 4280 4660
2021-02-26 10:15 4.29 1880 4820 (1949) 333 (1963) 1920 655 698 815 1000 1350 2620 3170 4280 4660
2021-02-26 09:15 4.25 1870 4820 (1949) 333 (1963) 1920 655 698 815 1000 1350 2620 3170 4280 4660
2021-02-26 08:15 4.18 1840 4820 (1949) 333 (1963) 1920 655 698 815 1000 1350 2620 3170 4280 4660
2021-02-26 07:15 4.11 1810 4820 (1949) 333 (1963) 1920 655 698 815 1000 1350 2620 3170 4280 4660
2021-02-26 06:15 4.02 1780 4820 (1949) 333 (1963) 1920 655 698 815 1000 1350 2620 3170 4280 4660
2021-02-26 05:15 3.93 1740 4820 (1949) 333 (1963) 1920 655 698 815 1000 1350 2620 3170 4280 4660
2021-02-26 04:15 3.84 1710 4820 (1949) 333 (1963) 1920 655 698 815 1000 1350 2620 3170 4280 4660
2021-02-26 03:15 3.76 1680 4820 (1949) 333 (1963) 1920 655 698 815 1000 1350 2620 3170 4280 4660
2021-02-26 02:15 3.69 1650 4820 (1949) 333 (1963) 1920 655 698 815 1000 1350 2620 3170 4280 4660
2021-02-26 01:15 3.65 1640 4820 (1949) 333 (1963) 1920 655 698 815 1000 1350 2620 3170 4280 4660
2021-02-26 00:15 3.61 1620 4820 (1949) 333 (1963) 1920 655 698 815 1000 1350 2620 3170 4280 4660
2021-02-25 23:15 3.61 1620 7070 (2018) 336 (1963) 2010 646 699 878 1030 1440 2710 3160 4270 4870
2021-02-25 22:15 3.60 1620 7070 (2018) 336 (1963) 2010 646 699 878 1030 1440 2710 3160 4270 4870
2021-02-25 21:15 3.61 1620 7070 (2018) 336 (1963) 2010 646 699 878 1030 1440 2710 3160 4270 4870
2021-02-25 20:15 3.60 1620 7070 (2018) 336 (1963) 2010 646 699 878 1030 1440 2710 3160 4270 4870
2021-02-25 19:15 3.59 1610 7070 (2018) 336 (1963) 2010 646 699 878 1030 1440 2710 3160 4270 4870
2021-02-25 18:15 3.62 1630 7070 (2018) 336 (1963) 2010 646 699 878 1030 1440 2710 3160 4270 4870
2021-02-25 17:15 3.61 1620 7070 (2018) 336 (1963) 2010 646 699 878 1030 1440 2710 3160 4270 4870
2021-02-25 16:15 3.61 1620 7070 (2018) 336 (1963) 2010 646 699 878 1030 1440 2710 3160 4270 4870
2021-02-25 15:15 3.61 1620 7070 (2018) 336 (1963) 2010 646 699 878 1030 1440 2710 3160 4270 4870
2021-02-25 14:15 3.62 1630 7070 (2018) 336 (1963) 2010 646 699 878 1030 1440 2710 3160 4270 4870
2021-02-25 13:15 3.60 1620 7070 (2018) 336 (1963) 2010 646 699 878 1030 1440 2710 3160 4270 4870
2021-02-25 12:15 3.61 1620 7070 (2018) 336 (1963) 2010 646 699 878 1030 1440 2710 3160 4270 4870
2021-02-25 11:15 3.60 1620 7070 (2018) 336 (1963) 2010 646 699 878 1030 1440 2710 3160 4270 4870
2021-02-25 10:15 3.61 1620 7070 (2018) 336 (1963) 2010 646 699 878 1030 1440 2710 3160 4270 4870
2021-02-25 09:15 3.61 1620 7070 (2018) 336 (1963) 2010 646 699 878 1030 1440 2710 3160 4270 4870
2021-02-25 08:15 3.58 1610 7070 (2018) 336 (1963) 2010 646 699 878 1030 1440 2710 3160 4270 4870
2021-02-25 07:15 3.57 1610 7070 (2018) 336 (1963) 2010 646 699 878 1030 1440 2710 3160 4270 4870
2021-02-25 06:15 3.58 1610 7070 (2018) 336 (1963) 2010 646 699 878 1030 1440 2710 3160 4270 4870
2021-02-25 05:15 3.58 1610 7070 (2018) 336 (1963) 2010 646 699 878 1030 1440 2710 3160 4270 4870
2021-02-25 04:15 3.57 1610 7070 (2018) 336 (1963) 2010 646 699 878 1030 1440 2710 3160 4270 4870
2021-02-25 03:15 3.56 1600 7070 (2018) 336 (1963) 2010 646 699 878 1030 1440 2710 3160 4270 4870
2021-02-25 02:15 3.55 1600 7070 (2018) 336 (1963) 2010 646 699 878 1030 1440 2710 3160 4270 4870
2021-02-25 01:15 3.54 1590 7070 (2018) 336 (1963) 2010 646 699 878 1030 1440 2710 3160 4270 4870
2021-02-25 00:15 3.53 1590 7070 (2018) 336 (1963) 2010 646 699 878 1030 1440 2710 3160 4270 4870
2021-02-24 23:15 3.53 1590 6690 (1985) 338 (1963) 1950 652 701 870 997 1570 2490 3100 4200 4590
2021-02-24 22:15 3.51 1580 6690 (1985) 338 (1963) 1950 652 701 870 997 1570 2490 3100 4200 4590
2021-02-24 21:15 3.49 1580 6690 (1985) 338 (1963) 1950 652 701 870 997 1570 2490 3100 4200 4590
2021-02-24 20:15 3.47 1570 6690 (1985) 338 (1963) 1950 652 701 870 997 1570 2490 3100 4200 4590
2021-02-24 19:15 3.45 1560 6690 (1985) 338 (1963) 1950 652 701 870 997 1570 2490 3100 4200 4590
2021-02-24 18:15 3.42 1550 6690 (1985) 338 (1963) 1950 652 701 870 997 1570 2490 3100 4200 4590
2021-02-24 17:15 3.40 1540 6690 (1985) 338 (1963) 1950 652 701 870 997 1570 2490 3100 4200 4590
2021-02-24 16:15 3.37 1530 6690 (1985) 338 (1963) 1950 652 701 870 997 1570 2490 3100 4200 4590
2021-02-24 15:15 3.34 1520 6690 (1985) 338 (1963) 1950 652 701 870 997 1570 2490 3100 4200 4590
2021-02-24 14:15 3.32 1510 6690 (1985) 338 (1963) 1950 652 701 870 997 1570 2490 3100 4200 4590
2021-02-24 13:15 3.28 1500 6690 (1985) 338 (1963) 1950 652 701 870 997 1570 2490 3100 4200 4590
2021-02-24 12:15 3.25 1490 6690 (1985) 338 (1963) 1950 652 701 870 997 1570 2490 3100 4200 4590
2021-02-24 11:15 3.21 1470 6690 (1985) 338 (1963) 1950 652 701 870 997 1570 2490 3100 4200 4590
2021-02-24 10:15 3.18 1460 6690 (1985) 338 (1963) 1950 652 701 870 997 1570 2490 3100 4200 4590
2021-02-24 09:15 3.16 1450 6690 (1985) 338 (1963) 1950 652 701 870 997 1570 2490 3100 4200 4590
2021-02-24 08:15 3.13 1440 6690 (1985) 338 (1963) 1950 652 701 870 997 1570 2490 3100 4200 4590
2021-02-24 07:15 3.10 1430 6690 (1985) 338 (1963) 1950 652 701 870 997 1570 2490 3100 4200 4590
2021-02-24 06:15 3.07 1420 6690 (1985) 338 (1963) 1950 652 701 870 997 1570 2490 3100 4200 4590
2021-02-24 05:15 3.05 1410 6690 (1985) 338 (1963) 1950 652 701 870 997 1570 2490 3100 4200 4590
2021-02-24 04:15 3.03 1400 6690 (1985) 338 (1963) 1950 652 701 870 997 1570 2490 3100 4200 4590
2021-02-24 03:15 3.02 1400 6690 (1985) 338 (1963) 1950 652 701 870 997 1570 2490 3100 4200 4590
2021-02-24 02:15 3.01 1390 6690 (1985) 338 (1963) 1950 652 701 870 997 1570 2490 3100 4200 4590
2021-02-24 01:15 2.99 1390 6690 (1985) 338 (1963) 1950 652 701 870 997 1570 2490 3100 4200 4590
2021-02-24 00:15 2.99 1390 6690 (1985) 338 (1963) 1950 652 701 870 997 1570 2490 3100 4200 4590
2021-02-23 23:15 2.98 1380 5380 (1985) 348 (1963) 1990 628 688 823 958 1440 2920 3500 4070 4510
2021-02-23 22:15 2.98 1380 5380 (1985) 348 (1963) 1990 628 688 823 958 1440 2920 3500 4070 4510
2021-02-23 21:15 2.97 1380 5380 (1985) 348 (1963) 1990 628 688 823 958 1440 2920 3500 4070 4510
2021-02-23 20:15 2.98 1380 5380 (1985) 348 (1963) 1990 628 688 823 958 1440 2920 3500 4070 4510
2021-02-23 19:15 2.99 1390 5380 (1985) 348 (1963) 1990 628 688 823 958 1440 2920 3500 4070 4510
2021-02-23 18:15 2.98 1380 5380 (1985) 348 (1963) 1990 628 688 823 958 1440 2920 3500 4070 4510
2021-02-23 17:15 2.99 1390 5380 (1985) 348 (1963) 1990 628 688 823 958 1440 2920 3500 4070 4510
2021-02-23 16:15 3.00 1390 5380 (1985) 348 (1963) 1990 628 688 823 958 1440 2920 3500 4070 4510
2021-02-23 15:15 3.01 1390 5380 (1985) 348 (1963) 1990 628 688 823 958 1440 2920 3500 4070 4510
2021-02-23 14:15 3.01 1390 5380 (1985) 348 (1963) 1990 628 688 823 958 1440 2920 3500 4070 4510
2021-02-23 13:15 3.02 1400 5380 (1985) 348 (1963) 1990 628 688 823 958 1440 2920 3500 4070 4510
2021-02-23 12:15 3.05 1410 5380 (1985) 348 (1963) 1990 628 688 823 958 1440 2920 3500 4070 4510
2021-02-23 11:15 3.06 1410 5380 (1985) 348 (1963) 1990 628 688 823 958 1440 2920 3500 4070 4510
2021-02-23 10:15 3.08 1420 5380 (1985) 348 (1963) 1990 628 688 823 958 1440 2920 3500 4070 4510
2021-02-23 09:15 3.10 1430 5380 (1985) 348 (1963) 1990 628 688 823 958 1440 2920 3500 4070 4510
2021-02-23 08:15 3.12 1440 5380 (1985) 348 (1963) 1990 628 688 823 958 1440 2920 3500 4070 4510
2021-02-23 07:15 3.15 1450 5380 (1985) 348 (1963) 1990 628 688 823 958 1440 2920 3500 4070 4510
2021-02-23 06:15 3.16 1450 5380 (1985) 348 (1963) 1990 628 688 823 958 1440 2920 3500 4070 4510
2021-02-23 05:15 3.17 1460 5380 (1985) 348 (1963) 1990 628 688 823 958 1440 2920 3500 4070 4510
2021-02-23 04:15 3.19 1460 5380 (1985) 348 (1963) 1990 628 688 823 958 1440 2920 3500 4070 4510
2021-02-23 03:15 3.18 1460 5380 (1985) 348 (1963) 1990 628 688 823 958 1440 2920 3500 4070 4510
2021-02-23 02:15 3.18 1460 5380 (1985) 348 (1963) 1990 628 688 823 958 1440 2920 3500 4070 4510
2021-02-23 01:15 3.15 1450 5380 (1985) 348 (1963) 1990 628 688 823 958 1440 2920 3500 4070 4510
2021-02-23 00:15 3.11 1430 5380 (1985) 348 (1963) 1990 628 688 823 958 1440 2920 3500 4070 4510
2021-02-22 23:15 3.07 1420 4770 (1949) 360 (1963) 1940 569 709 874 999 1620 2730 3170 3890 4450
2021-02-22 22:15 3.00 1390 4770 (1949) 360 (1963) 1940 569 709 874 999 1620 2730 3170 3890 4450
2021-02-22 21:15 2.94 1370 4770 (1949) 360 (1963) 1940 569 709 874 999 1620 2730 3170 3890 4450
2021-02-22 20:15 2.90 1350 4770 (1949) 360 (1963) 1940 569 709 874 999 1620 2730 3170 3890 4450
2021-02-22 19:15 2.83 1330 4770 (1949) 360 (1963) 1940 569 709 874 999 1620 2730 3170 3890 4450
2021-02-22 18:15 2.80 1320 4770 (1949) 360 (1963) 1940 569 709 874 999 1620 2730 3170 3890 4450
2021-02-22 17:15 2.75 1300 4770 (1949) 360 (1963) 1940 569 709 874 999 1620 2730 3170 3890 4450
2021-02-22 16:15 2.72 1290 4770 (1949) 360 (1963) 1940 569 709 874 999 1620 2730 3170 3890 4450
2021-02-22 15:15 2.69 1280 4770 (1949) 360 (1963) 1940 569 709 874 999 1620 2730 3170 3890 4450
2021-02-22 14:15 2.67 1270 4770 (1949) 360 (1963) 1940 569 709 874 999 1620 2730 3170 3890 4450
2021-02-22 13:15 2.66 1260 4770 (1949) 360 (1963) 1940 569 709 874 999 1620 2730 3170 3890 4450
2021-02-22 12:15 2.65 1260 4770 (1949) 360 (1963) 1940 569 709 874 999 1620 2730 3170 3890 4450
2021-02-22 11:15 2.63 1250 4770 (1949) 360 (1963) 1940 569 709 874 999 1620 2730 3170 3890 4450
2021-02-22 10:15 2.63 1250 4770 (1949) 360 (1963) 1940 569 709 874 999 1620 2730 3170 3890 4450
2021-02-22 09:15 2.62 1250 4770 (1949) 360 (1963) 1940 569 709 874 999 1620 2730 3170 3890 4450
2021-02-22 08:15 2.62 1250 4770 (1949) 360 (1963) 1940 569 709 874 999 1620 2730 3170 3890 4450
2021-02-22 07:15 2.60 1240 4770 (1949) 360 (1963) 1940 569 709 874 999 1620 2730 3170 3890 4450
2021-02-22 06:15 2.60 1240 4770 (1949) 360 (1963) 1940 569 709 874 999 1620 2730 3170 3890 4450
2021-02-22 05:15 2.59 1240 4770 (1949) 360 (1963) 1940 569 709 874 999 1620 2730 3170 3890 4450
2021-02-22 04:15 2.58 1230 4770 (1949) 360 (1963) 1940 569 709 874 999 1620 2730 3170 3890 4450
2021-02-22 03:15 2.57 1230 4770 (1949) 360 (1963) 1940 569 709 874 999 1620 2730 3170 3890 4450
2021-02-22 02:15 2.56 1230 4770 (1949) 360 (1963) 1940 569 709 874 999 1620 2730 3170 3890 4450
2021-02-22 01:15 2.56 1230 4770 (1949) 360 (1963) 1940 569 709 874 999 1620 2730 3170 3890 4450
2021-02-22 00:15 2.56 1230 4770 (1949) 360 (1963) 1940 569 709 874 999 1620 2730 3170 3890 4450
2021-02-21 23:15 2.54 1220 5880 (1951) 366 (1963) 1830 575 721 900 956 1410 2310 2970 3890 4340
2021-02-21 22:15 2.54 1220 5880 (1951) 366 (1963) 1830 575 721 900 956 1410 2310 2970 3890 4340
2021-02-21 21:15 2.54 1220 5880 (1951) 366 (1963) 1830 575 721 900 956 1410 2310 2970 3890 4340
2021-02-21 20:15 2.53 1220 5880 (1951) 366 (1963) 1830 575 721 900 956 1410 2310 2970 3890 4340
2021-02-21 19:15 2.54 1220 5880 (1951) 366 (1963) 1830 575 721 900 956 1410 2310 2970 3890 4340
2021-02-21 18:15 2.53 1220 5880 (1951) 366 (1963) 1830 575 721 900 956 1410 2310 2970 3890 4340
2021-02-21 17:15 2.53 1220 5880 (1951) 366 (1963) 1830 575 721 900 956 1410 2310 2970 3890 4340
2021-02-21 16:15 2.52 1210 5880 (1951) 366 (1963) 1830 575 721 900 956 1410 2310 2970 3890 4340
2021-02-21 15:15 2.52 1210 5880 (1951) 366 (1963) 1830 575 721 900 956 1410 2310 2970 3890 4340
2021-02-21 14:15 2.52 1210 5880 (1951) 366 (1963) 1830 575 721 900 956 1410 2310 2970 3890 4340
2021-02-21 13:15 2.52 1210 5880 (1951) 366 (1963) 1830 575 721 900 956 1410 2310 2970 3890 4340
2021-02-21 12:15 2.51 1210 5880 (1951) 366 (1963) 1830 575 721 900 956 1410 2310 2970 3890 4340
2021-02-21 11:15 2.51 1210 5880 (1951) 366 (1963) 1830 575 721 900 956 1410 2310 2970 3890 4340
2021-02-21 10:15 2.52 1210 5880 (1951) 366 (1963) 1830 575 721 900 956 1410 2310 2970 3890 4340
2021-02-21 09:15 2.52 1210 5880 (1951) 366 (1963) 1830 575 721 900 956 1410 2310 2970 3890 4340
2021-02-21 08:15 2.51 1210 5880 (1951) 366 (1963) 1830 575 721 900 956 1410 2310 2970 3890 4340
2021-02-21 07:15 2.50 1200 5880 (1951) 366 (1963) 1830 575 721 900 956 1410 2310 2970 3890 4340
2021-02-21 06:15 2.52 1210 5880 (1951) 366 (1963) 1830 575 721 900 956 1410 2310 2970 3890 4340
2021-02-21 05:15 2.51 1210 5880 (1951) 366 (1963) 1830 575 721 900 956 1410 2310 2970 3890 4340
2021-02-21 04:15 2.51 1210 5880 (1951) 366 (1963) 1830 575 721 900 956 1410 2310 2970 3890 4340
2021-02-21 03:15 2.50 1200 5880 (1951) 366 (1963) 1830 575 721 900 956 1410 2310 2970 3890 4340
2021-02-21 02:15 2.51 1210 5880 (1951) 366 (1963) 1830 575 721 900 956 1410 2310 2970 3890 4340
2021-02-21 01:15 2.50 1200 5880 (1951) 366 (1963) 1830 575 721 900 956 1410 2310 2970 3890 4340
2021-02-21 00:15 2.51 1210 5880 (1951) 366 (1963) 1830 575 721 900 956 1410 2310 2970 3890 4340
2021-02-20 23:15 2.50 1200 4980 (1949) 371 (1963) 1760 610 696 858 907 1270 2280 2810 3790 4280
2021-02-20 22:15 2.50 1200 4980 (1949) 371 (1963) 1760 610 696 858 907 1270 2280 2810 3790 4280
2021-02-20 21:15 2.49 1200 4980 (1949) 371 (1963) 1760 610 696 858 907 1270 2280 2810 3790 4280
2021-02-20 20:15 2.49 1200 4980 (1949) 371 (1963) 1760 610 696 858 907 1270 2280 2810 3790 4280
2021-02-20 19:15 2.49 1200 4980 (1949) 371 (1963) 1760 610 696 858 907 1270 2280 2810 3790 4280
2021-02-20 18:15 2.49 1200 4980 (1949) 371 (1963) 1760 610 696 858 907 1270 2280 2810 3790 4280
2021-02-20 17:15 2.48 1200 4980 (1949) 371 (1963) 1760 610 696 858 907 1270 2280 2810 3790 4280
2021-02-20 16:15 2.48 1200 4980 (1949) 371 (1963) 1760 610 696 858 907 1270 2280 2810 3790 4280
2021-02-20 15:15 2.47 1190 4980 (1949) 371 (1963) 1760 610 696 858 907 1270 2280 2810 3790 4280
2021-02-20 14:15 2.47 1190 4980 (1949) 371 (1963) 1760 610 696 858 907 1270 2280 2810 3790 4280
2021-02-20 13:15 2.45 1190 4980 (1949) 371 (1963) 1760 610 696 858 907 1270 2280 2810 3790 4280
2021-02-20 12:15 2.45 1190 4980 (1949) 371 (1963) 1760 610 696 858 907 1270 2280 2810 3790 4280
2021-02-20 11:15 2.44 1180 4980 (1949) 371 (1963) 1760 610 696 858 907 1270 2280 2810 3790 4280
2021-02-20 10:15 2.43 1180 4980 (1949) 371 (1963) 1760 610 696 858 907 1270 2280 2810 3790 4280
2021-02-20 09:15 2.42 1170 4980 (1949) 371 (1963) 1760 610 696 858 907 1270 2280 2810 3790 4280
2021-02-20 08:15 2.40 1170 4980 (1949) 371 (1963) 1760 610 696 858 907 1270 2280 2810 3790 4280
2021-02-20 07:15 2.39 1160 4980 (1949) 371 (1963) 1760 610 696 858 907 1270 2280 2810 3790 4280
2021-02-20 06:15 2.38 1160 4980 (1949) 371 (1963) 1760 610 696 858 907 1270 2280 2810 3790 4280
2021-02-20 05:15 2.38 1160 4980 (1949) 371 (1963) 1760 610 696 858 907 1270 2280 2810 3790 4280
2021-02-20 04:15 2.37 1160 4980 (1949) 371 (1963) 1760 610 696 858 907 1270 2280 2810 3790 4280
2021-02-20 03:15 2.35 1150 4980 (1949) 371 (1963) 1760 610 696 858 907 1270 2280 2810 3790 4280
2021-02-20 02:15 2.34 1150 4980 (1949) 371 (1963) 1760 610 696 858 907 1270 2280 2810 3790 4280
2021-02-20 01:15 2.33 1140 4980 (1949) 371 (1963) 1760 610 696 858 907 1270 2280 2810 3790 4280
2021-02-20 00:15 2.33 1140 4980 (1949) 371 (1963) 1760 610 696 858 907 1270 2280 2810 3790 4280
2021-02-19 23:15 2.32 1140 5090 (1949) 371 (1963) 1750 583 670 826 891 1290 2180 3170 3890 4220
2021-02-19 22:15 2.31 1130 5090 (1949) 371 (1963) 1750 583 670 826 891 1290 2180 3170 3890 4220
2021-02-19 21:15 2.30 1130 5090 (1949) 371 (1963) 1750 583 670 826 891 1290 2180 3170 3890 4220
2021-02-19 20:15 2.29 1130 5090 (1949) 371 (1963) 1750 583 670 826 891 1290 2180 3170 3890 4220
2021-02-19 19:15 2.28 1120 5090 (1949) 371 (1963) 1750 583 670 826 891 1290 2180 3170 3890 4220
2021-02-19 18:15 2.26 1120 5090 (1949) 371 (1963) 1750 583 670 826 891 1290 2180 3170 3890 4220
2021-02-19 17:15 2.24 1110 5090 (1949) 371 (1963) 1750 583 670 826 891 1290 2180 3170 3890 4220
2021-02-19 16:15 2.23 1100 5090 (1949) 371 (1963) 1750 583 670 826 891 1290 2180 3170 3890 4220
2021-02-19 15:15 2.20 1090 5090 (1949) 371 (1963) 1750 583 670 826 891 1290 2180 3170 3890 4220
2021-02-19 14:15 2.18 1090 5090 (1949) 371 (1963) 1750 583 670 826 891 1290 2180 3170 3890 4220
2021-02-19 13:15 2.14 1070 5090 (1949) 371 (1963) 1750 583 670 826 891 1290 2180 3170 3890 4220
2021-02-19 12:15 2.11 1060 5090 (1949) 371 (1963) 1750 583 670 826 891 1290 2180 3170 3890 4220
2021-02-19 11:15 2.07 1050 5090 (1949) 371 (1963) 1750 583 670 826 891 1290 2180 3170 3890 4220
2021-02-19 10:15 2.05 1040 5090 (1949) 371 (1963) 1750 583 670 826 891 1290 2180 3170 3890 4220
2021-02-19 09:15 1.99 1020 5090 (1949) 371 (1963) 1750 583 670 826 891 1290 2180 3170 3890 4220
2021-02-19 08:15 1.95 1000 5090 (1949) 371 (1963) 1750 583 670 826 891 1290 2180 3170 3890 4220
2021-02-19 07:15 1.91 989 5090 (1949) 371 (1963) 1750 583 670 826 891 1290 2180 3170 3890 4220
2021-02-19 06:15 1.88 978 5090 (1949) 371 (1963) 1750 583 670 826 891 1290 2180 3170 3890 4220
2021-02-19 05:15 1.87 975 5090 (1949) 371 (1963) 1750 583 670 826 891 1290 2180 3170 3890 4220
2021-02-19 04:15 1.85 968 5090 (1949) 371 (1963) 1750 583 670 826 891 1290 2180 3170 3890 4220
2021-02-19 03:15 1.84 964 5090 (1949) 371 (1963) 1750 583 670 826 891 1290 2180 3170 3890 4220
2021-02-19 02:15 1.83 961 5090 (1949) 371 (1963) 1750 583 670 826 891 1290 2180 3170 3890 4220
2021-02-19 01:15 1.83 961 5090 (1949) 371 (1963) 1750 583 670 826 891 1290 2180 3170 3890 4220
2021-02-19 00:15 1.84 964 5090 (1949) 371 (1963) 1750 583 670 826 891 1290 2180 3170 3890 4220
2021-02-18 23:15 1.83 961 5210 (1949) 371 (1963) 1770 558 672 822 878 1210 2340 3130 4030 4210
2021-02-18 22:15 1.85 968 5210 (1949) 371 (1963) 1770 558 672 822 878 1210 2340 3130 4030 4210
2021-02-18 21:15 1.86 971 5210 (1949) 371 (1963) 1770 558 672 822 878 1210 2340 3130 4030 4210
2021-02-18 20:15 1.86 971 5210 (1949) 371 (1963) 1770 558 672 822 878 1210 2340 3130 4030 4210
2021-02-18 19:15 1.86 971 5210 (1949) 371 (1963) 1770 558 672 822 878 1210 2340 3130 4030 4210
2021-02-18 18:15 1.87 975 5210 (1949) 371 (1963) 1770 558 672 822 878 1210 2340 3130 4030 4210
2021-02-18 17:15 1.87 975 5210 (1949) 371 (1963) 1770 558 672 822 878 1210 2340 3130 4030 4210
2021-02-18 16:15 1.88 978 5210 (1949) 371 (1963) 1770 558 672 822 878 1210 2340 3130 4030 4210
2021-02-18 15:15 1.90 985 5210 (1949) 371 (1963) 1770 558 672 822 878 1210 2340 3130 4030 4210
2021-02-18 14:15 1.90 985 5210 (1949) 371 (1963) 1770 558 672 822 878 1210 2340 3130 4030 4210
2021-02-18 13:15 1.91 989 5210 (1949) 371 (1963) 1770 558 672 822 878 1210 2340 3130 4030 4210
2021-02-18 12:15 1.91 989 5210 (1949) 371 (1963) 1770 558 672 822 878 1210 2340 3130 4030 4210
2021-02-18 11:15 1.91 989 5210 (1949) 371 (1963) 1770 558 672 822 878 1210 2340 3130 4030 4210
2021-02-18 10:15 1.92 992 5210 (1949) 371 (1963) 1770 558 672 822 878 1210 2340 3130 4030 4210
2021-02-18 09:15 1.93 996 5210 (1949) 371 (1963) 1770 558 672 822 878 1210 2340 3130 4030 4210
2021-02-18 08:15 1.95 1000 5210 (1949) 371 (1963) 1770 558 672 822 878 1210 2340 3130 4030 4210
2021-02-18 07:15 1.95 1000 5210 (1949) 371 (1963) 1770 558 672 822 878 1210 2340 3130 4030 4210
2021-02-18 06:15 1.96 1010 5210 (1949) 371 (1963) 1770 558 672 822 878 1210 2340 3130 4030 4210
2021-02-18 05:15 1.96 1010 5210 (1949) 371 (1963) 1770 558 672 822 878 1210 2340 3130 4030 4210
2021-02-18 04:15 1.98 1010 5210 (1949) 371 (1963) 1770 558 672 822 878 1210 2340 3130 4030 4210
2021-02-18 03:15 2.00 1020 5210 (1949) 371 (1963) 1770 558 672 822 878 1210 2340 3130 4030 4210
2021-02-18 02:15 2.01 1020 5210 (1949) 371 (1963) 1770 558 672 822 878 1210 2340 3130 4030 4210
2021-02-18 01:15 2.02 1030 5210 (1949) 371 (1963) 1770 558 672 822 878 1210 2340 3130 4030 4210
2021-02-18 00:15 2.04 1030 5210 (1949) 371 (1963) 1770 558 672 822 878 1210 2340 3130 4030 4210
2021-02-17 23:15 2.06 1040 5150 (1949) 368 (1963) 1700 570 682 812 865 1200 2310 2720 3920 4270
2021-02-17 22:15 2.08 1050 5150 (1949) 368 (1963) 1700 570 682 812 865 1200 2310 2720 3920 4270
2021-02-17 21:15 2.09 1050 5150 (1949) 368 (1963) 1700 570 682 812 865 1200 2310 2720 3920 4270
2021-02-17 20:15 2.12 1060 5150 (1949) 368 (1963) 1700 570 682 812 865 1200 2310 2720 3920 4270
2021-02-17 19:15 2.15 1070 5150 (1949) 368 (1963) 1700 570 682 812 865 1200 2310 2720 3920 4270
2021-02-17 18:15 2.18 1090 5150 (1949) 368 (1963) 1700 570 682 812 865 1200 2310 2720 3920 4270
2021-02-17 17:15 2.22 1100 5150 (1949) 368 (1963) 1700 570 682 812 865 1200 2310 2720 3920 4270
2021-02-17 16:15 2.25 1110 5150 (1949) 368 (1963) 1700 570 682 812 865 1200 2310 2720 3920 4270
2021-02-17 15:15 2.28 1120 5150 (1949) 368 (1963) 1700 570 682 812 865 1200 2310 2720 3920 4270
2021-02-17 14:15 2.31 1130 5150 (1949) 368 (1963) 1700 570 682 812 865 1200 2310 2720 3920 4270
2021-02-17 13:15 2.35 1150 5150 (1949) 368 (1963) 1700 570 682 812 865 1200 2310 2720 3920 4270
2021-02-17 12:15 2.39 1160 5150 (1949) 368 (1963) 1700 570 682 812 865 1200 2310 2720 3920 4270
2021-02-17 11:15 2.42 1170 5150 (1949) 368 (1963) 1700 570 682 812 865 1200 2310 2720 3920 4270
2021-02-17 10:15 2.45 1190 5150 (1949) 368 (1963) 1700 570 682 812 865 1200 2310 2720 3920 4270
2021-02-17 09:15 2.48 1200 5150 (1949) 368 (1963) 1700 570 682 812 865 1200 2310 2720 3920 4270
2021-02-17 08:15 2.51 1210 5150 (1949) 368 (1963) 1700 570 682 812 865 1200 2310 2720 3920 4270
2021-02-17 07:15 2.52 1210 5150 (1949) 368 (1963) 1700 570 682 812 865 1200 2310 2720 3920 4270
2021-02-17 06:15 2.55 1220 5150 (1949) 368 (1963) 1700 570 682 812 865 1200 2310 2720 3920 4270
2021-02-17 05:15 2.56 1230 5150 (1949) 368 (1963) 1700 570 682 812 865 1200 2310 2720 3920 4270
2021-02-17 04:15 2.57 1230 5150 (1949) 368 (1963) 1700 570 682 812 865 1200 2310 2720 3920 4270
2021-02-17 03:15 2.58 1230 5150 (1949) 368 (1963) 1700 570 682 812 865 1200 2310 2720 3920 4270
2021-02-17 02:15 2.60 1240 5150 (1949) 368 (1963) 1700 570 682 812 865 1200 2310 2720 3920 4270
2021-02-17 01:15 2.62 1250 5150 (1949) 368 (1963) 1700 570 682 812 865 1200 2310 2720 3920 4270
2021-02-17 00:15 2.62 1250 5150 (1949) 368 (1963) 1700 570 682 812 865 1200 2310 2720 3920 4270
2021-02-16 23:15 2.63 1250 6440 (1990) 368 (1963) 1780 581 641 789 837 1260 2080 2840 4010 4780
2021-02-16 22:15 2.64 1260 6440 (1990) 368 (1963) 1780 581 641 789 837 1260 2080 2840 4010 4780
2021-02-16 21:15 2.66 1260 6440 (1990) 368 (1963) 1780 581 641 789 837 1260 2080 2840 4010 4780
2021-02-16 20:15 2.65 1260 6440 (1990) 368 (1963) 1780 581 641 789 837 1260 2080 2840 4010 4780
2021-02-16 19:15 2.65 1260 6440 (1990) 368 (1963) 1780 581 641 789 837 1260 2080 2840 4010 4780
2021-02-16 18:15 2.65 1260 6440 (1990) 368 (1963) 1780 581 641 789 837 1260 2080 2840 4010 4780
2021-02-16 17:15 2.67 1270 6440 (1990) 368 (1963) 1780 581 641 789 837 1260 2080 2840 4010 4780
2021-02-16 16:15 2.70 1280 6440 (1990) 368 (1963) 1780 581 641 789 837 1260 2080 2840 4010 4780
2021-02-16 15:15 2.74 1290 6440 (1990) 368 (1963) 1780 581 641 789 837 1260 2080 2840 4010 4780
2021-02-16 14:15 2.78 1310 6440 (1990) 368 (1963) 1780 581 641 789 837 1260 2080 2840 4010 4780
2021-02-16 13:15 2.81 1320 6440 (1990) 368 (1963) 1780 581 641 789 837 1260 2080 2840 4010 4780
2021-02-16 12:15 2.81 1320 6440 (1990) 368 (1963) 1780 581 641 789 837 1260 2080 2840 4010 4780
2021-02-16 11:15 2.80 1320 6440 (1990) 368 (1963) 1780 581 641 789 837 1260 2080 2840 4010 4780
2021-02-16 10:15 2.74 1290 6440 (1990) 368 (1963) 1780 581 641 789 837 1260 2080 2840 4010 4780
2021-02-16 09:15 2.72 1290 6440 (1990) 368 (1963) 1780 581 641 789 837 1260 2080 2840 4010 4780
2021-02-16 08:15 2.74 1290 6440 (1990) 368 (1963) 1780 581 641 789 837 1260 2080 2840 4010 4780
2021-02-16 07:15 2.77 1300 6440 (1990) 368 (1963) 1780 581 641 789 837 1260 2080 2840 4010 4780
2021-02-16 06:15 2.81 1320 6440 (1990) 368 (1963) 1780 581 641 789 837 1260 2080 2840 4010 4780
2021-02-16 05:15 2.83 1330 6440 (1990) 368 (1963) 1780 581 641 789 837 1260 2080 2840 4010 4780
2021-02-16 04:15 2.81 1320 6440 (1990) 368 (1963) 1780 581 641 789 837 1260 2080 2840 4010 4780
2021-02-16 03:15 2.79 1310 6440 (1990) 368 (1963) 1780 581 641 789 837 1260 2080 2840 4010 4780
2021-02-16 02:15 2.75 1300 6440 (1990) 368 (1963) 1780 581 641 789 837 1260 2080 2840 4010 4780
2021-02-16 01:15 2.72 1290 6440 (1990) 368 (1963) 1780 581 641 789 837 1260 2080 2840 4010 4780
2021-02-16 00:15 2.70 1280 6440 (1990) 368 (1963) 1780 581 641 789 837 1260 2080 2840 4010 4780
2021-02-15 23:15 2.66 1260 6760 (1949) 371 (1963) 1800 574 664 744 799 1230 1910 2720 4080 5750
2021-02-15 22:15 2.65 1260 6760 (1949) 371 (1963) 1800 574 664 744 799 1230 1910 2720 4080 5750
2021-02-15 21:15 2.64 1260 6760 (1949) 371 (1963) 1800 574 664 744 799 1230 1910 2720 4080 5750
2021-02-15 20:15 2.64 1260 6760 (1949) 371 (1963) 1800 574 664 744 799 1230 1910 2720 4080 5750
2021-02-15 19:15 2.63 1250 6760 (1949) 371 (1963) 1800 574 664 744 799 1230 1910 2720 4080 5750
2021-02-15 18:15 2.63 1250 6760 (1949) 371 (1963) 1800 574 664 744 799 1230 1910 2720 4080 5750
2021-02-15 17:15 2.63 1250 6760 (1949) 371 (1963) 1800 574 664 744 799 1230 1910 2720 4080 5750
2021-02-15 16:15 2.61 1250 6760 (1949) 371 (1963) 1800 574 664 744 799 1230 1910 2720 4080 5750
2021-02-15 15:15 2.63 1250 6760 (1949) 371 (1963) 1800 574 664 744 799 1230 1910 2720 4080 5750
2021-02-15 14:15 2.64 1260 6760 (1949) 371 (1963) 1800 574 664 744 799 1230 1910 2720 4080 5750
2021-02-15 13:15 2.62 1250 6760 (1949) 371 (1963) 1800 574 664 744 799 1230 1910 2720 4080 5750
2021-02-15 12:15 2.62 1250 6760 (1949) 371 (1963) 1800 574 664 744 799 1230 1910 2720 4080 5750
2021-02-15 11:15 2.62 1250 6760 (1949) 371 (1963) 1800 574 664 744 799 1230 1910 2720 4080 5750
2021-02-15 10:15 2.60 1240 6760 (1949) 371 (1963) 1800 574 664 744 799 1230 1910 2720 4080 5750
2021-02-15 09:15 2.59 1240 6760 (1949) 371 (1963) 1800 574 664 744 799 1230 1910 2720 4080 5750
2021-02-15 08:15 2.60 1240 6760 (1949) 371 (1963) 1800 574 664 744 799 1230 1910 2720 4080 5750
2021-02-15 07:15 2.60 1240 6760 (1949) 371 (1963) 1800 574 664 744 799 1230 1910 2720 4080 5750
2021-02-15 06:15 2.60 1240 6760 (1949) 371 (1963) 1800 574 664 744 799 1230 1910 2720 4080 5750
2021-02-15 05:15 2.58 1230 6760 (1949) 371 (1963) 1800 574 664 744 799 1230 1910 2720 4080 5750
2021-02-15 04:15 2.59 1240 6760 (1949) 371 (1963) 1800 574 664 744 799 1230 1910 2720 4080 5750
2021-02-15 03:15 2.59 1240 6760 (1949) 371 (1963) 1800 574 664 744 799 1230 1910 2720 4080 5750
2021-02-15 02:15 2.61 1250 6760 (1949) 371 (1963) 1800 574 664 744 799 1230 1910 2720 4080 5750
2021-02-15 01:15 2.61 1250 6760 (1949) 371 (1963) 1800 574 664 744 799 1230 1910 2720 4080 5750
2021-02-15 00:15 2.60 1240 6760 (1949) 371 (1963) 1800 574 664 744 799 1230 1910 2720 4080 5750
2021-02-14 23:15 2.61 1250 9050 (1950) 384 (1963) 1840 541 634 721 806 1270 2130 3280 4030 4870
2021-02-14 22:15 2.63 1250 9050 (1950) 384 (1963) 1840 541 634 721 806 1270 2130 3280 4030 4870
2021-02-14 21:15 2.63 1250 9050 (1950) 384 (1963) 1840 541 634 721 806 1270 2130 3280 4030 4870
2021-02-14 20:15 2.63 1250 9050 (1950) 384 (1963) 1840 541 634 721 806 1270 2130 3280 4030 4870
2021-02-14 19:15 2.64 1260 9050 (1950) 384 (1963) 1840 541 634 721 806 1270 2130 3280 4030 4870
2021-02-14 18:15 2.64 1260 9050 (1950) 384 (1963) 1840 541 634 721 806 1270 2130 3280 4030 4870
2021-02-14 17:15 2.64 1260 9050 (1950) 384 (1963) 1840 541 634 721 806 1270 2130 3280 4030 4870
2021-02-14 16:15 2.65 1260 9050 (1950) 384 (1963) 1840 541 634 721 806 1270 2130 3280 4030 4870
2021-02-14 15:15 2.66 1260 9050 (1950) 384 (1963) 1840 541 634 721 806 1270 2130 3280 4030 4870
2021-02-14 14:15 2.67 1270 9050 (1950) 384 (1963) 1840 541 634 721 806 1270 2130 3280 4030 4870
2021-02-14 13:15 2.67 1270 9050 (1950) 384 (1963) 1840 541 634 721 806 1270 2130 3280 4030 4870
2021-02-14 12:15 2.67 1270 9050 (1950) 384 (1963) 1840 541 634 721 806 1270 2130 3280 4030 4870
2021-02-14 11:15 2.67 1270 9050 (1950) 384 (1963) 1840 541 634 721 806 1270 2130 3280 4030 4870
2021-02-14 10:15 2.68 1270 9050 (1950) 384 (1963) 1840 541 634 721 806 1270 2130 3280 4030 4870
2021-02-14 09:15 2.70 1280 9050 (1950) 384 (1963) 1840 541 634 721 806 1270 2130 3280 4030 4870
2021-02-14 08:15 2.70 1280 9050 (1950) 384 (1963) 1840 541 634 721 806 1270 2130 3280 4030 4870
2021-02-14 07:15 2.70 1280 9050 (1950) 384 (1963) 1840 541 634 721 806 1270 2130 3280 4030 4870
2021-02-14 06:15 2.71 1280 9050 (1950) 384 (1963) 1840 541 634 721 806 1270 2130 3280 4030 4870
2021-02-14 05:15 2.71 1280 9050 (1950) 384 (1963) 1840 541 634 721 806 1270 2130 3280 4030 4870
2021-02-14 04:15 2.74 1290 9050 (1950) 384 (1963) 1840 541 634 721 806 1270 2130 3280 4030 4870
2021-02-14 03:15 2.74 1290 9050 (1950) 384 (1963) 1840 541 634 721 806 1270 2130 3280 4030 4870
2021-02-14 02:15 2.75 1300 9050 (1950) 384 (1963) 1840 541 634 721 806 1270 2130 3280 4030 4870
2021-02-14 01:15 2.76 1300 9050 (1950) 384 (1963) 1840 541 634 721 806 1270 2130 3280 4030 4870
2021-02-14 00:15 2.77 1300 9050 (1950) 384 (1963) 1840 541 634 721 806 1270 2130 3280 4030 4870
2021-02-13 23:15 2.77 1300 6900 (1950) 405 (1954) 1760 531 579 721 734 1230 2390 2960 3870 4550
2021-02-13 22:15 2.79 1310 6900 (1950) 405 (1954) 1760 531 579 721 734 1230 2390 2960 3870 4550
2021-02-13 21:15 2.80 1320 6900 (1950) 405 (1954) 1760 531 579 721 734 1230 2390 2960 3870 4550
2021-02-13 20:15 2.84 1330 6900 (1950) 405 (1954) 1760 531 579 721 734 1230 2390 2960 3870 4550
2021-02-13 19:15 2.82 1320 6900 (1950) 405 (1954) 1760 531 579 721 734 1230 2390 2960 3870 4550
2021-02-13 18:15 2.85 1330 6900 (1950) 405 (1954) 1760 531 579 721 734 1230 2390 2960 3870 4550
2021-02-13 17:15 2.86 1340 6900 (1950) 405 (1954) 1760 531 579 721 734 1230 2390 2960 3870 4550
2021-02-13 16:15 2.88 1350 6900 (1950) 405 (1954) 1760 531 579 721 734 1230 2390 2960 3870 4550
2021-02-13 15:15 2.90 1350 6900 (1950) 405 (1954) 1760 531 579 721 734 1230 2390 2960 3870 4550
2021-02-13 14:15 2.92 1360 6900 (1950) 405 (1954) 1760 531 579 721 734 1230 2390 2960 3870 4550
2021-02-13 13:15 2.94 1370 6900 (1950) 405 (1954) 1760 531 579 721 734 1230 2390 2960 3870 4550
2021-02-13 12:15 2.97 1380 6900 (1950) 405 (1954) 1760 531 579 721 734 1230 2390 2960 3870 4550
2021-02-13 11:15 2.99 1390 6900 (1950) 405 (1954) 1760 531 579 721 734 1230 2390 2960 3870 4550
2021-02-13 10:15 3.01 1390 6900 (1950) 405 (1954) 1760 531 579 721 734 1230 2390 2960 3870 4550
2021-02-13 09:15 3.05 1410 6900 (1950) 405 (1954) 1760 531 579 721 734 1230 2390 2960 3870 4550
2021-02-13 08:15 3.07 1420 6900 (1950) 405 (1954) 1760 531 579 721 734 1230 2390 2960 3870 4550
2021-02-13 07:15 3.09 1420 6900 (1950) 405 (1954) 1760 531 579 721 734 1230 2390 2960 3870 4550
2021-02-13 06:15 3.12 1440 6900 (1950) 405 (1954) 1760 531 579 721 734 1230 2390 2960 3870 4550
2021-02-13 05:15 3.16 1450 6900 (1950) 405 (1954) 1760 531 579 721 734 1230 2390 2960 3870 4550
2021-02-13 04:15 3.17 1460 6900 (1950) 405 (1954) 1760 531 579 721 734 1230 2390 2960 3870 4550
2021-02-13 03:15 3.19 1460 6900 (1950) 405 (1954) 1760 531 579 721 734 1230 2390 2960 3870 4550
2021-02-13 02:15 3.20 1470 6900 (1950) 405 (1954) 1760 531 579 721 734 1230 2390 2960 3870 4550
2021-02-13 01:15 3.22 1470 6900 (1950) 405 (1954) 1760 531 579 721 734 1230 2390 2960 3870 4550
2021-02-13 00:15 3.22 1470 6900 (1950) 405 (1954) 1760 531 579 721 734 1230 2390 2960 3870 4550
2021-02-12 23:15 3.22 1470 7380 (2009) 416 (1954) 1740 509 567 675 702 1160 2260 2850 3870 4690
2021-02-12 22:15 3.22 1470 7380 (2009) 416 (1954) 1740 509 567 675 702 1160 2260 2850 3870 4690
2021-02-12 21:15 3.23 1480 7380 (2009) 416 (1954) 1740 509 567 675 702 1160 2260 2850 3870 4690
2021-02-12 20:15 3.24 1480 7380 (2009) 416 (1954) 1740 509 567 675 702 1160 2260 2850 3870 4690
2021-02-12 19:15 3.23 1480 7380 (2009) 416 (1954) 1740 509 567 675 702 1160 2260 2850 3870 4690
2021-02-12 18:15 3.25 1490 7380 (2009) 416 (1954) 1740 509 567 675 702 1160 2260 2850 3870 4690
2021-02-12 17:15 3.25 1490 7380 (2009) 416 (1954) 1740 509 567 675 702 1160 2260 2850 3870 4690
2021-02-12 16:15 3.26 1490 7380 (2009) 416 (1954) 1740 509 567 675 702 1160 2260 2850 3870 4690
2021-02-12 15:15 3.25 1490 7380 (2009) 416 (1954) 1740 509 567 675 702 1160 2260 2850 3870 4690
2021-02-12 14:15 3.25 1490 7380 (2009) 416 (1954) 1740 509 567 675 702 1160 2260 2850 3870 4690
2021-02-12 13:15 3.27 1490 7380 (2009) 416 (1954) 1740 509 567 675 702 1160 2260 2850 3870 4690
2021-02-12 12:15 3.27 1490 7380 (2009) 416 (1954) 1740 509 567 675 702 1160 2260 2850 3870 4690
2021-02-12 11:15 3.28 1500 7380 (2009) 416 (1954) 1740 509 567 675 702 1160 2260 2850 3870 4690
2021-02-12 10:15 3.28 1500 7380 (2009) 416 (1954) 1740 509 567 675 702 1160 2260 2850 3870 4690
2021-02-12 09:15 3.29 1500 7380 (2009) 416 (1954) 1740 509 567 675 702 1160 2260 2850 3870 4690
2021-02-12 08:15 3.29 1500 7380 (2009) 416 (1954) 1740 509 567 675 702 1160 2260 2850 3870 4690
2021-02-12 07:15 3.30 1500 7380 (2009) 416 (1954) 1740 509 567 675 702 1160 2260 2850 3870 4690
2021-02-12 06:15 3.30 1500 7380 (2009) 416 (1954) 1740 509 567 675 702 1160 2260 2850 3870 4690
2021-02-12 05:15 3.31 1510 7380 (2009) 416 (1954) 1740 509 567 675 702 1160 2260 2850 3870 4690
2021-02-12 04:15 3.32 1510 7380 (2009) 416 (1954) 1740 509 567 675 702 1160 2260 2850 3870 4690
2021-02-12 03:15 3.32 1510 7380 (2009) 416 (1954) 1740 509 567 675 702 1160 2260 2850 3870 4690
2021-02-12 02:15 3.32 1510 7380 (2009) 416 (1954) 1740 509 567 675 702 1160 2260 2850 3870 4690
2021-02-12 01:15 3.33 1520 7380 (2009) 416 (1954) 1740 509 567 675 702 1160 2260 2850 3870 4690
2021-02-12 00:15 3.34 1520 7380 (2009) 416 (1954) 1740 509 567 675 702 1160 2260 2850 3870 4690
2021-02-11 23:15 3.33 1520 5100 (2009) 422 (1954) 1730 497 564 675 711 1140 2350 2900 3970 4410
2021-02-11 22:15 3.35 1520 5100 (2009) 422 (1954) 1730 497 564 675 711 1140 2350 2900 3970 4410
2021-02-11 21:15 3.34 1520 5100 (2009) 422 (1954) 1730 497 564 675 711 1140 2350 2900 3970 4410
2021-02-11 20:15 3.37 1530 5100 (2009) 422 (1954) 1730 497 564 675 711 1140 2350 2900 3970 4410
2021-02-11 19:15 3.37 1530 5100 (2009) 422 (1954) 1730 497 564 675 711 1140 2350 2900 3970 4410
2021-02-11 18:15 3.37 1530 5100 (2009) 422 (1954) 1730 497 564 675 711 1140 2350 2900 3970 4410
2021-02-11 17:15 3.37 1530 5100 (2009) 422 (1954) 1730 497 564 675 711 1140 2350 2900 3970 4410
2021-02-11 16:15 3.39 1540 5100 (2009) 422 (1954) 1730 497 564 675 711 1140 2350 2900 3970 4410
2021-02-11 15:15 3.40 1540 5100 (2009) 422 (1954) 1730 497 564 675 711 1140 2350 2900 3970 4410
2021-02-11 14:15 3.40 1540 5100 (2009) 422 (1954) 1730 497 564 675 711 1140 2350 2900 3970 4410
2021-02-11 13:15 3.40 1540 5100 (2009) 422 (1954) 1730 497 564 675 711 1140 2350 2900 3970 4410
2021-02-11 12:15 3.41 1550 5100 (2009) 422 (1954) 1730 497 564 675 711 1140 2350 2900 3970 4410
2021-02-11 11:15 3.42 1550 5100 (2009) 422 (1954) 1730 497 564 675 711 1140 2350 2900 3970 4410
2021-02-11 10:15 3.42 1550 5100 (2009) 422 (1954) 1730 497 564 675 711 1140 2350 2900 3970 4410
2021-02-11 09:15 3.44 1560 5100 (2009) 422 (1954) 1730 497 564 675 711 1140 2350 2900 3970 4410
2021-02-11 08:15 3.44 1560 5100 (2009) 422 (1954) 1730 497 564 675 711 1140 2350 2900 3970 4410
2021-02-11 07:15 3.44 1560 5100 (2009) 422 (1954) 1730 497 564 675 711 1140 2350 2900 3970 4410
2021-02-11 06:15 3.45 1560 5100 (2009) 422 (1954) 1730 497 564 675 711 1140 2350 2900 3970 4410
2021-02-11 05:15 3.45 1560 5100 (2009) 422 (1954) 1730 497 564 675 711 1140 2350 2900 3970 4410
2021-02-11 04:15 3.46 1560 5100 (2009) 422 (1954) 1730 497 564 675 711 1140 2350 2900 3970 4410
2021-02-11 03:15 3.46 1560 5100 (2009) 422 (1954) 1730 497 564 675 711 1140 2350 2900 3970 4410
2021-02-11 02:15 3.47 1570 5100 (2009) 422 (1954) 1730 497 564 675 711 1140 2350 2900 3970 4410
2021-02-11 01:15 3.45 1560 5100 (2009) 422 (1954) 1730 497 564 675 711 1140 2350 2900 3970 4410
2021-02-11 00:15 3.47 1570 5100 (2009) 422 (1954) 1730 497 564 675 711 1140 2350 2900 3970 4410
2021-02-10 23:15 3.47 1570 5090 (1950) 413 (1963) 1730 498 579 696 749 1170 2620 2930 3670 4010
2021-02-10 22:15 3.48 1570 5090 (1950) 413 (1963) 1730 498 579 696 749 1170 2620 2930 3670 4010
2021-02-10 21:15 3.48 1570 5090 (1950) 413 (1963) 1730 498 579 696 749 1170 2620 2930 3670 4010
2021-02-10 20:15 3.49 1580 5090 (1950) 413 (1963) 1730 498 579 696 749 1170 2620 2930 3670 4010
2021-02-10 19:15 3.49 1580 5090 (1950) 413 (1963) 1730 498 579 696 749 1170 2620 2930 3670 4010
2021-02-10 18:15 3.48 1570 5090 (1950) 413 (1963) 1730 498 579 696 749 1170 2620 2930 3670 4010
2021-02-10 17:15 3.49 1580 5090 (1950) 413 (1963) 1730 498 579 696 749 1170 2620 2930 3670 4010
2021-02-10 16:15 3.50 1580 5090 (1950) 413 (1963) 1730 498 579 696 749 1170 2620 2930 3670 4010
2021-02-10 15:15 3.51 1580 5090 (1950) 413 (1963) 1730 498 579 696 749 1170 2620 2930 3670 4010
2021-02-10 14:15 3.51 1580 5090 (1950) 413 (1963) 1730 498 579 696 749 1170 2620 2930 3670 4010
2021-02-10 13:15 3.53 1590 5090 (1950) 413 (1963) 1730 498 579 696 749 1170 2620 2930 3670 4010
2021-02-10 12:15 3.54 1590 5090 (1950) 413 (1963) 1730 498 579 696 749 1170 2620 2930 3670 4010
2021-02-10 11:15 3.53 1590 5090 (1950) 413 (1963) 1730 498 579 696 749 1170 2620 2930 3670 4010
2021-02-10 10:15 3.55 1600 5090 (1950) 413 (1963) 1730 498 579 696 749 1170 2620 2930 3670 4010
2021-02-10 09:15 3.56 1600 5090 (1950) 413 (1963) 1730 498 579 696 749 1170 2620 2930 3670 4010
2021-02-10 08:15 3.56 1600 5090 (1950) 413 (1963) 1730 498 579 696 749 1170 2620 2930 3670 4010
2021-02-10 07:15 3.58 1610 5090 (1950) 413 (1963) 1730 498 579 696 749 1170 2620 2930 3670 4010
2021-02-10 06:15 3.59 1610 5090 (1950) 413 (1963) 1730 498 579 696 749 1170 2620 2930 3670 4010
2021-02-10 05:15 3.61 1620 5090 (1950) 413 (1963) 1730 498 579 696 749 1170 2620 2930 3670 4010
2021-02-10 04:15 3.62 1630 5090 (1950) 413 (1963) 1730 498 579 696 749 1170 2620 2930 3670 4010
2021-02-10 03:15 3.63 1630 5090 (1950) 413 (1963) 1730 498 579 696 749 1170 2620 2930 3670 4010
2021-02-10 02:15 3.63 1630 5090 (1950) 413 (1963) 1730 498 579 696 749 1170 2620 2930 3670 4010
2021-02-10 01:15 3.66 1640 5090 (1950) 413 (1963) 1730 498 579 696 749 1170 2620 2930 3670 4010
2021-02-10 00:15 3.67 1640 5090 (1950) 413 (1963) 1730 498 579 696 749 1170 2620 2930 3670 4010
2021-02-09 23:15 3.68 1650 4930 (1950) 386 (1963) 1720 495 567 704 770 1230 2710 3000 3570 4020
2021-02-09 22:15 3.70 1660 4930 (1950) 386 (1963) 1720 495 567 704 770 1230 2710 3000 3570 4020
2021-02-09 21:15 3.70 1660 4930 (1950) 386 (1963) 1720 495 567 704 770 1230 2710 3000 3570 4020
2021-02-09 20:15 3.73 1670 4930 (1950) 386 (1963) 1720 495 567 704 770 1230 2710 3000 3570 4020
2021-02-09 19:15 3.75 1670 4930 (1950) 386 (1963) 1720 495 567 704 770 1230 2710 3000 3570 4020
2021-02-09 18:15 3.77 1680 4930 (1950) 386 (1963) 1720 495 567 704 770 1230 2710 3000 3570 4020
2021-02-09 17:15 3.79 1690 4930 (1950) 386 (1963) 1720 495 567 704 770 1230 2710 3000 3570 4020
2021-02-09 16:15 3.82 1700 4930 (1950) 386 (1963) 1720 495 567 704 770 1230 2710 3000 3570 4020
2021-02-09 15:15 3.84 1710 4930 (1950) 386 (1963) 1720 495 567 704 770 1230 2710 3000 3570 4020
2021-02-09 14:15 3.88 1720 4930 (1950) 386 (1963) 1720 495 567 704 770 1230 2710 3000 3570 4020
2021-02-09 13:15 3.91 1740 4930 (1950) 386 (1963) 1720 495 567 704 770 1230 2710 3000 3570 4020
2021-02-09 12:15 3.94 1750 4930 (1950) 386 (1963) 1720 495 567 704 770 1230 2710 3000 3570 4020
2021-02-09 11:15 3.97 1760 4930 (1950) 386 (1963) 1720 495 567 704 770 1230 2710 3000 3570 4020
2021-02-09 10:15 4.01 1770 4930 (1950) 386 (1963) 1720 495 567 704 770 1230 2710 3000 3570 4020
2021-02-09 09:15 4.04 1790 4930 (1950) 386 (1963) 1720 495 567 704 770 1230 2710 3000 3570 4020
2021-02-09 08:15 4.08 1800 4930 (1950) 386 (1963) 1720 495 567 704 770 1230 2710 3000 3570 4020
2021-02-09 07:15 4.12 1820 4930 (1950) 386 (1963) 1720 495 567 704 770 1230 2710 3000 3570 4020
2021-02-09 06:15 4.17 1830 4930 (1950) 386 (1963) 1720 495 567 704 770 1230 2710 3000 3570 4020
2021-02-09 05:15 4.22 1850 4930 (1950) 386 (1963) 1720 495 567 704 770 1230 2710 3000 3570 4020
2021-02-09 04:15 4.26 1870 4930 (1950) 386 (1963) 1720 495 567 704 770 1230 2710 3000 3570 4020
2021-02-09 03:15 4.29 1880 4930 (1950) 386 (1963) 1720 495 567 704 770 1230 2710 3000 3570 4020
2021-02-09 02:15 4.32 1890 4930 (1950) 386 (1963) 1720 495 567 704 770 1230 2710 3000 3570 4020
2021-02-09 01:15 4.34 1900 4930 (1950) 386 (1963) 1720 495 567 704 770 1230 2710 3000 3570 4020
2021-02-09 00:15 4.36 1910 4930 (1950) 386 (1963) 1720 495 567 704 770 1230 2710 3000 3570 4020
2021-02-08 23:15 4.36 1910 4820 (1950) 381 (1963) 1740 455 509 664 732 1220 2750 3050 3810 4390
2021-02-08 22:15 4.38 1920 4820 (1950) 381 (1963) 1740 455 509 664 732 1220 2750 3050 3810 4390
2021-02-08 21:15 4.37 1910 4820 (1950) 381 (1963) 1740 455 509 664 732 1220 2750 3050 3810 4390
2021-02-08 20:15 4.39 1920 4820 (1950) 381 (1963) 1740 455 509 664 732 1220 2750 3050 3810 4390
2021-02-08 19:15 4.39 1920 4820 (1950) 381 (1963) 1740 455 509 664 732 1220 2750 3050 3810 4390
2021-02-08 18:15 4.39 1920 4820 (1950) 381 (1963) 1740 455 509 664 732 1220 2750 3050 3810 4390
2021-02-08 17:15 4.41 1930 4820 (1950) 381 (1963) 1740 455 509 664 732 1220 2750 3050 3810 4390
2021-02-08 16:15 4.41 1930 4820 (1950) 381 (1963) 1740 455 509 664 732 1220 2750 3050 3810 4390
2021-02-08 15:15 4.42 1930 4820 (1950) 381 (1963) 1740 455 509 664 732 1220 2750 3050 3810 4390
2021-02-08 14:15 4.43 1930 4820 (1950) 381 (1963) 1740 455 509 664 732 1220 2750 3050 3810 4390
2021-02-08 13:15 4.43 1930 4820 (1950) 381 (1963) 1740 455 509 664 732 1220 2750 3050 3810 4390
2021-02-08 12:15 4.43 1930 4820 (1950) 381 (1963) 1740 455 509 664 732 1220 2750 3050 3810 4390
2021-02-08 11:15 4.45 1940 4820 (1950) 381 (1963) 1740 455 509 664 732 1220 2750 3050 3810 4390
2021-02-08 10:15 4.46 1950 4820 (1950) 381 (1963) 1740 455 509 664 732 1220 2750 3050 3810 4390
2021-02-08 09:15 4.47 1950 4820 (1950) 381 (1963) 1740 455 509 664 732 1220 2750 3050 3810 4390
2021-02-08 08:15 4.48 1950 4820 (1950) 381 (1963) 1740 455 509 664 732 1220 2750 3050 3810 4390
2021-02-08 07:15 4.48 1950 4820 (1950) 381 (1963) 1740 455 509 664 732 1220 2750 3050 3810 4390
2021-02-08 06:15 4.50 1960 4820 (1950) 381 (1963) 1740 455 509 664 732 1220 2750 3050 3810 4390
2021-02-08 05:15 4.50 1960 4820 (1950) 381 (1963) 1740 455 509 664 732 1220 2750 3050 3810 4390
2021-02-08 04:15 4.51 1970 4820 (1950) 381 (1963) 1740 455 509 664 732 1220 2750 3050 3810 4390
2021-02-08 03:15 4.52 1970 4820 (1950) 381 (1963) 1740 455 509 664 732 1220 2750 3050 3810 4390
2021-02-08 02:15 4.53 1970 4820 (1950) 381 (1963) 1740 455 509 664 732 1220 2750 3050 3810 4390
2021-02-08 01:15 4.55 1980 4820 (1950) 381 (1963) 1740 455 509 664 732 1220 2750 3050 3810 4390
2021-02-08 00:15 4.57 1990 4820 (1950) 381 (1963) 1740 455 509 664 732 1220 2750 3050 3810 4390
2021-02-07 23:15 4.58 1990 4720 (1949) 381 (1963) 1700 449 477 682 748 1160 2880 3100 3660 3970
2021-02-07 22:15 4.59 2000 4720 (1949) 381 (1963) 1700 449 477 682 748 1160 2880 3100 3660 3970
2021-02-07 21:15 4.62 2010 4720 (1949) 381 (1963) 1700 449 477 682 748 1160 2880 3100 3660 3970
2021-02-07 20:15 4.63 2010 4720 (1949) 381 (1963) 1700 449 477 682 748 1160 2880 3100 3660 3970
2021-02-07 19:15 4.64 2020 4720 (1949) 381 (1963) 1700 449 477 682 748 1160 2880 3100 3660 3970
2021-02-07 18:15 4.65 2020 4720 (1949) 381 (1963) 1700 449 477 682 748 1160 2880 3100 3660 3970
2021-02-07 17:15 4.67 2030 4720 (1949) 381 (1963) 1700 449 477 682 748 1160 2880 3100 3660 3970
2021-02-07 16:15 4.70 2040 4720 (1949) 381 (1963) 1700 449 477 682 748 1160 2880 3100 3660 3970
2021-02-07 15:15 4.71 2040 4720 (1949) 381 (1963) 1700 449 477 682 748 1160 2880 3100 3660 3970
2021-02-07 14:15 4.72 2050 4720 (1949) 381 (1963) 1700 449 477 682 748 1160 2880 3100 3660 3970
2021-02-07 13:15 4.75 2060 4720 (1949) 381 (1963) 1700 449 477 682 748 1160 2880 3100 3660 3970
2021-02-07 12:15 4.76 2060 4720 (1949) 381 (1963) 1700 449 477 682 748 1160 2880 3100 3660 3970
2021-02-07 10:15 4.81 2080 4720 (1949) 381 (1963) 1700 449 477 682 748 1160 2880 3100 3660 3970
2021-02-07 09:15 4.83 2090 4720 (1949) 381 (1963) 1700 449 477 682 748 1160 2880 3100 3660 3970
2021-02-07 08:15 4.86 2100 4720 (1949) 381 (1963) 1700 449 477 682 748 1160 2880 3100 3660 3970
2021-02-07 07:15 4.88 2110 4720 (1949) 381 (1963) 1700 449 477 682 748 1160 2880 3100 3660 3970
2021-02-07 06:15 4.90 2120 4720 (1949) 381 (1963) 1700 449 477 682 748 1160 2880 3100 3660 3970
2021-02-07 05:15 4.94 2130 4720 (1949) 381 (1963) 1700 449 477 682 748 1160 2880 3100 3660 3970
2021-02-07 04:15 4.95 2140 4720 (1949) 381 (1963) 1700 449 477 682 748 1160 2880 3100 3660 3970
2021-02-07 03:15 4.99 2150 4720 (1949) 381 (1963) 1700 449 477 682 748 1160 2880 3100 3660 3970
2021-02-07 02:15 5.01 2160 4720 (1949) 381 (1963) 1700 449 477 682 748 1160 2880 3100 3660 3970
2021-02-07 01:15 5.05 2170 4720 (1949) 381 (1963) 1700 449 477 682 748 1160 2880 3100 3660 3970
2021-02-07 00:15 5.09 2190 4720 (1949) 381 (1963) 1700 449 477 682 748 1160 2880 3100 3660 3970
2021-02-06 23:15 5.13 2210 4570 (1949) 381 (1963) 1610 451 489 669 712 1170 2470 2680 3730 3930
2021-02-06 22:15 5.17 2220 4570 (1949) 381 (1963) 1610 451 489 669 712 1170 2470 2680 3730 3930
2021-02-06 21:15 5.22 2240 4570 (1949) 381 (1963) 1610 451 489 669 712 1170 2470 2680 3730 3930
2021-02-06 20:15 5.26 2260 4570 (1949) 381 (1963) 1610 451 489 669 712 1170 2470 2680 3730 3930
2021-02-06 19:15 5.31 2280 4570 (1949) 381 (1963) 1610 451 489 669 712 1170 2470 2680 3730 3930
2021-02-06 18:15 5.37 2300 4570 (1949) 381 (1963) 1610 451 489 669 712 1170 2470 2680 3730 3930
2021-02-06 17:15 5.44 2330 4570 (1949) 381 (1963) 1610 451 489 669 712 1170 2470 2680 3730 3930
2021-02-06 16:15 5.50 2350 4570 (1949) 381 (1963) 1610 451 489 669 712 1170 2470 2680 3730 3930
2021-02-06 15:15 5.58 2380 4570 (1949) 381 (1963) 1610 451 489 669 712 1170 2470 2680 3730 3930
2021-02-06 14:15 5.66 2410 4570 (1949) 381 (1963) 1610 451 489 669 712 1170 2470 2680 3730 3930
2021-02-06 13:15 5.75 2450 4570 (1949) 381 (1963) 1610 451 489 669 712 1170 2470 2680 3730 3930
2021-02-06 12:15 5.84 2480 4570 (1949) 381 (1963) 1610 451 489 669 712 1170 2470 2680 3730 3930
2021-02-06 11:15 5.94 2520 4570 (1949) 381 (1963) 1610 451 489 669 712 1170 2470 2680 3730 3930
2021-02-06 10:15 6.02 2550 4570 (1949) 381 (1963) 1610 451 489 669 712 1170 2470 2680 3730 3930
2021-02-06 09:15 6.10 2580 4570 (1949) 381 (1963) 1610 451 489 669 712 1170 2470 2680 3730 3930
2021-02-06 08:15 6.18 2620 4570 (1949) 381 (1963) 1610 451 489 669 712 1170 2470 2680 3730 3930
2021-02-06 07:15 6.25 2640 4570 (1949) 381 (1963) 1610 451 489 669 712 1170 2470 2680 3730 3930
2021-02-06 06:15 6.31 2670 4570 (1949) 381 (1963) 1610 451 489 669 712 1170 2470 2680 3730 3930
2021-02-06 05:15 6.36 2690 4570 (1949) 381 (1963) 1610 451 489 669 712 1170 2470 2680 3730 3930
2021-02-06 04:15 6.39 2700 4570 (1949) 381 (1963) 1610 451 489 669 712 1170 2470 2680 3730 3930
2021-02-06 03:15 6.44 2720 4570 (1949) 381 (1963) 1610 451 489 669 712 1170 2470 2680 3730 3930
2021-02-06 02:15 6.47 2730 4570 (1949) 381 (1963) 1610 451 489 669 712 1170 2470 2680 3730 3930
2021-02-06 01:15 6.51 2750 4570 (1949) 381 (1963) 1610 451 489 669 712 1170 2470 2680 3730 3930
2021-02-06 00:15 6.55 2760 4570 (1949) 381 (1963) 1610 451 489 669 712 1170 2470 2680 3730 3930
2021-02-05 23:15 6.58 2770 4980 (2020) 381 (1963) 1540 440 503 594 718 1100 2030 2640 3460 3920
2021-02-05 22:15 6.64 2800 4980 (2020) 381 (1963) 1540 440 503 594 718 1100 2030 2640 3460 3920
2021-02-05 21:15 6.68 2810 4980 (2020) 381 (1963) 1540 440 503 594 718 1100 2030 2640 3460 3920
2021-02-05 20:15 6.73 2830 4980 (2020) 381 (1963) 1540 440 503 594 718 1100 2030 2640 3460 3920
2021-02-05 19:15 6.78 2850 4980 (2020) 381 (1963) 1540 440 503 594 718 1100 2030 2640 3460 3920
2021-02-05 18:15 6.85 2880 4980 (2020) 381 (1963) 1540 440 503 594 718 1100 2030 2640 3460 3920
2021-02-05 17:15 6.91 2900 4980 (2020) 381 (1963) 1540 440 503 594 718 1100 2030 2640 3460 3920
2021-02-05 16:15 6.99 2940 4980 (2020) 381 (1963) 1540 440 503 594 718 1100 2030 2640 3460 3920
2021-02-05 15:15 7.05 2960 4980 (2020) 381 (1963) 1540 440 503 594 718 1100 2030 2640 3460 3920
2021-02-05 14:15 7.14 2990 4980 (2020) 381 (1963) 1540 440 503 594 718 1100 2030 2640 3460 3920
2021-02-05 13:15 7.24 3030 4980 (2020) 381 (1963) 1540 440 503 594 718 1100 2030 2640 3460 3920
2021-02-05 12:15 7.33 3070 4980 (2020) 381 (1963) 1540 440 503 594 718 1100 2030 2640 3460 3920
2021-02-05 11:15 7.42 3110 4980 (2020) 381 (1963) 1540 440 503 594 718 1100 2030 2640 3460 3920
2021-02-05 10:15 7.53 3150 4980 (2020) 381 (1963) 1540 440 503 594 718 1100 2030 2640 3460 3920
2021-02-05 09:15 7.64 3190 4980 (2020) 381 (1963) 1540 440 503 594 718 1100 2030 2640 3460 3920
2021-02-05 08:15 7.74 3230 4980 (2020) 381 (1963) 1540 440 503 594 718 1100 2030 2640 3460 3920
2021-02-05 07:15 7.86 3280 4980 (2020) 381 (1963) 1540 440 503 594 718 1100 2030 2640 3460 3920
2021-02-05 06:15 7.97 3330 4980 (2020) 381 (1963) 1540 440 503 594 718 1100 2030 2640 3460 3920
2021-02-05 05:15 8.07 3370 4980 (2020) 381 (1963) 1540 440 503 594 718 1100 2030 2640 3460 3920
2021-02-05 04:15 8.17 3410 4980 (2020) 381 (1963) 1540 440 503 594 718 1100 2030 2640 3460 3920
2021-02-05 03:15 8.27 3450 4980 (2020) 381 (1963) 1540 440 503 594 718 1100 2030 2640 3460 3920
2021-02-05 02:15 8.34 3470 4980 (2020) 381 (1963) 1540 440 503 594 718 1100 2030 2640 3460 3920
2021-02-05 01:15 8.42 3510 4980 (2020) 381 (1963) 1540 440 503 594 718 1100 2030 2640 3460 3920
2021-02-05 00:15 8.46 3520 4980 (2020) 381 (1963) 1540 440 503 594 718 1100 2030 2640 3460 3920
2021-02-04 23:15 8.48 3530 5410 (1989) 381 (1963) 1520 431 500 627 743 1110 1940 2140 3300 4400
2021-02-04 22:15 8.51 3540 5410 (1989) 381 (1963) 1520 431 500 627 743 1110 1940 2140 3300 4400
2021-02-04 21:15 8.52 3550 5410 (1989) 381 (1963) 1520 431 500 627 743 1110 1940 2140 3300 4400
2021-02-04 20:15 8.53 3550 5410 (1989) 381 (1963) 1520 431 500 627 743 1110 1940 2140 3300 4400
2021-02-04 19:15 8.54 3550 5410 (1989) 381 (1963) 1520 431 500 627 743 1110 1940 2140 3300 4400
2021-02-04 18:15 8.54 3550 5410 (1989) 381 (1963) 1520 431 500 627 743 1110 1940 2140 3300 4400
2021-02-04 17:15 8.55 3560 5410 (1989) 381 (1963) 1520 431 500 627 743 1110 1940 2140 3300 4400
2021-02-04 16:15 8.57 3570 5410 (1989) 381 (1963) 1520 431 500 627 743 1110 1940 2140 3300 4400
2021-02-04 15:15 8.57 3570 5410 (1989) 381 (1963) 1520 431 500 627 743 1110 1940 2140 3300 4400
2021-02-04 14:15 8.58 3570 5410 (1989) 381 (1963) 1520 431 500 627 743 1110 1940 2140 3300 4400
2021-02-04 13:15 8.61 3580 5410 (1989) 381 (1963) 1520 431 500 627 743 1110 1940 2140 3300 4400
2021-02-04 12:15 8.61 3580 5410 (1989) 381 (1963) 1520 431 500 627 743 1110 1940 2140 3300 4400
2021-02-04 11:15 8.63 3590 5410 (1989) 381 (1963) 1520 431 500 627 743 1110 1940 2140 3300 4400
2021-02-04 10:15 8.66 3600 5410 (1989) 381 (1963) 1520 431 500 627 743 1110 1940 2140 3300 4400
2021-02-04 09:15 8.68 3610 5410 (1989) 381 (1963) 1520 431 500 627 743 1110 1940 2140 3300 4400
2021-02-04 08:15 8.70 3620 5410 (1989) 381 (1963) 1520 431 500 627 743 1110 1940 2140 3300 4400
2021-02-04 07:15 8.72 3630 5410 (1989) 381 (1963) 1520 431 500 627 743 1110 1940 2140 3300 4400
2021-02-04 06:15 8.74 3630 5410 (1989) 381 (1963) 1520 431 500 627 743 1110 1940 2140 3300 4400
2021-02-04 05:15 8.76 3640 5410 (1989) 381 (1963) 1520 431 500 627 743 1110 1940 2140 3300 4400
2021-02-04 04:15 8.79 3650 5410 (1989) 381 (1963) 1520 431 500 627 743 1110 1940 2140 3300 4400
2021-02-04 03:15 8.81 3660 5410 (1989) 381 (1963) 1520 431 500 627 743 1110 1940 2140 3300 4400
2021-02-04 02:15 8.82 3670 5410 (1989) 381 (1963) 1520 431 500 627 743 1110 1940 2140 3300 4400
2021-02-04 01:15 8.83 3670 5410 (1989) 381 (1963) 1520 431 500 627 743 1110 1940 2140 3300 4400
2021-02-04 00:15 8.85 3680 5410 (1989) 381 (1963) 1520 431 500 627 743 1110 1940 2140 3300 4400
2021-02-03 23:15 8.84 3670 5180 (1989) 389 (1963) 1510 442 497 619 747 1030 1940 2200 3550 4090
2021-02-03 22:15 8.83 3670 5180 (1989) 389 (1963) 1510 442 497 619 747 1030 1940 2200 3550 4090
2021-02-03 21:15 8.83 3670 5180 (1989) 389 (1963) 1510 442 497 619 747 1030 1940 2200 3550 4090
2021-02-03 20:15 8.80 3660 5180 (1989) 389 (1963) 1510 442 497 619 747 1030 1940 2200 3550 4090
2021-02-03 19:15 8.79 3650 5180 (1989) 389 (1963) 1510 442 497 619 747 1030 1940 2200 3550 4090
2021-02-03 18:15 8.78 3650 5180 (1989) 389 (1963) 1510 442 497 619 747 1030 1940 2200 3550 4090
2021-02-03 17:15 8.75 3640 5180 (1989) 389 (1963) 1510 442 497 619 747 1030 1940 2200 3550 4090
2021-02-03 16:15 8.73 3630 5180 (1989) 389 (1963) 1510 442 497 619 747 1030 1940 2200 3550 4090
2021-02-03 15:15 8.69 3610 5180 (1989) 389 (1963) 1510 442 497 619 747 1030 1940 2200 3550 4090
2021-02-03 14:15 8.67 3610 5180 (1989) 389 (1963) 1510 442 497 619 747 1030 1940 2200 3550 4090
2021-02-03 13:15 8.63 3590 5180 (1989) 389 (1963) 1510 442 497 619 747 1030 1940 2200 3550 4090
2021-02-03 12:15 8.60 3580 5180 (1989) 389 (1963) 1510 442 497 619 747 1030 1940 2200 3550 4090
2021-02-03 11:15 8.57 3570 5180 (1989) 389 (1963) 1510 442 497 619 747 1030 1940 2200 3550 4090
2021-02-03 10:15 8.53 3550 5180 (1989) 389 (1963) 1510 442 497 619 747 1030 1940 2200 3550 4090
2021-02-03 09:15 8.48 3530 5180 (1989) 389 (1963) 1510 442 497 619 747 1030 1940 2200 3550 4090
2021-02-03 08:15 8.45 3520 5180 (1989) 389 (1963) 1510 442 497 619 747 1030 1940 2200 3550 4090
2021-02-03 07:15 8.40 3500 5180 (1989) 389 (1963) 1510 442 497 619 747 1030 1940 2200 3550 4090
2021-02-03 06:15 8.37 3490 5180 (1989) 389 (1963) 1510 442 497 619 747 1030 1940 2200 3550 4090
2021-02-03 05:15 8.32 3470 5180 (1989) 389 (1963) 1510 442 497 619 747 1030 1940 2200 3550 4090
2021-02-03 04:15 8.27 3450 5180 (1989) 389 (1963) 1510 442 497 619 747 1030 1940 2200 3550 4090
2021-02-03 03:15 8.25 3440 5180 (1989) 389 (1963) 1510 442 497 619 747 1030 1940 2200 3550 4090
2021-02-03 02:15 8.21 3420 5180 (1989) 389 (1963) 1510 442 497 619 747 1030 1940 2200 3550 4090
2021-02-03 01:15 8.21 3420 5180 (1989) 389 (1963) 1510 442 497 619 747 1030 1940 2200 3550 4090
2021-02-03 00:15 8.19 3410 5180 (1989) 389 (1963) 1510 442 497 619 747 1030 1940 2200 3550 4090
2021-02-02 23:15 8.17 3410 6750 (1982) 416 (1963) 1550 456 502 627 704 1030 1890 2190 3480 4040
2021-02-02 22:15 8.16 3400 6750 (1982) 416 (1963) 1550 456 502 627 704 1030 1890 2190 3480 4040
2021-02-02 21:15 8.16 3400 6750 (1982) 416 (1963) 1550 456 502 627 704 1030 1890 2190 3480 4040
2021-02-02 20:15 8.16 3400 6750 (1982) 416 (1963) 1550 456 502 627 704 1030 1890 2190 3480 4040
2021-02-02 19:15 8.17 3410 6750 (1982) 416 (1963) 1550 456 502 627 704 1030 1890 2190 3480 4040
2021-02-02 18:15 8.17 3410 6750 (1982) 416 (1963) 1550 456 502 627 704 1030 1890 2190 3480 4040
2021-02-02 17:15 8.18 3410 6750 (1982) 416 (1963) 1550 456 502 627 704 1030 1890 2190 3480 4040
2021-02-02 16:15 8.18 3410 6750 (1982) 416 (1963) 1550 456 502 627 704 1030 1890 2190 3480 4040
2021-02-02 15:15 8.16 3400 6750 (1982) 416 (1963) 1550 456 502 627 704 1030 1890 2190 3480 4040
2021-02-02 14:15 8.17 3410 6750 (1982) 416 (1963) 1550 456 502 627 704 1030 1890 2190 3480 4040
2021-02-02 13:15 8.16 3400 6750 (1982) 416 (1963) 1550 456 502 627 704 1030 1890 2190 3480 4040
2021-02-02 12:15 8.15 3400 6750 (1982) 416 (1963) 1550 456 502 627 704 1030 1890 2190 3480 4040
2021-02-02 11:15 8.16 3400 6750 (1982) 416 (1963) 1550 456 502 627 704 1030 1890 2190 3480 4040
2021-02-02 10:15 8.16 3400 6750 (1982) 416 (1963) 1550 456 502 627 704 1030 1890 2190 3480 4040
2021-02-02 09:15 8.15 3400 6750 (1982) 416 (1963) 1550 456 502 627 704 1030 1890 2190 3480 4040
2021-02-02 08:15 8.13 3390 6750 (1982) 416 (1963) 1550 456 502 627 704 1030 1890 2190 3480 4040
2021-02-02 07:15 8.14 3390 6750 (1982) 416 (1963) 1550 456 502 627 704 1030 1890 2190 3480 4040
2021-02-02 06:15 8.11 3380 6750 (1982) 416 (1963) 1550 456 502 627 704 1030 1890 2190 3480 4040
2021-02-02 05:15 8.09 3370 6750 (1982) 416 (1963) 1550 456 502 627 704 1030 1890 2190 3480 4040
2021-02-02 04:15 8.08 3370 6750 (1982) 416 (1963) 1550 456 502 627 704 1030 1890 2190 3480 4040
2021-02-02 03:15 8.06 3360 6750 (1982) 416 (1963) 1550 456 502 627 704 1030 1890 2190 3480 4040
2021-02-02 02:15 8.03 3350 6750 (1982) 416 (1963) 1550 456 502 627 704 1030 1890 2190 3480 4040
2021-02-02 01:15 8.01 3340 6750 (1982) 416 (1963) 1550 456 502 627 704 1030 1890 2190 3480 4040
2021-02-02 00:15 7.97 3330 6750 (1982) 416 (1963) 1550 456 502 627 704 1030 1890 2190 3480 4040
2021-02-01 23:15 7.94 3310 17100 (1982) 394 (1956) 1680 445 474 604 653 1050 1850 2030 3800 4700
2021-02-01 22:15 7.89 3290 17100 (1982) 394 (1956) 1680 445 474 604 653 1050 1850 2030 3800 4700
2021-02-01 21:15 7.87 3290 17100 (1982) 394 (1956) 1680 445 474 604 653 1050 1850 2030 3800 4700
2021-02-01 20:15 7.81 3260 17100 (1982) 394 (1956) 1680 445 474 604 653 1050 1850 2030 3800 4700
2021-02-01 19:15 7.74 3230 17100 (1982) 394 (1956) 1680 445 474 604 653 1050 1850 2030 3800 4700
2021-02-01 18:15 7.68 3210 17100 (1982) 394 (1956) 1680 445 474 604 653 1050 1850 2030 3800 4700
2021-02-01 17:15 7.62 3190 17100 (1982) 394 (1956) 1680 445 474 604 653 1050 1850 2030 3800 4700
2021-02-01 16:15 7.54 3150 17100 (1982) 394 (1956) 1680 445 474 604 653 1050 1850 2030 3800 4700
2021-02-01 15:15 7.45 3120 17100 (1982) 394 (1956) 1680 445 474 604 653 1050 1850 2030 3800 4700
2021-02-01 14:15 7.39 3090 17100 (1982) 394 (1956) 1680 445 474 604 653 1050 1850 2030 3800 4700
2021-02-01 13:15 7.32 3070 17100 (1982) 394 (1956) 1680 445 474 604 653 1050 1850 2030 3800 4700
2021-02-01 12:15 7.23 3030 17100 (1982) 394 (1956) 1680 445 474 604 653 1050 1850 2030 3800 4700
2021-02-01 11:15 7.15 3000 17100 (1982) 394 (1956) 1680 445 474 604 653 1050 1850 2030 3800 4700
2021-02-01 10:15 7.11 2980 17100 (1982) 394 (1956) 1680 445 474 604 653 1050 1850 2030 3800 4700
2021-02-01 09:15 7.06 2960 17100 (1982) 394 (1956) 1680 445 474 604 653 1050 1850 2030 3800 4700
2021-02-01 08:15 7.03 2950 17100 (1982) 394 (1956) 1680 445 474 604 653 1050 1850 2030 3800 4700
2021-02-01 07:15 7.03 2950 17100 (1982) 394 (1956) 1680 445 474 604 653 1050 1850 2030 3800 4700
2021-02-01 06:15 7.03 2950 17100 (1982) 394 (1956) 1680 445 474 604 653 1050 1850 2030 3800 4700
2021-02-01 05:15 7.04 2950 17100 (1982) 394 (1956) 1680 445 474 604 653 1050 1850 2030 3800 4700
2021-02-01 04:15 7.06 2960 17100 (1982) 394 (1956) 1680 445 474 604 653 1050 1850 2030 3800 4700
2021-02-01 03:15 7.10 2980 17100 (1982) 394 (1956) 1680 445 474 604 653 1050 1850 2030 3800 4700
2021-02-01 02:15 7.13 2990 17100 (1982) 394 (1956) 1680 445 474 604 653 1050 1850 2030 3800 4700
2021-02-01 01:15 7.14 2990 17100 (1982) 394 (1956) 1680 445 474 604 653 1050 1850 2030 3800 4700
2021-02-01 00:15 7.16 3000 17100 (1982) 394 (1956) 1680 445 474 604 653 1050 1850 2030 3800 4700
2021-01-31 23:15 7.17 3010 11200 (1969) 334 (1956) 1630 429 480 610 662 1050 1730 1970 3730 4270
2021-01-31 22:15 7.18 3010 11200 (1969) 334 (1956) 1630 429 480 610 662 1050 1730 1970 3730 4270
2021-01-31 21:15 7.16 3000 11200 (1969) 334 (1956) 1630 429 480 610 662 1050 1730 1970 3730 4270
2021-01-31 20:15 7.16 3000 11200 (1969) 334 (1956) 1630 429 480 610 662 1050 1730 1970 3730 4270
2021-01-31 19:15 7.14 2990 11200 (1969) 334 (1956) 1630 429 480 610 662 1050 1730 1970 3730 4270
2021-01-31 18:15 7.12 2990 11200 (1969) 334 (1956) 1630 429 480 610 662 1050 1730 1970 3730 4270
2021-01-31 17:15 7.07 2970 11200 (1969) 334 (1956) 1630 429 480 610 662 1050 1730 1970 3730 4270
2021-01-31 16:15 7.05 2960 11200 (1969) 334 (1956) 1630 429 480 610 662 1050 1730 1970 3730 4270
2021-01-31 15:15 7.02 2950 11200 (1969) 334 (1956) 1630 429 480 610 662 1050 1730 1970 3730 4270
2021-01-31 14:15 6.99 2940 11200 (1969) 334 (1956) 1630 429 480 610 662 1050 1730 1970 3730 4270
2021-01-31 13:15 6.95 2920 11200 (1969) 334 (1956) 1630 429 480 610 662 1050 1730 1970 3730 4270
2021-01-31 12:15 6.93 2910 11200 (1969) 334 (1956) 1630 429 480 610 662 1050 1730 1970 3730 4270
2021-01-31 11:15 6.91 2900 11200 (1969) 334 (1956) 1630 429 480 610 662 1050 1730 1970 3730 4270
2021-01-31 10:15 6.88 2890 11200 (1969) 334 (1956) 1630 429 480 610 662 1050 1730 1970 3730 4270
2021-01-31 09:15 6.88 2890 11200 (1969) 334 (1956) 1630 429 480 610 662 1050 1730 1970 3730 4270
2021-01-31 08:15 6.87 2890 11200 (1969) 334 (1956) 1630 429 480 610 662 1050 1730 1970 3730 4270
2021-01-31 07:15 6.84 2880 11200 (1969) 334 (1956) 1630 429 480 610 662 1050 1730 1970 3730 4270
2021-01-31 06:15 6.82 2870 11200 (1969) 334 (1956) 1630 429 480 610 662 1050 1730 1970 3730 4270
2021-01-31 05:15 6.79 2860 11200 (1969) 334 (1956) 1630 429 480 610 662 1050 1730 1970 3730 4270
2021-01-31 04:15 6.76 2840 11200 (1969) 334 (1956) 1630 429 480 610 662 1050 1730 1970 3730 4270
2021-01-31 03:15 6.72 2830 11200 (1969) 334 (1956) 1630 429 480 610 662 1050 1730 1970 3730 4270
2021-01-31 02:15 6.66 2800 11200 (1969) 334 (1956) 1630 429 480 610 662 1050 1730 1970 3730 4270
2021-01-31 01:15 6.59 2780 11200 (1969) 334 (1956) 1630 429 480 610 662 1050 1730 1970 3730 4270
2021-01-31 00:15 6.53 2750 11200 (1969) 334 (1956) 1630 429 480 610 662 1050 1730 1970 3730 4270
2021-01-30 23:15 6.48 2730 10300 (1969) 334 (1956) 1570 427 486 592 714 1110 1980 2260 3500 3990
2021-01-30 22:15 6.46 2730 10300 (1969) 334 (1956) 1570 427 486 592 714 1110 1980 2260 3500 3990
2021-01-30 21:15 6.45 2720 10300 (1969) 334 (1956) 1570 427 486 592 714 1110 1980 2260 3500 3990
2021-01-30 20:15 6.45 2720 10300 (1969) 334 (1956) 1570 427 486 592 714 1110 1980 2260 3500 3990
2021-01-30 19:15 6.46 2730 10300 (1969) 334 (1956) 1570 427 486 592 714 1110 1980 2260 3500 3990
2021-01-30 18:15 6.52 2750 10300 (1969) 334 (1956) 1570 427 486 592 714 1110 1980 2260 3500 3990
2021-01-30 17:15 6.52 2750 10300 (1969) 334 (1956) 1570 427 486 592 714 1110 1980 2260 3500 3990
2021-01-30 16:15 6.60 2780 10300 (1969) 334 (1956) 1570 427 486 592 714 1110 1980 2260 3500 3990
2021-01-30 15:15 6.68 2810 10300 (1969) 334 (1956) 1570 427 486 592 714 1110 1980 2260 3500 3990
2021-01-30 14:15 6.80 2860 10300 (1969) 334 (1956) 1570 427 486 592 714 1110 1980 2260 3500 3990
2021-01-30 13:15 6.92 2910 10300 (1969) 334 (1956) 1570 427 486 592 714 1110 1980 2260 3500 3990
2021-01-30 12:15 7.02 2950 10300 (1969) 334 (1956) 1570 427 486 592 714 1110 1980 2260 3500 3990
2021-01-30 11:15 7.14 2990 10300 (1969) 334 (1956) 1570 427 486 592 714 1110 1980 2260 3500 3990
2021-01-30 10:15 7.25 3040 10300 (1969) 334 (1956) 1570 427 486 592 714 1110 1980 2260 3500 3990
2021-01-30 09:15 7.35 3080 10300 (1969) 334 (1956) 1570 427 486 592 714 1110 1980 2260 3500 3990
2021-01-30 08:15 7.44 3110 10300 (1969) 334 (1956) 1570 427 486 592 714 1110 1980 2260 3500 3990
2021-01-30 07:15 7.51 3140 10300 (1969) 334 (1956) 1570 427 486 592 714 1110 1980 2260 3500 3990
2021-01-30 06:15 7.58 3170 10300 (1969) 334 (1956) 1570 427 486 592 714 1110 1980 2260 3500 3990
2021-01-30 05:15 7.63 3190 10300 (1969) 334 (1956) 1570 427 486 592 714 1110 1980 2260 3500 3990
2021-01-30 04:15 7.67 3210 10300 (1969) 334 (1956) 1570 427 486 592 714 1110 1980 2260 3500 3990
2021-01-30 03:15 7.68 3210 10300 (1969) 334 (1956) 1570 427 486 592 714 1110 1980 2260 3500 3990
2021-01-30 02:15 7.70 3220 10300 (1969) 334 (1956) 1570 427 486 592 714 1110 1980 2260 3500 3990
2021-01-30 01:15 7.72 3230 10300 (1969) 334 (1956) 1570 427 486 592 714 1110 1980 2260 3500 3990
2021-01-30 00:15 7.72 3230 10300 (1969) 334 (1956) 1570 427 486 592 714 1110 1980 2260 3500 3990
2021-01-29 23:15 7.72 3230 5830 (1994) 336 (1956) 1620 421 480 609 707 1090 2330 2610 3830 4080
2021-01-29 22:15 7.72 3230 5830 (1994) 336 (1956) 1620 421 480 609 707 1090 2330 2610 3830 4080
2021-01-29 21:15 7.71 3220 5830 (1994) 336 (1956) 1620 421 480 609 707 1090 2330 2610 3830 4080
2021-01-29 20:15 7.73 3230 5830 (1994) 336 (1956) 1620 421 480 609 707 1090 2330 2610 3830 4080
2021-01-29 19:15 7.74 3230 5830 (1994) 336 (1956) 1620 421 480 609 707 1090 2330 2610 3830 4080
2021-01-29 18:15 7.72 3230 5830 (1994) 336 (1956) 1620 421 480 609 707 1090 2330 2610 3830 4080
2021-01-29 17:15 7.73 3230 5830 (1994) 336 (1956) 1620 421 480 609 707 1090 2330 2610 3830 4080
2021-01-29 16:15 7.73 3230 5830 (1994) 336 (1956) 1620 421 480 609 707 1090 2330 2610 3830 4080
2021-01-29 15:15 7.72 3230 5830 (1994) 336 (1956) 1620 421 480 609 707 1090 2330 2610 3830 4080
2021-01-29 14:15 7.73 3230 5830 (1994) 336 (1956) 1620 421 480 609 707 1090 2330 2610 3830 4080
2021-01-29 13:15 7.73 3230 5830 (1994) 336 (1956) 1620 421 480 609 707 1090 2330 2610 3830 4080
2021-01-29 12:15 7.73 3230 5830 (1994) 336 (1956) 1620 421 480 609 707 1090 2330 2610 3830 4080
2021-01-29 11:15 7.72 3230 5830 (1994) 336 (1956) 1620 421 480 609 707 1090 2330 2610 3830 4080
2021-01-29 10:15 7.70 3220 5830 (1994) 336 (1956) 1620 421 480 609 707 1090 2330 2610 3830 4080
2021-01-29 09:15 7.71 3220 5830 (1994) 336 (1956) 1620 421 480 609 707 1090 2330 2610 3830 4080
2021-01-29 08:15 7.70 3220 5830 (1994) 336 (1956) 1620 421 480 609 707 1090 2330 2610 3830 4080
2021-01-29 07:15 7.68 3210 5830 (1994) 336 (1956) 1620 421 480 609 707 1090 2330 2610 3830 4080
2021-01-29 06:15 7.67 3210 5830 (1994) 336 (1956) 1620 421 480 609 707 1090 2330 2610 3830 4080
2021-01-29 05:15 7.65 3200 5830 (1994) 336 (1956) 1620 421 480 609 707 1090 2330 2610 3830 4080
2021-01-29 04:15 7.62 3190 5830 (1994) 336 (1956) 1620 421 480 609 707 1090 2330 2610 3830 4080
2021-01-29 03:15 7.61 3180 5830 (1994) 336 (1956) 1620 421 480 609 707 1090 2330 2610 3830 4080
2021-01-29 02:15 7.58 3170 5830 (1994) 336 (1956) 1620 421 480 609 707 1090 2330 2610 3830 4080
2021-01-29 01:15 7.56 3160 5830 (1994) 336 (1956) 1620 421 480 609 707 1090 2330 2610 3830 4080
2021-01-29 00:15 7.52 3150 5830 (1994) 336 (1956) 1620 421 480 609 707 1090 2330 2610 3830 4080
2021-01-28 23:15 7.49 3130 7540 (1994) 314 (1956) 1720 423 491 621 713 1100 2430 3030 3830 4030
2021-01-28 22:15 7.45 3120 7540 (1994) 314 (1956) 1720 423 491 621 713 1100 2430 3030 3830 4030
2021-01-28 21:15 7.42 3110 7540 (1994) 314 (1956) 1720 423 491 621 713 1100 2430 3030 3830 4030
2021-01-28 20:15 7.36 3080 7540 (1994) 314 (1956) 1720 423 491 621 713 1100 2430 3030 3830 4030
2021-01-28 19:15 7.31 3060 7540 (1994) 314 (1956) 1720 423 491 621 713 1100 2430 3030 3830 4030
2021-01-28 18:15 7.24 3030 7540 (1994) 314 (1956) 1720 423 491 621 713 1100 2430 3030 3830 4030
2021-01-28 17:15 7.19 3010 7540 (1994) 314 (1956) 1720 423 491 621 713 1100 2430 3030 3830 4030
2021-01-28 16:15 7.11 2980 7540 (1994) 314 (1956) 1720 423 491 621 713 1100 2430 3030 3830 4030
2021-01-28 15:15 7.03 2950 7540 (1994) 314 (1956) 1720 423 491 621 713 1100 2430 3030 3830 4030
2021-01-28 14:15 6.96 2920 7540 (1994) 314 (1956) 1720 423 491 621 713 1100 2430 3030 3830 4030
2021-01-28 13:15 6.87 2890 7540 (1994) 314 (1956) 1720 423 491 621 713 1100 2430 3030 3830 4030
2021-01-28 12:15 6.79 2860 7540 (1994) 314 (1956) 1720 423 491 621 713 1100 2430 3030 3830 4030
2021-01-28 11:15 6.71 2820 7540 (1994) 314 (1956) 1720 423 491 621 713 1100 2430 3030 3830 4030
2021-01-28 10:15 6.65 2800 7540 (1994) 314 (1956) 1720 423 491 621 713 1100 2430 3030 3830 4030
2021-01-28 09:15 6.56 2770 7540 (1994) 314 (1956) 1720 423 491 621 713 1100 2430 3030 3830 4030
2021-01-28 08:15 6.49 2740 7540 (1994) 314 (1956) 1720 423 491 621 713 1100 2430 3030 3830 4030
2021-01-28 07:15 6.42 2710 7540 (1994) 314 (1956) 1720 423 491 621 713 1100 2430 3030 3830 4030
2021-01-28 06:15 6.37 2690 7540 (1994) 314 (1956) 1720 423 491 621 713 1100 2430 3030 3830 4030
2021-01-28 05:15 6.32 2670 7540 (1994) 314 (1956) 1720 423 491 621 713 1100 2430 3030 3830 4030
2021-01-28 04:15 6.28 2650 7540 (1994) 314 (1956) 1720 423 491 621 713 1100 2430 3030 3830 4030
2021-01-28 03:15 6.25 2640 7540 (1994) 314 (1956) 1720 423 491 621 713 1100 2430 3030 3830 4030
2021-01-28 02:15 6.20 2620 7540 (1994) 314 (1956) 1720 423 491 621 713 1100 2430 3030 3830 4030
2021-01-28 01:15 6.18 2620 7540 (1994) 314 (1956) 1720 423 491 621 713 1100 2430 3030 3830 4030
2021-01-28 00:15 6.17 2610 7540 (1994) 314 (1956) 1720 423 491 621 713 1100 2430 3030 3830 4030
2021-01-27 23:15 6.17 2610 5920 (1994) 309 (1956) 1780 418 513 619 678 1170 2540 3030 4050 4580
2021-01-27 22:15 6.18 2620 5920 (1994) 309 (1956) 1780 418 513 619 678 1170 2540 3030 4050 4580
2021-01-27 21:15 6.20 2620 5920 (1994) 309 (1956) 1780 418 513 619 678 1170 2540 3030 4050 4580
2021-01-27 20:15 6.21 2630 5920 (1994) 309 (1956) 1780 418 513 619 678 1170 2540 3030 4050 4580
2021-01-27 19:15 6.21 2630 5920 (1994) 309 (1956) 1780 418 513 619 678 1170 2540 3030 4050 4580
2021-01-27 18:15 6.25 2640 5920 (1994) 309 (1956) 1780 418 513 619 678 1170 2540 3030 4050 4580
2021-01-27 17:15 6.26 2650 5920 (1994) 309 (1956) 1780 418 513 619 678 1170 2540 3030 4050 4580
2021-01-27 16:15 6.28 2650 5920 (1994) 309 (1956) 1780 418 513 619 678 1170 2540 3030 4050 4580
2021-01-27 15:15 6.30 2660 5920 (1994) 309 (1956) 1780 418 513 619 678 1170 2540 3030 4050 4580
2021-01-27 14:15 6.32 2670 5920 (1994) 309 (1956) 1780 418 513 619 678 1170 2540 3030 4050 4580
2021-01-27 13:15 6.35 2680 5920 (1994) 309 (1956) 1780 418 513 619 678 1170 2540 3030 4050 4580
2021-01-27 12:15 6.37 2690 5920 (1994) 309 (1956) 1780 418 513 619 678 1170 2540 3030 4050 4580
2021-01-27 11:15 6.39 2700 5920 (1994) 309 (1956) 1780 418 513 619 678 1170 2540 3030 4050 4580
2021-01-27 10:15 6.40 2700 5920 (1994) 309 (1956) 1780 418 513 619 678 1170 2540 3030 4050 4580
2021-01-27 09:15 6.45 2720 5920 (1994) 309 (1956) 1780 418 513 619 678 1170 2540 3030 4050 4580
2021-01-27 08:15 6.46 2730 5920 (1994) 309 (1956) 1780 418 513 619 678 1170 2540 3030 4050 4580
2021-01-27 07:15 6.51 2750 5920 (1994) 309 (1956) 1780 418 513 619 678 1170 2540 3030 4050 4580
2021-01-27 06:15 6.56 2770 5920 (1994) 309 (1956) 1780 418 513 619 678 1170 2540 3030 4050 4580
2021-01-27 05:15 6.61 2780 5920 (1994) 309 (1956) 1780 418 513 619 678 1170 2540 3030 4050 4580
2021-01-27 04:15 6.69 2820 5920 (1994) 309 (1956) 1780 418 513 619 678 1170 2540 3030 4050 4580
2021-01-27 03:15 6.80 2860 5920 (1994) 309 (1956) 1780 418 513 619 678 1170 2540 3030 4050 4580
2021-01-27 02:15 6.92 2910 5920 (1994) 309 (1956) 1780 418 513 619 678 1170 2540 3030 4050 4580
2021-01-27 01:15 7.06 2960 5920 (1994) 309 (1956) 1780 418 513 619 678 1170 2540 3030 4050 4580
2021-01-27 00:15 7.23 3030 5920 (1994) 309 (1956) 1780 418 513 619 678 1170 2540 3030 4050 4580
2021-01-26 23:15 7.41 3100 10400 (1949) 309 (1956) 1820 414 499 622 669 1200 2580 3000 4040 4110
2021-01-26 22:15 7.63 3190 10400 (1949) 309 (1956) 1820 414 499 622 669 1200 2580 3000 4040 4110
2021-01-26 21:15 7.86 3280 10400 (1949) 309 (1956) 1820 414 499 622 669 1200 2580 3000 4040 4110
2021-01-26 20:15 8.08 3370 10400 (1949) 309 (1956) 1820 414 499 622 669 1200 2580 3000 4040 4110
2021-01-26 19:15 8.32 3470 10400 (1949) 309 (1956) 1820 414 499 622 669 1200 2580 3000 4040 4110
2021-01-26 18:15 8.57 3570 10400 (1949) 309 (1956) 1820 414 499 622 669 1200 2580 3000 4040 4110
2021-01-26 17:15 8.82 3670 10400 (1949) 309 (1956) 1820 414 499 622 669 1200 2580 3000 4040 4110
2021-01-26 16:15 9.08 3760 10400 (1949) 309 (1956) 1820 414 499 622 669 1200 2580 3000 4040 4110
2021-01-26 15:15 9.34 3850 10400 (1949) 309 (1956) 1820 414 499 622 669 1200 2580 3000 4040 4110
2021-01-26 14:15 9.58 3940 10400 (1949) 309 (1956) 1820 414 499 622 669 1200 2580 3000 4040 4110
2021-01-26 13:15 9.83 4040 10400 (1949) 309 (1956) 1820 414 499 622 669 1200 2580 3000 4040 4110
2021-01-26 12:15 10.05 4130 10400 (1949) 309 (1956) 1820 414 499 622 669 1200 2580 3000 4040 4110
2021-01-26 11:15 10.28 4220 10400 (1949) 309 (1956) 1820 414 499 622 669 1200 2580 3000 4040 4110
2021-01-26 10:15 10.50 4300 10400 (1949) 309 (1956) 1820 414 499 622 669 1200 2580 3000 4040 4110
2021-01-26 09:15 10.69 4380 10400 (1949) 309 (1956) 1820 414 499 622 669 1200 2580 3000 4040 4110
2021-01-26 08:15 10.86 4440 10400 (1949) 309 (1956) 1820 414 499 622 669 1200 2580 3000 4040 4110
2021-01-26 07:15 10.98 4490 10400 (1949) 309 (1956) 1820 414 499 622 669 1200 2580 3000 4040 4110
2021-01-26 06:15 11.10 4540 10400 (1949) 309 (1956) 1820 414 499 622 669 1200 2580 3000 4040 4110
2021-01-26 05:15 11.17 4560 10400 (1949) 309 (1956) 1820 414 499 622 669 1200 2580 3000 4040 4110
2021-01-26 04:15 11.22 4580 10400 (1949) 309 (1956) 1820 414 499 622 669 1200 2580 3000 4040 4110
2021-01-26 03:15 11.23 4590 10400 (1949) 309 (1956) 1820 414 499 622 669 1200 2580 3000 4040 4110
2021-01-26 02:15 11.23 4590 10400 (1949) 309 (1956) 1820 414 499 622 669 1200 2580 3000 4040 4110
2021-01-26 01:15 11.17 4560 10400 (1949) 309 (1956) 1820 414 499 622 669 1200 2580 3000 4040 4110
2021-01-26 00:15 11.10 4540 10400 (1949) 309 (1956) 1820 414 499 622 669 1200 2580 3000 4040 4110
2021-01-25 23:15 11.02 4510 12800 (1949) 314 (1956) 1880 418 496 608 663 1210 2740 3110 4060 4260
2021-01-25 22:15 10.88 4450 12800 (1949) 314 (1956) 1880 418 496 608 663 1210 2740 3110 4060 4260
2021-01-25 21:15 10.73 4390 12800 (1949) 314 (1956) 1880 418 496 608 663 1210 2740 3110 4060 4260
2021-01-25 20:15 10.51 4310 12800 (1949) 314 (1956) 1880 418 496 608 663 1210 2740 3110 4060 4260
2021-01-25 19:15 10.23 4200 12800 (1949) 314 (1956) 1880 418 496 608 663 1210 2740 3110 4060 4260
2021-01-25 18:15 9.86 4050 12800 (1949) 314 (1956) 1880 418 496 608 663 1210 2740 3110 4060 4260
2021-01-25 17:15 9.43 3890 12800 (1949) 314 (1956) 1880 418 496 608 663 1210 2740 3110 4060 4260
2021-01-25 16:15 8.90 3690 12800 (1949) 314 (1956) 1880 418 496 608 663 1210 2740 3110 4060 4260
2021-01-25 15:15 8.28 3450 12800 (1949) 314 (1956) 1880 418 496 608 663 1210 2740 3110 4060 4260
2021-01-25 14:15 7.59 3170 12800 (1949) 314 (1956) 1880 418 496 608 663 1210 2740 3110 4060 4260
2021-01-25 13:15 6.85 2880 12800 (1949) 314 (1956) 1880 418 496 608 663 1210 2740 3110 4060 4260
2021-01-25 12:15 6.07 2570 12800 (1949) 314 (1956) 1880 418 496 608 663 1210 2740 3110 4060 4260
2021-01-25 11:15 5.25 2250 12800 (1949) 314 (1956) 1880 418 496 608 663 1210 2740 3110 4060 4260
2021-01-25 10:15 4.42 1930 12800 (1949) 314 (1956) 1880 418 496 608 663 1210 2740 3110 4060 4260
2021-01-25 09:15 3.59 1610 12800 (1949) 314 (1956) 1880 418 496 608 663 1210 2740 3110 4060 4260
2021-01-25 08:15 3.02 1400 12800 (1949) 314 (1956) 1880 418 496 608 663 1210 2740 3110 4060 4260
2021-01-25 07:15 2.73 1290 12800 (1949) 314 (1956) 1880 418 496 608 663 1210 2740 3110 4060 4260
2021-01-25 06:15 2.45 1190 12800 (1949) 314 (1956) 1880 418 496 608 663 1210 2740 3110 4060 4260
2021-01-25 05:15 2.12 1060 12800 (1949) 314 (1956) 1880 418 496 608 663 1210 2740 3110 4060 4260
2021-01-25 04:15 1.94 999 12800 (1949) 314 (1956) 1880 418 496 608 663 1210 2740 3110 4060 4260
2021-01-25 03:15 1.84 964 12800 (1949) 314 (1956) 1880 418 496 608 663 1210 2740 3110 4060 4260
2021-01-25 02:15 1.74 930 12800 (1949) 314 (1956) 1880 418 496 608 663 1210 2740 3110 4060 4260
2021-01-25 01:15 1.70 916 12800 (1949) 314 (1956) 1880 418 496 608 663 1210 2740 3110 4060 4260
2021-01-25 00:15 1.69 913 12800 (1949) 314 (1956) 1880 418 496 608 663 1210 2740 3110 4060 4260
2021-01-24 23:15 1.69 913 6490 (1949) 326 (1956) 1900 421 504 621 691 1200 2970 3290 4260 4370
2021-01-24 22:15 1.69 913 6490 (1949) 326 (1956) 1900 421 504 621 691 1200 2970 3290 4260 4370
2021-01-24 21:15 1.69 913 6490 (1949) 326 (1956) 1900 421 504 621 691 1200 2970 3290 4260 4370
2021-01-24 20:15 1.68 910 6490 (1949) 326 (1956) 1900 421 504 621 691 1200 2970 3290 4260 4370
2021-01-24 19:15 1.70 916 6490 (1949) 326 (1956) 1900 421 504 621 691 1200 2970 3290 4260 4370
2021-01-24 18:15 1.68 910 6490 (1949) 326 (1956) 1900 421 504 621 691 1200 2970 3290 4260 4370
2021-01-24 17:15 1.68 910 6490 (1949) 326 (1956) 1900 421 504 621 691 1200 2970 3290 4260 4370
2021-01-24 16:15 1.68 910 6490 (1949) 326 (1956) 1900 421 504 621 691 1200 2970 3290 4260 4370
2021-01-24 15:15 1.69 913 6490 (1949) 326 (1956) 1900 421 504 621 691 1200 2970 3290 4260 4370
2021-01-24 14:15 1.68 910 6490 (1949) 326 (1956) 1900 421 504 621 691 1200 2970 3290 4260 4370
2021-01-24 13:15 1.69 913 6490 (1949) 326 (1956) 1900 421 504 621 691 1200 2970 3290 4260 4370
2021-01-24 12:15 1.68 910 6490 (1949) 326 (1956) 1900 421 504 621 691 1200 2970 3290 4260 4370
2021-01-24 11:15 1.68 910 6490 (1949) 326 (1956) 1900 421 504 621 691 1200 2970 3290 4260 4370
2021-01-24 10:15 1.68 910 6490 (1949) 326 (1956) 1900 421 504 621 691 1200 2970 3290 4260 4370
2021-01-24 09:15 1.69 913 6490 (1949) 326 (1956) 1900 421 504 621 691 1200 2970 3290 4260 4370
2021-01-24 08:15 1.68 910 6490 (1949) 326 (1956) 1900 421 504 621 691 1200 2970 3290 4260 4370
2021-01-24 07:15 1.68 910 6490 (1949) 326 (1956) 1900 421 504 621 691 1200 2970 3290 4260 4370
2021-01-24 06:15 1.68 910 6490 (1949) 326 (1956) 1900 421 504 621 691 1200 2970 3290 4260 4370
2021-01-24 05:15 1.70 916 6490 (1949) 326 (1956) 1900 421 504 621 691 1200 2970 3290 4260 4370
2021-01-24 04:15 1.68 910 6490 (1949) 326 (1956) 1900 421 504 621 691 1200 2970 3290 4260 4370
2021-01-24 03:15 1.68 910 6490 (1949) 326 (1956) 1900 421 504 621 691 1200 2970 3290 4260 4370
2021-01-24 02:15 1.69 913 6490 (1949) 326 (1956) 1900 421 504 621 691 1200 2970 3290 4260 4370
2021-01-24 01:15 1.69 913 6490 (1949) 326 (1956) 1900 421 504 621 691 1200 2970 3290 4260 4370
2021-01-24 00:15 1.69 913 6490 (1949) 326 (1956) 1900 421 504 621 691 1200 2970 3290 4260 4370
2021-01-23 23:15 1.70 916 6190 (1982) 328 (1956) 1900 444 503 632 703 1310 3270 3430 4100 4690
2021-01-23 22:15 1.69 913 6190 (1982) 328 (1956) 1900 444 503 632 703 1310 3270 3430 4100 4690
2021-01-23 21:15 1.70 916 6190 (1982) 328 (1956) 1900 444 503 632 703 1310 3270 3430 4100 4690
2021-01-23 20:15 1.70 916 6190 (1982) 328 (1956) 1900 444 503 632 703 1310 3270 3430 4100 4690
2021-01-23 19:15 1.70 916 6190 (1982) 328 (1956) 1900 444 503 632 703 1310 3270 3430 4100 4690
2021-01-23 18:15 1.69 913 6190 (1982) 328 (1956) 1900 444 503 632 703 1310 3270 3430 4100 4690
2021-01-23 17:15 1.70 916 6190 (1982) 328 (1956) 1900 444 503 632 703 1310 3270 3430 4100 4690
2021-01-23 16:15 1.71 920 6190 (1982) 328 (1956) 1900 444 503 632 703 1310 3270 3430 4100 4690
2021-01-23 15:15 1.72 923 6190 (1982) 328 (1956) 1900 444 503 632 703 1310 3270 3430 4100 4690
2021-01-23 14:15 1.72 923 6190 (1982) 328 (1956) 1900 444 503 632 703 1310 3270 3430 4100 4690
2021-01-23 13:15 1.73 927 6190 (1982) 328 (1956) 1900 444 503 632 703 1310 3270 3430 4100 4690
2021-01-23 12:15 1.73 927 6190 (1982) 328 (1956) 1900 444 503 632 703 1310 3270 3430 4100 4690
2021-01-23 11:15 1.74 930 6190 (1982) 328 (1956) 1900 444 503 632 703 1310 3270 3430 4100 4690
2021-01-23 10:15 1.73 927 6190 (1982) 328 (1956) 1900 444 503 632 703 1310 3270 3430 4100 4690
2021-01-23 09:15 1.74 930 6190 (1982) 328 (1956) 1900 444 503 632 703 1310 3270 3430 4100 4690
2021-01-23 08:15 1.74 930 6190 (1982) 328 (1956) 1900 444 503 632 703 1310 3270 3430 4100 4690
2021-01-23 07:15 1.74 930 6190 (1982) 328 (1956) 1900 444 503 632 703 1310 3270 3430 4100 4690
2021-01-23 06:15 1.75 934 6190 (1982) 328 (1956) 1900 444 503 632 703 1310 3270 3430 4100 4690
2021-01-23 05:15 1.76 937 6190 (1982) 328 (1956) 1900 444 503 632 703 1310 3270 3430 4100 4690
2021-01-23 04:15 1.76 937 6190 (1982) 328 (1956) 1900 444 503 632 703 1310 3270 3430 4100 4690
2021-01-23 03:15 1.77 940 6190 (1982) 328 (1956) 1900 444 503 632 703 1310 3270 3430 4100 4690
2021-01-23 02:15 1.77 940 6190 (1982) 328 (1956) 1900 444 503 632 703 1310 3270 3430 4100 4690
2021-01-23 01:15 1.78 944 6190 (1982) 328 (1956) 1900 444 503 632 703 1310 3270 3430 4100 4690
2021-01-23 00:15 1.78 944 6190 (1982) 328 (1956) 1900 444 503 632 703 1310 3270 3430 4100 4690
2021-01-22 23:15 1.80 951 7160 (1999) 328 (1956) 1850 448 505 614 649 1160 2820 3440 4150 4670
2021-01-22 22:15 1.81 954 7160 (1999) 328 (1956) 1850 448 505 614 649 1160 2820 3440 4150 4670
2021-01-22 21:15 1.81 954 7160 (1999) 328 (1956) 1850 448 505 614 649 1160 2820 3440 4150 4670
2021-01-22 20:15 1.84 964 7160 (1999) 328 (1956) 1850 448 505 614 649 1160 2820 3440 4150 4670
2021-01-22 19:15 1.85 968 7160 (1999) 328 (1956) 1850 448 505 614 649 1160 2820 3440 4150 4670
2021-01-22 18:15 1.86 971 7160 (1999) 328 (1956) 1850 448 505 614 649 1160 2820 3440 4150 4670
2021-01-22 17:15 1.87 975 7160 (1999) 328 (1956) 1850 448 505 614 649 1160 2820 3440 4150 4670
2021-01-22 16:15 1.89 982 7160 (1999) 328 (1956) 1850 448 505 614 649 1160 2820 3440 4150 4670
2021-01-22 15:15 1.91 989 7160 (1999) 328 (1956) 1850 448 505 614 649 1160 2820 3440 4150 4670
2021-01-22 14:15 1.94 999 7160 (1999) 328 (1956) 1850 448 505 614 649 1160 2820 3440 4150 4670
2021-01-22 13:15 1.98 1010 7160 (1999) 328 (1956) 1850 448 505 614 649 1160 2820 3440 4150 4670
2021-01-22 12:15 1.99 1020 7160 (1999) 328 (1956) 1850 448 505 614 649 1160 2820 3440 4150 4670
2021-01-22 11:15 2.03 1030 7160 (1999) 328 (1956) 1850 448 505 614 649 1160 2820 3440 4150 4670
2021-01-22 10:15 2.05 1040 7160 (1999) 328 (1956) 1850 448 505 614 649 1160 2820 3440 4150 4670
2021-01-22 09:15 2.08 1050 7160 (1999) 328 (1956) 1850 448 505 614 649 1160 2820 3440 4150 4670
2021-01-22 08:15 2.12 1060 7160 (1999) 328 (1956) 1850 448 505 614 649 1160 2820 3440 4150 4670
2021-01-22 07:15 2.14 1070 7160 (1999) 328 (1956) 1850 448 505 614 649 1160 2820 3440 4150 4670
2021-01-22 06:15 2.17 1080 7160 (1999) 328 (1956) 1850 448 505 614 649 1160 2820 3440 4150 4670
2021-01-22 05:15 2.20 1090 7160 (1999) 328 (1956) 1850 448 505 614 649 1160 2820 3440 4150 4670
2021-01-22 04:15 2.23 1100 7160 (1999) 328 (1956) 1850 448 505 614 649 1160 2820 3440 4150 4670
2021-01-22 03:15 2.24 1110 7160 (1999) 328 (1956) 1850 448 505 614 649 1160 2820 3440 4150 4670
2021-01-22 02:15 2.26 1120 7160 (1999) 328 (1956) 1850 448 505 614 649 1160 2820 3440 4150 4670
2021-01-22 01:15 2.26 1120 7160 (1999) 328 (1956) 1850 448 505 614 649 1160 2820 3440 4150 4670
2021-01-22 00:15 2.27 1120 7160 (1999) 328 (1956) 1850 448 505 614 649 1160 2820 3440 4150 4670
2021-01-21 23:15 2.27 1120 4930 (1950) 324 (1956) 1760 421 490 595 638 1100 2870 3250 4120 4510
2021-01-21 22:15 2.27 1120 4930 (1950) 324 (1956) 1760 421 490 595 638 1100 2870 3250 4120 4510
2021-01-21 21:15 2.27 1120 4930 (1950) 324 (1956) 1760 421 490 595 638 1100 2870 3250 4120 4510
2021-01-21 20:15 2.29 1130 4930 (1950) 324 (1956) 1760 421 490 595 638 1100 2870 3250 4120 4510
2021-01-21 19:15 2.28 1120 4930 (1950) 324 (1956) 1760 421 490 595 638 1100 2870 3250 4120 4510
2021-01-21 18:15 2.27 1120 4930 (1950) 324 (1956) 1760 421 490 595 638 1100 2870 3250 4120 4510
2021-01-21 17:15 2.27 1120 4930 (1950) 324 (1956) 1760 421 490 595 638 1100 2870 3250 4120 4510
2021-01-21 16:15 2.27 1120 4930 (1950) 324 (1956) 1760 421 490 595 638 1100 2870 3250 4120 4510
2021-01-21 15:15 2.28 1120 4930 (1950) 324 (1956) 1760 421 490 595 638 1100 2870 3250 4120 4510
2021-01-21 14:15 2.28 1120 4930 (1950) 324 (1956) 1760 421 490 595 638 1100 2870 3250 4120 4510
2021-01-21 13:15 2.28 1120 4930 (1950) 324 (1956) 1760 421 490 595 638 1100 2870 3250 4120 4510
2021-01-21 12:15 2.28 1120 4930 (1950) 324 (1956) 1760 421 490 595 638 1100 2870 3250 4120 4510
2021-01-21 11:15 2.27 1120 4930 (1950) 324 (1956) 1760 421 490 595 638 1100 2870 3250 4120 4510
2021-01-21 10:15 2.26 1120 4930 (1950) 324 (1956) 1760 421 490 595 638 1100 2870 3250 4120 4510
2021-01-21 09:15 2.26 1120 4930 (1950) 324 (1956) 1760 421 490 595 638 1100 2870 3250 4120 4510
2021-01-21 08:15 2.26 1120 4930 (1950) 324 (1956) 1760 421 490 595 638 1100 2870 3250 4120 4510
2021-01-21 07:15 2.27 1120 4930 (1950) 324 (1956) 1760 421 490 595 638 1100 2870 3250 4120 4510
2021-01-21 06:15 2.26 1120 4930 (1950) 324 (1956) 1760 421 490 595 638 1100 2870 3250 4120 4510
2021-01-21 05:15 2.26 1120 4930 (1950) 324 (1956) 1760 421 490 595 638 1100 2870 3250 4120 4510
2021-01-21 04:15 2.26 1120 4930 (1950) 324 (1956) 1760 421 490 595 638 1100 2870 3250 4120 4510
2021-01-21 03:15 2.25 1110 4930 (1950) 324 (1956) 1760 421 490 595 638 1100 2870 3250 4120 4510
2021-01-21 02:15 2.25 1110 4930 (1950) 324 (1956) 1760 421 490 595 638 1100 2870 3250 4120 4510
2021-01-21 01:15 2.25 1110 4930 (1950) 324 (1956) 1760 421 490 595 638 1100 2870 3250 4120 4510
2021-01-21 00:15 2.24 1110 4930 (1950) 324 (1956) 1760 421 490 595 638 1100 2870 3250 4120 4510
2021-01-20 23:15 2.24 1110 5040 (1949) 304 (1956) 1720 407 485 581 642 1050 2540 3450 4080 4410
2021-01-20 22:15 2.22 1100 5040 (1949) 304 (1956) 1720 407 485 581 642 1050 2540 3450 4080 4410
2021-01-20 21:15 2.21 1100 5040 (1949) 304 (1956) 1720 407 485 581 642 1050 2540 3450 4080 4410
2021-01-20 20:15 2.22 1100 5040 (1949) 304 (1956) 1720 407 485 581 642 1050 2540 3450 4080 4410
2021-01-20 19:15 2.21 1100 5040 (1949) 304 (1956) 1720 407 485 581 642 1050 2540 3450 4080 4410
2021-01-20 18:15 2.19 1090 5040 (1949) 304 (1956) 1720 407 485 581 642 1050 2540 3450 4080 4410
2021-01-20 17:15 2.19 1090 5040 (1949) 304 (1956) 1720 407 485 581 642 1050 2540 3450 4080 4410
2021-01-20 16:15 2.18 1090 5040 (1949) 304 (1956) 1720 407 485 581 642 1050 2540 3450 4080 4410
2021-01-20 15:15 2.15 1070 5040 (1949) 304 (1956) 1720 407 485 581 642 1050 2540 3450 4080 4410
2021-01-20 14:15 2.14 1070 5040 (1949) 304 (1956) 1720 407 485 581 642 1050 2540 3450 4080 4410
2021-01-20 13:15 2.12 1060 5040 (1949) 304 (1956) 1720 407 485 581 642 1050 2540 3450 4080 4410
2021-01-20 12:15 2.11 1060 5040 (1949) 304 (1956) 1720 407 485 581 642 1050 2540 3450 4080 4410
2021-01-20 11:15 2.08 1050 5040 (1949) 304 (1956) 1720 407 485 581 642 1050 2540 3450 4080 4410
2021-01-20 10:15 2.06 1040 5040 (1949) 304 (1956) 1720 407 485 581 642 1050 2540 3450 4080 4410
2021-01-20 09:15 2.03 1030 5040 (1949) 304 (1956) 1720 407 485 581 642 1050 2540 3450 4080 4410
2021-01-20 08:15 2.00 1020 5040 (1949) 304 (1956) 1720 407 485 581 642 1050 2540 3450 4080 4410
2021-01-20 07:15 1.97 1010 5040 (1949) 304 (1956) 1720 407 485 581 642 1050 2540 3450 4080 4410
2021-01-20 06:15 1.96 1010 5040 (1949) 304 (1956) 1720 407 485 581 642 1050 2540 3450 4080 4410
2021-01-20 05:15 1.93 996 5040 (1949) 304 (1956) 1720 407 485 581 642 1050 2540 3450 4080 4410
2021-01-20 04:15 1.91 989 5040 (1949) 304 (1956) 1720 407 485 581 642 1050 2540 3450 4080 4410
2021-01-20 03:15 1.89 982 5040 (1949) 304 (1956) 1720 407 485 581 642 1050 2540 3450 4080 4410
2021-01-20 02:15 1.89 982 5040 (1949) 304 (1956) 1720 407 485 581 642 1050 2540 3450 4080 4410
2021-01-20 01:15 1.89 982 5040 (1949) 304 (1956) 1720 407 485 581 642 1050 2540 3450 4080 4410
2021-01-20 00:15 1.88 978 5040 (1949) 304 (1956) 1720 407 485 581 642 1050 2540 3450 4080 4410
2021-01-19 23:15 1.88 978 4420 (1949) 306 (1956) 1640 378 494 592 652 1040 2600 3200 4000 4100
2021-01-19 22:15 1.88 978 4420 (1949) 306 (1956) 1640 378 494 592 652 1040 2600 3200 4000 4100
2021-01-19 21:15 1.90 985 4420 (1949) 306 (1956) 1640 378 494 592 652 1040 2600 3200 4000 4100
2021-01-19 20:15 1.89 982 4420 (1949) 306 (1956) 1640 378 494 592 652 1040 2600 3200 4000 4100
2021-01-19 19:15 1.90 985 4420 (1949) 306 (1956) 1640 378 494 592 652 1040 2600 3200 4000 4100
2021-01-19 18:15 1.90 985 4420 (1949) 306 (1956) 1640 378 494 592 652 1040 2600 3200 4000 4100
2021-01-19 17:15 1.91 989 4420 (1949) 306 (1956) 1640 378 494 592 652 1040 2600 3200 4000 4100
2021-01-19 16:15 1.90 985 4420 (1949) 306 (1956) 1640 378 494 592 652 1040 2600 3200 4000 4100
2021-01-19 15:15 1.91 989 4420 (1949) 306 (1956) 1640 378 494 592 652 1040 2600 3200 4000 4100
2021-01-19 14:15 1.91 989 4420 (1949) 306 (1956) 1640 378 494 592 652 1040 2600 3200 4000 4100
2021-01-19 13:15 1.92 992 4420 (1949) 306 (1956) 1640 378 494 592 652 1040 2600 3200 4000 4100
2021-01-19 12:15 1.92 992 4420 (1949) 306 (1956) 1640 378 494 592 652 1040 2600 3200 4000 4100
2021-01-19 11:15 1.92 992 4420 (1949) 306 (1956) 1640 378 494 592 652 1040 2600 3200 4000 4100
2021-01-19 10:15 1.91 989 4420 (1949) 306 (1956) 1640 378 494 592 652 1040 2600 3200 4000 4100
2021-01-19 09:15 1.93 996 4420 (1949) 306 (1956) 1640 378 494 592 652 1040 2600 3200 4000 4100
2021-01-19 08:15 1.92 992 4420 (1949) 306 (1956) 1640 378 494 592 652 1040 2600 3200 4000 4100
2021-01-19 07:15 1.94 999 4420 (1949) 306 (1956) 1640 378 494 592 652 1040 2600 3200 4000 4100
2021-01-19 06:15 1.92 992 4420 (1949) 306 (1956) 1640 378 494 592 652 1040 2600 3200 4000 4100
2021-01-19 05:15 1.93 996 4420 (1949) 306 (1956) 1640 378 494 592 652 1040 2600 3200 4000 4100
2021-01-19 04:15 1.93 996 4420 (1949) 306 (1956) 1640 378 494 592 652 1040 2600 3200 4000 4100
2021-01-19 03:15 1.94 999 4420 (1949) 306 (1956) 1640 378 494 592 652 1040 2600 3200 4000 4100
2021-01-19 02:15 1.94 999 4420 (1949) 306 (1956) 1640 378 494 592 652 1040 2600 3200 4000 4100
2021-01-19 01:15 1.95 1000 4420 (1949) 306 (1956) 1640 378 494 592 652 1040 2600 3200 4000 4100
2021-01-19 00:15 1.96 1010 4420 (1949) 306 (1956) 1640 378 494 592 652 1040 2600 3200 4000 4100
2021-01-18 23:15 1.95 1000 4140 (1985) 299 (1956) 1580 380 498 567 639 1040 2120 3100 3780 4060
2021-01-18 22:15 1.95 1000 4140 (1985) 299 (1956) 1580 380 498 567 639 1040 2120 3100 3780 4060
2021-01-18 21:15 1.95 1000 4140 (1985) 299 (1956) 1580 380 498 567 639 1040 2120 3100 3780 4060
2021-01-18 20:15 1.95 1000 4140 (1985) 299 (1956) 1580 380 498 567 639 1040 2120 3100 3780 4060
2021-01-18 19:15 1.95 1000 4140 (1985) 299 (1956) 1580 380 498 567 639 1040 2120 3100 3780 4060
2021-01-18 18:15 1.96 1010 4140 (1985) 299 (1956) 1580 380 498 567 639 1040 2120 3100 3780 4060
2021-01-18 17:15 1.95 1000 4140 (1985) 299 (1956) 1580 380 498 567 639 1040 2120 3100 3780 4060
2021-01-18 16:15 1.96 1010 4140 (1985) 299 (1956) 1580 380 498 567 639 1040 2120 3100 3780 4060
2021-01-18 15:15 1.97 1010 4140 (1985) 299 (1956) 1580 380 498 567 639 1040 2120 3100 3780 4060
2021-01-18 14:15 1.97 1010 4140 (1985) 299 (1956) 1580 380 498 567 639 1040 2120 3100 3780 4060
2021-01-18 13:15 1.96 1010 4140 (1985) 299 (1956) 1580 380 498 567 639 1040 2120 3100 3780 4060
2021-01-18 12:15 1.98 1010 4140 (1985) 299 (1956) 1580 380 498 567 639 1040 2120 3100 3780 4060
2021-01-18 11:15 1.99 1020 4140 (1985) 299 (1956) 1580 380 498 567 639 1040 2120 3100 3780 4060
2021-01-18 10:15 1.98 1010 4140 (1985) 299 (1956) 1580 380 498 567 639 1040 2120 3100 3780 4060
2021-01-18 09:15 1.98 1010 4140 (1985) 299 (1956) 1580 380 498 567 639 1040 2120 3100 3780 4060
2021-01-18 08:15 1.98 1010 4140 (1985) 299 (1956) 1580 380 498 567 639 1040 2120 3100 3780 4060
2021-01-18 07:15 1.98 1010 4140 (1985) 299 (1956) 1580 380 498 567 639 1040 2120 3100 3780 4060
2021-01-18 06:15 2.00 1020 4140 (1985) 299 (1956) 1580 380 498 567 639 1040 2120 3100 3780 4060
2021-01-18 05:15 2.00 1020 4140 (1985) 299 (1956) 1580 380 498 567 639 1040 2120 3100 3780 4060
2021-01-18 04:15 2.01 1020 4140 (1985) 299 (1956) 1580 380 498 567 639 1040 2120 3100 3780 4060
2021-01-18 03:15 2.00 1020 4140 (1985) 299 (1956) 1580 380 498 567 639 1040 2120 3100 3780 4060
2021-01-18 02:15 2.02 1030 4140 (1985) 299 (1956) 1580 380 498 567 639 1040 2120 3100 3780 4060
2021-01-18 01:15 2.01 1020 4140 (1985) 299 (1956) 1580 380 498 567 639 1040 2120 3100 3780 4060
2021-01-18 00:15 2.03 1030 4140 (1985) 299 (1956) 1580 380 498 567 639 1040 2120 3100 3780 4060
2021-01-17 23:15 2.02 1030 4170 (2016) 297 (1956) 1540 391 461 571 623 1020 2390 2810 3730 4050
2021-01-17 22:15 2.02 1030 4170 (2016) 297 (1956) 1540 391 461 571 623 1020 2390 2810 3730 4050
2021-01-17 21:15 2.03 1030 4170 (2016) 297 (1956) 1540 391 461 571 623 1020 2390 2810 3730 4050
2021-01-17 20:15 2.03 1030 4170 (2016) 297 (1956) 1540 391 461 571 623 1020 2390 2810 3730 4050
2021-01-17 19:15 2.04 1030 4170 (2016) 297 (1956) 1540 391 461 571 623 1020 2390 2810 3730 4050
2021-01-17 18:15 2.04 1030 4170 (2016) 297 (1956) 1540 391 461 571 623 1020 2390 2810 3730 4050
2021-01-17 17:15 2.04 1030 4170 (2016) 297 (1956) 1540 391 461 571 623 1020 2390 2810 3730 4050
2021-01-17 16:15 2.04 1030 4170 (2016) 297 (1956) 1540 391 461 571 623 1020 2390 2810 3730 4050
2021-01-17 15:15 2.05 1040 4170 (2016) 297 (1956) 1540 391 461 571 623 1020 2390 2810 3730 4050
2021-01-17 14:15 2.05 1040 4170 (2016) 297 (1956) 1540 391 461 571 623 1020 2390 2810 3730 4050
2021-01-17 13:15 2.05 1040 4170 (2016) 297 (1956) 1540 391 461 571 623 1020 2390 2810 3730 4050
2021-01-17 12:15 2.06 1040 4170 (2016) 297 (1956) 1540 391 461 571 623 1020 2390 2810 3730 4050
2021-01-17 11:15 2.05 1040 4170 (2016) 297 (1956) 1540 391 461 571 623 1020 2390 2810 3730 4050
2021-01-17 10:15 2.06 1040 4170 (2016) 297 (1956) 1540 391 461 571 623 1020 2390 2810 3730 4050
2021-01-17 09:15 2.05 1040 4170 (2016) 297 (1956) 1540 391 461 571 623 1020 2390 2810 3730 4050
2021-01-17 08:15 2.07 1050 4170 (2016) 297 (1956) 1540 391 461 571 623 1020 2390 2810 3730 4050
2021-01-17 07:15 2.07 1050 4170 (2016) 297 (1956) 1540 391 461 571 623 1020 2390 2810 3730 4050
2021-01-17 06:15 2.08 1050 4170 (2016) 297 (1956) 1540 391 461 571 623 1020 2390 2810 3730 4050
2021-01-17 05:15 2.08 1050 4170 (2016) 297 (1956) 1540 391 461 571 623 1020 2390 2810 3730 4050
2021-01-17 04:15 2.09 1050 4170 (2016) 297 (1956) 1540 391 461 571 623 1020 2390 2810 3730 4050
2021-01-17 03:15 2.10 1060 4170 (2016) 297 (1956) 1540 391 461 571 623 1020 2390 2810 3730 4050
2021-01-17 02:15 2.10 1060 4170 (2016) 297 (1956) 1540 391 461 571 623 1020 2390 2810 3730 4050
2021-01-17 01:15 2.11 1060 4170 (2016) 297 (1956) 1540 391 461 571 623 1020 2390 2810 3730 4050
2021-01-16 22:15 2.13 1070 4980 (2007) 299 (1956) 1600 392 448 577 627 978 2630 3110 3900 4150
2021-01-16 21:15 2.15 1070 4980 (2007) 299 (1956) 1600 392 448 577 627 978 2630 3110 3900 4150
2021-01-16 20:15 2.17 1080 4980 (2007) 299 (1956) 1600 392 448 577 627 978 2630 3110 3900 4150
2021-01-16 19:15 2.17 1080 4980 (2007) 299 (1956) 1600 392 448 577 627 978 2630 3110 3900 4150
2021-01-16 18:15 2.18 1090 4980 (2007) 299 (1956) 1600 392 448 577 627 978 2630 3110 3900 4150
2021-01-16 17:15 2.19 1090 4980 (2007) 299 (1956) 1600 392 448 577 627 978 2630 3110 3900 4150
2021-01-16 16:15 2.21 1100 4980 (2007) 299 (1956) 1600 392 448 577 627 978 2630 3110 3900 4150
2021-01-16 15:15 2.22 1100 4980 (2007) 299 (1956) 1600 392 448 577 627 978 2630 3110 3900 4150
2021-01-16 14:15 2.23 1100 4980 (2007) 299 (1956) 1600 392 448 577 627 978 2630 3110 3900 4150
2021-01-16 13:15 2.23 1100 4980 (2007) 299 (1956) 1600 392 448 577 627 978 2630 3110 3900 4150
2021-01-16 12:15 2.23 1100 4980 (2007) 299 (1956) 1600 392 448 577 627 978 2630 3110 3900 4150
2021-01-16 11:15 2.25 1110 4980 (2007) 299 (1956) 1600 392 448 577 627 978 2630 3110 3900 4150
2021-01-16 10:15 2.25 1110 4980 (2007) 299 (1956) 1600 392 448 577 627 978 2630 3110 3900 4150
2021-01-16 09:15 2.25 1110 4980 (2007) 299 (1956) 1600 392 448 577 627 978 2630 3110 3900 4150
2021-01-16 08:15 2.26 1120 4980 (2007) 299 (1956) 1600 392 448 577 627 978 2630 3110 3900 4150
2021-01-16 07:15 2.26 1120 4980 (2007) 299 (1956) 1600 392 448 577 627 978 2630 3110 3900 4150
2021-01-16 06:15 2.26 1120 4980 (2007) 299 (1956) 1600 392 448 577 627 978 2630 3110 3900 4150
2021-01-16 05:15 2.26 1120 4980 (2007) 299 (1956) 1600 392 448 577 627 978 2630 3110 3900 4150
2021-01-16 04:15 2.27 1120 4980 (2007) 299 (1956) 1600 392 448 577 627 978 2630 3110 3900 4150
2021-01-16 03:15 2.27 1120 4980 (2007) 299 (1956) 1600 392 448 577 627 978 2630 3110 3900 4150
2021-01-16 02:15 2.27 1120 4980 (2007) 299 (1956) 1600 392 448 577 627 978 2630 3110 3900 4150
2021-01-16 01:15 2.28 1120 4980 (2007) 299 (1956) 1600 392 448 577 627 978 2630 3110 3900 4150
2021-01-16 00:15 2.28 1120 4980 (2007) 299 (1956) 1600 392 448 577 627 978 2630 3110 3900 4150
2021-01-15 23:15 2.28 1120 5460 (2007) 299 (1956) 1640 393 450 591 652 1010 2710 3350 3810 4130
2021-01-15 22:15 2.29 1130 5460 (2007) 299 (1956) 1640 393 450 591 652 1010 2710 3350 3810 4130
2021-01-15 21:15 2.29 1130 5460 (2007) 299 (1956) 1640 393 450 591 652 1010 2710 3350 3810 4130
2021-01-15 20:15 2.30 1130 5460 (2007) 299 (1956) 1640 393 450 591 652 1010 2710 3350 3810 4130
2021-01-15 19:15 2.30 1130 5460 (2007) 299 (1956) 1640 393 450 591 652 1010 2710 3350 3810 4130
2021-01-15 18:15 2.29 1130 5460 (2007) 299 (1956) 1640 393 450 591 652 1010 2710 3350 3810 4130
2021-01-15 17:15 2.31 1130 5460 (2007) 299 (1956) 1640 393 450 591 652 1010 2710 3350 3810 4130
2021-01-15 16:15 2.32 1140 5460 (2007) 299 (1956) 1640 393 450 591 652 1010 2710 3350 3810 4130
2021-01-15 15:15 2.31 1130 5460 (2007) 299 (1956) 1640 393 450 591 652 1010 2710 3350 3810 4130
2021-01-15 14:15 2.32 1140 5460 (2007) 299 (1956) 1640 393 450 591 652 1010 2710 3350 3810 4130
2021-01-15 13:15 2.32 1140 5460 (2007) 299 (1956) 1640 393 450 591 652 1010 2710 3350 3810 4130
2021-01-15 12:15 2.33 1140 5460 (2007) 299 (1956) 1640 393 450 591 652 1010 2710 3350 3810 4130
2021-01-15 11:15 2.33 1140 5460 (2007) 299 (1956) 1640 393 450 591 652 1010 2710 3350 3810 4130
2021-01-15 10:15 2.33 1140 5460 (2007) 299 (1956) 1640 393 450 591 652 1010 2710 3350 3810 4130
2021-01-15 09:15 2.33 1140 5460 (2007) 299 (1956) 1640 393 450 591 652 1010 2710 3350 3810 4130
2021-01-15 08:15 2.34 1150 5460 (2007) 299 (1956) 1640 393 450 591 652 1010 2710 3350 3810 4130
2021-01-15 07:15 2.34 1150 5460 (2007) 299 (1956) 1640 393 450 591 652 1010 2710 3350 3810 4130
2021-01-15 06:15 2.34 1150 5460 (2007) 299 (1956) 1640 393 450 591 652 1010 2710 3350 3810 4130
2021-01-15 05:15 2.34 1150 5460 (2007) 299 (1956) 1640 393 450 591 652 1010 2710 3350 3810 4130
2021-01-15 04:15 2.35 1150 5460 (2007) 299 (1956) 1640 393 450 591 652 1010 2710 3350 3810 4130
2021-01-15 03:15 2.36 1150 5460 (2007) 299 (1956) 1640 393 450 591 652 1010 2710 3350 3810 4130
2021-01-15 02:15 2.36 1150 5460 (2007) 299 (1956) 1640 393 450 591 652 1010 2710 3350 3810 4130
2021-01-15 01:15 2.37 1160 5460 (2007) 299 (1956) 1640 393 450 591 652 1010 2710 3350 3810 4130
2021-01-15 00:15 2.38 1160 5460 (2007) 299 (1956) 1640 393 450 591 652 1010 2710 3350 3810 4130
2021-01-14 23:15 2.38 1160 5580 (2013) 297 (1956) 1670 392 422 619 664 998 3040 3610 3970 4240
2021-01-14 22:15 2.39 1160 5580 (2013) 297 (1956) 1670 392 422 619 664 998 3040 3610 3970 4240
2021-01-14 21:15 2.40 1170 5580 (2013) 297 (1956) 1670 392 422 619 664 998 3040 3610 3970 4240
2021-01-14 20:15 2.41 1170 5580 (2013) 297 (1956) 1670 392 422 619 664 998 3040 3610 3970 4240
2021-01-14 19:15 2.41 1170 5580 (2013) 297 (1956) 1670 392 422 619 664 998 3040 3610 3970 4240
2021-01-14 18:15 2.43 1180 5580 (2013) 297 (1956) 1670 392 422 619 664 998 3040 3610 3970 4240
2021-01-14 17:15 2.44 1180 5580 (2013) 297 (1956) 1670 392 422 619 664 998 3040 3610 3970 4240
2021-01-14 16:15 2.44 1180 5580 (2013) 297 (1956) 1670 392 422 619 664 998 3040 3610 3970 4240
2021-01-14 15:15 2.46 1190 5580 (2013) 297 (1956) 1670 392 422 619 664 998 3040 3610 3970 4240
2021-01-14 14:15 2.47 1190 5580 (2013) 297 (1956) 1670 392 422 619 664 998 3040 3610 3970 4240
2021-01-14 13:15 2.48 1200 5580 (2013) 297 (1956) 1670 392 422 619 664 998 3040 3610 3970 4240
2021-01-14 12:15 2.49 1200 5580 (2013) 297 (1956) 1670 392 422 619 664 998 3040 3610 3970 4240
2021-01-14 11:15 2.50 1200 5580 (2013) 297 (1956) 1670 392 422 619 664 998 3040 3610 3970 4240
2021-01-14 10:15 2.52 1210 5580 (2013) 297 (1956) 1670 392 422 619 664 998 3040 3610 3970 4240
2021-01-14 09:15 2.52 1200 5580 (2013) 297 (1956) 1670 392 422 619 664 998 3040 3610 3970 4240
2021-01-14 08:15 2.54 1200 5580 (2013) 297 (1956) 1670 392 422 619 664 998 3040 3610 3970 4240
2021-01-14 07:15 2.55 1210 5580 (2013) 297 (1956) 1670 392 422 619 664 998 3040 3610 3970 4240
2021-01-14 06:15 2.56 1210 5580 (2013) 297 (1956) 1670 392 422 619 664 998 3040 3610 3970 4240
2021-01-14 05:15 2.58 1220 5580 (2013) 297 (1956) 1670 392 422 619 664 998 3040 3610 3970 4240
2021-01-14 04:15 2.59 1220 5580 (2013) 297 (1956) 1670 392 422 619 664 998 3040 3610 3970 4240
2021-01-14 03:15 2.60 1220 5580 (2013) 297 (1956) 1670 392 422 619 664 998 3040 3610 3970 4240
2021-01-14 02:15 2.59 1220 5580 (2013) 297 (1956) 1670 392 422 619 664 998 3040 3610 3970 4240
2021-01-14 01:15 2.61 1230 5580 (2013) 297 (1956) 1670 392 422 619 664 998 3040 3610 3970 4240
2021-01-14 00:15 2.60 1220 5580 (2013) 297 (1956) 1670 392 422 619 664 998 3040 3610 3970 4240
2021-01-13 23:15 2.62 1230 7130 (2020) 297 (1956) 1620 387 439 618 661 1030 1950 3330 3990 4470
2021-01-13 22:15 2.61 1230 7130 (2020) 297 (1956) 1620 387 439 618 661 1030 1950 3330 3990 4470
2021-01-13 21:15 2.61 1230 7130 (2020) 297 (1956) 1620 387 439 618 661 1030 1950 3330 3990 4470
2021-01-13 20:15 2.63 1230 7130 (2020) 297 (1956) 1620 387 439 618 661 1030 1950 3330 3990 4470
2021-01-13 19:15 2.63 1230 7130 (2020) 297 (1956) 1620 387 439 618 661 1030 1950 3330 3990 4470
2021-01-13 18:15 2.63 1230 7130 (2020) 297 (1956) 1620 387 439 618 661 1030 1950 3330 3990 4470
2021-01-13 17:15 2.64 1240 7130 (2020) 297 (1956) 1620 387 439 618 661 1030 1950 3330 3990 4470
2021-01-13 16:15 2.64 1240 7130 (2020) 297 (1956) 1620 387 439 618 661 1030 1950 3330 3990 4470
2021-01-13 15:15 2.64 1240 7130 (2020) 297 (1956) 1620 387 439 618 661 1030 1950 3330 3990 4470
2021-01-13 14:15 2.64 1240 7130 (2020) 297 (1956) 1620 387 439 618 661 1030 1950 3330 3990 4470
2021-01-13 13:15 2.65 1240 7130 (2020) 297 (1956) 1620 387 439 618 661 1030 1950 3330 3990 4470
2021-01-13 12:15 2.65 1240 7130 (2020) 297 (1956) 1620 387 439 618 661 1030 1950 3330 3990 4470
2021-01-13 11:15 2.66 1250 7130 (2020) 297 (1956) 1620 387 439 618 661 1030 1950 3330 3990 4470
2021-01-13 10:15 2.66 1250 7130 (2020) 297 (1956) 1620 387 439 618 661 1030 1950 3330 3990 4470
2021-01-13 09:15 2.67 1250 7130 (2020) 297 (1956) 1620 387 439 618 661 1030 1950 3330 3990 4470
2021-01-13 08:15 2.67 1250 7130 (2020) 297 (1956) 1620 387 439 618 661 1030 1950 3330 3990 4470
2021-01-13 07:15 2.68 1250 7130 (2020) 297 (1956) 1620 387 439 618 661 1030 1950 3330 3990 4470
2021-01-13 06:15 2.69 1260 7130 (2020) 297 (1956) 1620 387 439 618 661 1030 1950 3330 3990 4470
2021-01-13 05:15 2.70 1260 7130 (2020) 297 (1956) 1620 387 439 618 661 1030 1950 3330 3990 4470
2021-01-13 04:15 2.70 1260 7130 (2020) 297 (1956) 1620 387 439 618 661 1030 1950 3330 3990 4470
2021-01-13 03:15 2.70 1260 7130 (2020) 297 (1956) 1620 387 439 618 661 1030 1950 3330 3990 4470
2021-01-13 02:15 2.72 1270 7130 (2020) 297 (1956) 1620 387 439 618 661 1030 1950 3330 3990 4470
2021-01-13 01:15 2.72 1270 7130 (2020) 297 (1956) 1620 387 439 618 661 1030 1950 3330 3990 4470
2021-01-13 00:15 2.72 1270 7130 (2020) 297 (1956) 1620 387 439 618 661 1030 1950 3330 3990 4470
2021-01-12 23:15 2.73 1270 12100 (2020) 297 (1956) 1640 394 435 643 666 1010 2030 2980 3810 4350
2021-01-12 22:15 2.74 1270 12100 (2020) 297 (1956) 1640 394 435 643 666 1010 2030 2980 3810 4350
2021-01-12 21:15 2.75 1280 12100 (2020) 297 (1956) 1640 394 435 643 666 1010 2030 2980 3810 4350
2021-01-12 20:15 2.76 1280 12100 (2020) 297 (1956) 1640 394 435 643 666 1010 2030 2980 3810 4350
2021-01-12 19:15 2.77 1280 12100 (2020) 297 (1956) 1640 394 435 643 666 1010 2030 2980 3810 4350
2021-01-12 18:15 2.80 1290 12100 (2020) 297 (1956) 1640 394 435 643 666 1010 2030 2980 3810 4350
2021-01-12 17:15 2.81 1300 12100 (2020) 297 (1956) 1640 394 435 643 666 1010 2030 2980 3810 4350
2021-01-12 16:15 2.82 1300 12100 (2020) 297 (1956) 1640 394 435 643 666 1010 2030 2980 3810 4350
2021-01-12 15:15 2.84 1310 12100 (2020) 297 (1956) 1640 394 435 643 666 1010 2030 2980 3810 4350
2021-01-12 14:15 2.85 1310 12100 (2020) 297 (1956) 1640 394 435 643 666 1010 2030 2980 3810 4350
2021-01-12 13:15 2.88 1320 12100 (2020) 297 (1956) 1640 394 435 643 666 1010 2030 2980 3810 4350
2021-01-12 12:15 2.90 1330 12100 (2020) 297 (1956) 1640 394 435 643 666 1010 2030 2980 3810 4350
2021-01-12 11:15 2.92 1330 12100 (2020) 297 (1956) 1640 394 435 643 666 1010 2030 2980 3810 4350
2021-01-12 10:15 2.94 1340 12100 (2020) 297 (1956) 1640 394 435 643 666 1010 2030 2980 3810 4350
2021-01-12 09:15 2.98 1360 12100 (2020) 297 (1956) 1640 394 435 643 666 1010 2030 2980 3810 4350
2021-01-12 08:15 3.02 1370 12100 (2020) 297 (1956) 1640 394 435 643 666 1010 2030 2980 3810 4350
2021-01-12 07:15 3.03 1370 12100 (2020) 297 (1956) 1640 394 435 643 666 1010 2030 2980 3810 4350
2021-01-12 06:15 3.06 1380 12100 (2020) 297 (1956) 1640 394 435 643 666 1010 2030 2980 3810 4350
2021-01-12 05:15 3.08 1390 12100 (2020) 297 (1956) 1640 394 435 643 666 1010 2030 2980 3810 4350
2021-01-12 04:15 3.11 1400 12100 (2020) 297 (1956) 1640 394 435 643 666 1010 2030 2980 3810 4350
2021-01-12 03:15 3.13 1410 12100 (2020) 297 (1956) 1640 394 435 643 666 1010 2030 2980 3810 4350
2021-01-12 02:15 3.15 1410 12100 (2020) 297 (1956) 1640 394 435 643 666 1010 2030 2980 3810 4350
2021-01-12 01:15 3.16 1420 12100 (2020) 297 (1956) 1640 394 435 643 666 1010 2030 2980 3810 4350
2021-01-12 00:15 3.18 1420 12100 (2020) 297 (1956) 1640 394 435 643 666 1010 2030 2980 3810 4350
2021-01-11 23:15 3.19 1430 6370 (2020) 299 (1956) 1650 393 439 648 685 1040 2290 3360 3840 4460
2021-01-11 22:15 3.18 1420 6370 (2020) 299 (1956) 1650 393 439 648 685 1040 2290 3360 3840 4460
2021-01-11 21:15 3.19 1430 6370 (2020) 299 (1956) 1650 393 439 648 685 1040 2290 3360 3840 4460
2021-01-11 20:15 3.20 1430 6370 (2020) 299 (1956) 1650 393 439 648 685 1040 2290 3360 3840 4460
2021-01-11 19:15 3.21 1440 6370 (2020) 299 (1956) 1650 393 439 648 685 1040 2290 3360 3840 4460
2021-01-11 18:15 3.23 1440 6370 (2020) 299 (1956) 1650 393 439 648 685 1040 2290 3360 3840 4460
2021-01-11 17:15 3.21 1440 6370 (2020) 299 (1956) 1650 393 439 648 685 1040 2290 3360 3840 4460
2021-01-11 16:15 3.22 1440 6370 (2020) 299 (1956) 1650 393 439 648 685 1040 2290 3360 3840 4460
2021-01-11 15:15 3.22 1440 6370 (2020) 299 (1956) 1650 393 439 648 685 1040 2290 3360 3840 4460
2021-01-11 14:15 3.23 1440 6370 (2020) 299 (1956) 1650 393 439 648 685 1040 2290 3360 3840 4460
2021-01-11 13:15 3.23 1440 6370 (2020) 299 (1956) 1650 393 439 648 685 1040 2290 3360 3840 4460
2021-01-11 12:15 3.23 1440 6370 (2020) 299 (1956) 1650 393 439 648 685 1040 2290 3360 3840 4460
2021-01-11 11:15 3.25 1450 6370 (2020) 299 (1956) 1650 393 439 648 685 1040 2290 3360 3840 4460
2021-01-11 10:15 3.25 1450 6370 (2020) 299 (1956) 1650 393 439 648 685 1040 2290 3360 3840 4460
2021-01-11 09:15 3.26 1450 6370 (2020) 299 (1956) 1650 393 439 648 685 1040 2290 3360 3840 4460
2021-01-11 08:15 3.26 1450 6370 (2020) 299 (1956) 1650 393 439 648 685 1040 2290 3360 3840 4460
2021-01-11 07:15 3.28 1460 6370 (2020) 299 (1956) 1650 393 439 648 685 1040 2290 3360 3840 4460
2021-01-11 06:15 3.27 1460 6370 (2020) 299 (1956) 1650 393 439 648 685 1040 2290 3360 3840 4460
2021-01-11 05:15 3.28 1460 6370 (2020) 299 (1956) 1650 393 439 648 685 1040 2290 3360 3840 4460
2021-01-11 04:15 3.29 1460 6370 (2020) 299 (1956) 1650 393 439 648 685 1040 2290 3360 3840 4460
2021-01-11 03:15 3.30 1470 6370 (2020) 299 (1956) 1650 393 439 648 685 1040 2290 3360 3840 4460
2021-01-11 02:15 3.30 1470 6370 (2020) 299 (1956) 1650 393 439 648 685 1040 2290 3360 3840 4460
2021-01-11 01:15 3.32 1470 6370 (2020) 299 (1956) 1650 393 439 648 685 1040 2290 3360 3840 4460
2021-01-11 00:15 3.32 1470 6370 (2020) 299 (1956) 1650 393 439 648 685 1040 2290 3360 3840 4460
2021-01-10 23:15 3.33 1480 4610 (2016) 301 (1956) 1560 387 446 638 694 1080 2100 2620 3790 3990
2021-01-10 22:15 3.34 1480 4610 (2016) 301 (1956) 1560 387 446 638 694 1080 2100 2620 3790 3990
2021-01-10 21:15 3.34 1480 4610 (2016) 301 (1956) 1560 387 446 638 694 1080 2100 2620 3790 3990
2021-01-10 20:15 3.34 1480 4610 (2016) 301 (1956) 1560 387 446 638 694 1080 2100 2620 3790 3990
2021-01-10 19:15 3.37 1490 4610 (2016) 301 (1956) 1560 387 446 638 694 1080 2100 2620 3790 3990
2021-01-10 18:15 3.37 1490 4610 (2016) 301 (1956) 1560 387 446 638 694 1080 2100 2620 3790 3990
2021-01-10 17:15 3.38 1490 4610 (2016) 301 (1956) 1560 387 446 638 694 1080 2100 2620 3790 3990
2021-01-10 16:15 3.39 1500 4610 (2016) 301 (1956) 1560 387 446 638 694 1080 2100 2620 3790 3990
2021-01-10 15:15 3.40 1500 4610 (2016) 301 (1956) 1560 387 446 638 694 1080 2100 2620 3790 3990
2021-01-10 14:15 3.42 1510 4610 (2016) 301 (1956) 1560 387 446 638 694 1080 2100 2620 3790 3990
2021-01-10 13:15 3.42 1510 4610 (2016) 301 (1956) 1560 387 446 638 694 1080 2100 2620 3790 3990
2021-01-10 12:15 3.43 1510 4610 (2016) 301 (1956) 1560 387 446 638 694 1080 2100 2620 3790 3990
2021-01-10 11:15 3.45 1520 4610 (2016) 301 (1956) 1560 387 446 638 694 1080 2100 2620 3790 3990
2021-01-10 10:15 3.46 1520 4610 (2016) 301 (1956) 1560 387 446 638 694 1080 2100 2620 3790 3990
2021-01-10 09:15 3.47 1530 4610 (2016) 301 (1956) 1560 387 446 638 694 1080 2100 2620 3790 3990
2021-01-10 08:15 3.49 1530 4610 (2016) 301 (1956) 1560 387 446 638 694 1080 2100 2620 3790 3990
2021-01-10 07:15 3.50 1540 4610 (2016) 301 (1956) 1560 387 446 638 694 1080 2100 2620 3790 3990
2021-01-10 06:15 3.52 1540 4610 (2016) 301 (1956) 1560 387 446 638 694 1080 2100 2620 3790 3990
2021-01-10 05:15 3.54 1550 4610 (2016) 301 (1956) 1560 387 446 638 694 1080 2100 2620 3790 3990
2021-01-10 04:15 3.57 1560 4610 (2016) 301 (1956) 1560 387 446 638 694 1080 2100 2620 3790 3990
2021-01-10 03:15 3.59 1570 4610 (2016) 301 (1956) 1560 387 446 638 694 1080 2100 2620 3790 3990
2021-01-10 02:15 3.62 1580 4610 (2016) 301 (1956) 1560 387 446 638 694 1080 2100 2620 3790 3990
2021-01-10 01:15 3.63 1580 4610 (2016) 301 (1956) 1560 387 446 638 694 1080 2100 2620 3790 3990
2021-01-10 00:15 3.66 1590 4610 (2016) 301 (1956) 1560 387 446 638 694 1080 2100 2620 3790 3990
2021-01-09 23:15 3.68 1600 4460 (2016) 306 (1956) 1540 369 442 618 700 1140 2210 2700 3640 3820
2021-01-09 20:15 3.79 1640 4460 (2016) 306 (1956) 1540 369 442 618 700 1140 2210 2700 3640 3820
2021-01-09 19:15 3.82 1650 4460 (2016) 306 (1956) 1540 369 442 618 700 1140 2210 2700 3640 3820
2021-01-09 18:15 3.87 1670 4460 (2016) 306 (1956) 1540 369 442 618 700 1140 2210 2700 3640 3820
2021-01-09 17:15 3.92 1680 4460 (2016) 306 (1956) 1540 369 442 618 700 1140 2210 2700 3640 3820
2021-01-09 16:15 3.98 1700 4460 (2016) 306 (1956) 1540 369 442 618 700 1140 2210 2700 3640 3820
2021-01-09 15:15 4.03 1720 4460 (2016) 306 (1956) 1540 369 442 618 700 1140 2210 2700 3640 3820
2021-01-09 14:15 4.10 1750 4460 (2016) 306 (1956) 1540 369 442 618 700 1140 2210 2700 3640 3820
2021-01-09 13:15 4.17 1770 4460 (2016) 306 (1956) 1540 369 442 618 700 1140 2210 2700 3640 3820
2021-01-09 12:15 4.25 1800 4460 (2016) 306 (1956) 1540 369 442 618 700 1140 2210 2700 3640 3820
2021-01-09 11:15 4.32 1820 4460 (2016) 306 (1956) 1540 369 442 618 700 1140 2210 2700 3640 3820
2021-01-09 10:15 4.42 1860 4460 (2016) 306 (1956) 1540 369 442 618 700 1140 2210 2700 3640 3820
2021-01-09 09:15 4.52 1900 4460 (2016) 306 (1956) 1540 369 442 618 700 1140